[[{"header":{"parameterUnit":"m.s-1","parameterCategory":1,"la1":30.6,"la2":29.2853,"lo1":-89.7004,"lo2":-87.6739,"dy":0.0162,"dx":0.0183,"nx":112,"ny":82,"refTime":"2024-07-14T18:00:00:Z","depth":0,"parameterNumber":2,"parameterNumberName":"U-component_of_WINDS"},"data":[0.0,0.0,0.0,0.0,0.0,0.0,0.0,0.0,0.0,0.0,0.0,0.0,0.0,0.0,0.0,0.0,0.0,0.0,0.0,0.0,0.0,0.0,0.0,0.0,0.0,0.0,0.0,0.0,0.0,0.0,0.0,0.0,0.0,0.0,0.0,0.0,0.0,0.0,0.0,0.0,0.0,0.0,0.0,0.0,0.0,0.0,0.0,0.0,0.0,0.0,0.0,0.0,0.0,0.0,0.0,0.0,0.0,0.0,0.0,0.0,0.0,0.0,0.0,0.0,0.0,0.0,0.0,0.0,0.0,0.0,0.0,0.0,0.0,0.0,0.0,0.0,0.0,0.0,0.0,0.0,0.0,0.0,0.0,0.0,0.0,0.0,0.0,0.0,0.0,0.0,0.0,-4.1499,-4.2918,-4.3329,-4.26,-4.172,-3.943,-3.5257,0.0,0.0,0.0,0.0,0.0,0.0,0.0,0.0,0.0,0.0,0.0,0.0,0.0,0.0,0.0,0.0,0.0,0.0,0.0,0.0,0.0,0.0,0.0,0.0,0.0,0.0,0.0,0.0,0.0,0.0,0.0,0.0,0.0,0.0,0.0,0.0,0.0,0.0,0.0,0.0,0.0,0.0,0.0,0.0,0.0,0.0,0.0,0.0,0.0,0.0,0.0,0.0,0.0,0.0,0.0,0.0,0.0,0.0,0.0,0.0,0.0,0.0,0.0,0.0,0.0,0.0,0.0,0.0,0.0,0.0,0.0,0.0,0.0,0.0,0.0,0.0,0.0,0.0,0.0,0.0,0.0,0.0,0.0,0.0,0.0,0.0,0.0,0.0,0.0,0.0,0.0,0.0,0.0,0.0,0.0,0.0,0.0,0.0,0.0,0.0,0.0,0.0,0.0,0.0,-3.769,-4.1616,-4.2255,-4.2106,-4.1435,-4.0201,-3.8198,-3.5188,0.0,0.0,0.0,0.0,0.0,0.0,0.0,0.0,0.0,0.0,0.0,0.0,0.0,0.0,0.0,0.0,0.0,0.0,0.0,0.0,0.0,0.0,0.0,0.0,0.0,0.0,0.0,0.0,0.0,0.0,0.0,0.0,0.0,0.0,0.0,0.0,0.0,0.0,0.0,0.0,0.0,0.0,0.0,0.0,0.0,0.0,0.0,0.0,0.0,0.0,0.0,0.0,0.0,0.0,0.0,0.0,0.0,0.0,0.0,0.0,0.0,0.0,0.0,0.0,0.0,0.0,0.0,0.0,0.0,0.0,0.0,0.0,0.0,0.0,0.0,0.0,0.0,0.0,0.0,0.0,0.0,0.0,0.0,0.0,0.0,0.0,0.0,0.0,0.0,0.0,0.0,0.0,0.0,0.0,0.0,0.0,0.0,0.0,0.0,0.0,0.0,0.0,0.0,-3.6329,-3.8497,-4.1509,-4.144,-4.098,-4.048,-3.9216,-3.7107,-3.3942,-3.3157,0.0,0.0,0.0,0.0,0.0,0.0,0.0,0.0,0.0,0.0,0.0,0.0,0.0,0.0,0.0,0.0,0.0,0.0,0.0,0.0,0.0,0.0,0.0,0.0,0.0,0.0,0.0,0.0,0.0,0.0,0.0,0.0,0.0,0.0,0.0,0.0,0.0,0.0,0.0,0.0,0.0,0.0,0.0,0.0,0.0,0.0,0.0,0.0,0.0,0.0,0.0,0.0,0.0,0.0,0.0,0.0,0.0,0.0,0.0,0.0,0.0,0.0,0.0,0.0,0.0,0.0,0.0,0.0,0.0,0.0,0.0,0.0,0.0,0.0,0.0,0.0,0.0,0.0,0.0,0.0,0.0,0.0,0.0,0.0,0.0,0.0,0.0,0.0,0.0,0.0,0.0,0.0,0.0,0.0,0.0,0.0,0.0,0.0,0.0,0.0,0.0,0.0,-3.8148,-3.9416,-4.1124,-4.0579,-3.996,-3.9653,-3.8115,-3.5909,-3.2875,-3.1602,0.0,0.0,0.0,0.0,0.0,0.0,0.0,0.0,0.0,0.0,0.0,0.0,0.0,0.0,0.0,0.0,0.0,0.0,0.0,0.0,0.0,0.0,0.0,0.0,0.0,0.0,0.0,0.0,0.0,0.0,0.0,0.0,0.0,0.0,0.0,0.0,0.0,0.0,0.0,0.0,0.0,0.0,0.0,0.0,0.0,0.0,0.0,0.0,0.0,0.0,0.0,0.0,0.0,0.0,0.0,0.0,0.0,0.0,0.0,0.0,0.0,0.0,0.0,0.0,0.0,0.0,0.0,0.0,0.0,0.0,0.0,0.0,0.0,0.0,0.0,0.0,0.0,0.0,0.0,0.0,0.0,0.0,0.0,0.0,0.0,0.0,0.0,0.0,0.0,0.0,0.0,0.0,0.0,0.0,0.0,0.0,0.0,0.0,0.0,0.0,0.0,0.0,-3.7728,-3.9775,-4.0415,-3.9722,-3.9092,-3.8811,-3.6526,-3.4425,-3.2787,-2.9799,0.0,0.0,0.0,0.0,0.0,0.0,0.0,0.0,0.0,0.0,0.0,0.0,0.0,0.0,0.0,0.0,0.0,0.0,0.0,0.0,0.0,0.0,0.0,0.0,0.0,0.0,0.0,0.0,0.0,0.0,0.0,0.0,0.0,0.0,0.0,0.0,0.0,0.0,0.0,0.0,0.0,0.0,0.0,0.0,0.0,0.0,0.0,0.0,0.0,0.0,0.0,0.0,0.0,0.0,0.0,0.0,0.0,0.0,0.0,0.0,0.0,0.0,0.0,0.0,0.0,0.0,0.0,0.0,0.0,0.0,0.0,0.0,0.0,0.0,0.0,0.0,0.0,0.0,0.0,0.0,0.0,0.0,0.0,0.0,0.0,0.0,0.0,0.0,0.0,0.0,0.0,0.0,0.0,0.0,0.0,0.0,0.0,0.0,0.0,0.0,0.0,0.0,-3.5564,-3.7399,0.0,-3.8759,-3.812,-3.7558,-3.6061,-3.4123,-3.1668,0.0,0.0,0.0,0.0,0.0,0.0,0.0,0.0,0.0,0.0,0.0,0.0,0.0,0.0,0.0,0.0,0.0,0.0,0.0,0.0,0.0,0.0,0.0,0.0,0.0,0.0,0.0,0.0,0.0,0.0,0.0,0.0,0.0,0.0,0.0,0.0,0.0,0.0,0.0,0.0,0.0,0.0,0.0,0.0,0.0,0.0,0.0,0.0,0.0,0.0,0.0,0.0,0.0,0.0,0.0,0.0,0.0,0.0,0.0,0.0,0.0,0.0,0.0,0.0,0.0,0.0,0.0,0.0,0.0,0.0,0.0,0.0,0.0,0.0,0.0,0.0,0.0,0.0,0.0,0.0,0.0,0.0,0.0,0.0,0.0,0.0,0.0,0.0,0.0,0.0,0.0,0.0,0.0,0.0,0.0,0.0,0.0,0.0,0.0,0.0,0.0,0.0,-3.2361,-3.403,-3.5681,0.0,-3.7255,-3.6732,-3.6228,-3.4763,-3.2905,-3.0593,0.0,0.0,0.0,0.0,0.0,0.0,0.0,0.0,0.0,0.0,0.0,0.0,0.0,0.0,0.0,0.0,0.0,0.0,0.0,0.0,0.0,0.0,0.0,0.0,0.0,0.0,0.0,0.0,0.0,0.0,0.0,0.0,0.0,0.0,0.0,0.0,0.0,0.0,0.0,0.0,0.0,0.0,0.0,0.0,0.0,0.0,0.0,0.0,0.0,0.0,0.0,0.0,0.0,0.0,0.0,0.0,0.0,0.0,0.0,0.0,0.0,0.0,0.0,0.0,0.0,0.0,0.0,0.0,0.0,0.0,0.0,0.0,0.0,0.0,0.0,0.0,0.0,0.0,0.0,0.0,0.0,0.0,0.0,0.0,0.0,0.0,0.0,0.0,0.0,0.0,0.0,0.0,0.0,0.0,0.0,0.0,0.0,0.0,0.0,0.0,0.0,0.0,-3.1337,-3.3485,-3.5062,-3.553,-3.5164,-3.4889,-3.4888,-3.2388,-3.0489,0.0,0.0,0.0,0.0,0.0,0.0,0.0,0.0,0.0,0.0,0.0,0.0,0.0,0.0,0.0,0.0,0.0,0.0,0.0,0.0,0.0,0.0,0.0,0.0,0.0,0.0,0.0,0.0,0.0,0.0,0.0,0.0,0.0,0.0,0.0,0.0,0.0,0.0,0.0,0.0,0.0,0.0,0.0,0.0,0.0,0.0,0.0,0.0,0.0,0.0,0.0,0.0,0.0,0.0,0.0,0.0,0.0,0.0,0.0,0.0,0.0,0.0,0.0,0.0,0.0,0.0,0.0,0.0,0.0,0.0,0.0,0.0,0.0,0.0,0.0,0.0,0.0,0.0,0.0,0.0,0.0,0.0,0.0,0.0,0.0,0.0,0.0,0.0,0.0,0.0,0.0,0.0,0.0,0.0,0.0,0.0,0.0,0.0,0.0,0.0,0.0,0.0,0.0,-3.0743,-3.2788,-3.432,-3.5025,-3.4693,-3.4207,-3.3666,-3.2057,-3.0302,-2.8476,0.0,0.0,0.0,0.0,0.0,0.0,0.0,0.0,0.0,0.0,0.0,0.0,0.0,0.0,0.0,0.0,0.0,0.0,0.0,0.0,0.0,0.0,0.0,0.0,0.0,0.0,0.0,0.0,0.0,0.0,0.0,0.0,0.0,0.0,0.0,0.0,0.0,0.0,0.0,0.0,0.0,0.0,0.0,0.0,0.0,0.0,0.0,0.0,0.0,0.0,0.0,0.0,0.0,0.0,0.0,0.0,0.0,0.0,0.0,0.0,0.0,0.0,0.0,0.0,0.0,0.0,0.0,0.0,0.0,0.0,0.0,0.0,0.0,0.0,0.0,0.0,0.0,0.0,0.0,0.0,0.0,0.0,0.0,0.0,0.0,0.0,0.0,0.0,0.0,0.0,0.0,0.0,0.0,0.0,0.0,0.0,0.0,0.0,0.0,0.0,0.0,0.0,-2.9639,-3.1533,-3.2948,-3.36,-3.3267,-3.2805,-3.2397,-3.1098,-2.9482,-2.7503,0.0,0.0,0.0,0.0,0.0,0.0,0.0,0.0,0.0,0.0,0.0,0.0,0.0,0.0,0.0,0.0,0.0,0.0,0.0,0.0,0.0,0.0,0.0,0.0,0.0,0.0,0.0,0.0,0.0,0.0,0.0,0.0,0.0,0.0,0.0,0.0,0.0,0.0,0.0,0.0,0.0,0.0,0.0,0.0,0.0,0.0,0.0,0.0,0.0,0.0,0.0,0.0,0.0,0.0,0.0,0.0,0.0,0.0,0.0,0.0,0.0,0.0,0.0,0.0,0.0,0.0,0.0,0.0,0.0,0.0,0.0,0.0,0.0,0.0,0.0,0.0,0.0,0.0,0.0,0.0,0.0,0.0,0.0,0.0,0.0,0.0,0.0,0.0,0.0,0.0,0.0,0.0,0.0,0.0,0.0,0.0,0.0,0.0,0.0,0.0,0.0,0.0,-2.8382,-3.0098,-3.1332,-3.1715,-3.1411,-3.119,-3.119,-2.9856,-2.8383,-2.6894,0.0,0.0,0.0,0.0,0.0,0.0,0.0,0.0,0.0,0.0,0.0,0.0,0.0,0.0,0.0,0.0,0.0,0.0,0.0,0.0,0.0,0.0,0.0,0.0,0.0,0.0,0.0,0.0,0.0,0.0,0.0,0.0,0.0,0.0,0.0,0.0,0.0,0.0,0.0,0.0,0.0,0.0,0.0,0.0,0.0,0.0,0.0,0.0,0.0,0.0,0.0,0.0,0.0,0.0,0.0,0.0,0.0,0.0,0.0,0.0,-3.1531,0.0,0.0,0.0,0.0,0.0,0.0,0.0,0.0,0.0,0.0,0.0,0.0,0.0,0.0,0.0,0.0,0.0,0.0,0.0,0.0,0.0,0.0,0.0,0.0,0.0,0.0,0.0,0.0,0.0,0.0,0.0,0.0,0.0,0.0,0.0,0.0,0.0,0.0,0.0,0.0,0.0,-2.8695,-3.0234,-3.123,-3.1312,-3.1252,-3.119,-3.119,-2.9856,-2.8586,-2.7621,0.0,0.0,0.0,0.0,0.0,0.0,0.0,0.0,0.0,0.0,0.0,0.0,0.0,0.0,0.0,0.0,0.0,0.0,0.0,0.0,0.0,0.0,0.0,0.0,0.0,0.0,0.0,0.0,0.0,0.0,0.0,0.0,0.0,0.0,0.0,0.0,0.0,0.0,0.0,0.0,0.0,0.0,0.0,0.0,0.0,0.0,0.0,0.0,0.0,0.0,0.0,0.0,0.0,0.0,0.0,0.0,0.0,0.0,0.0,0.0,0.0,-3.254,0.0,0.0,0.0,0.0,0.0,0.0,0.0,0.0,0.0,0.0,0.0,0.0,0.0,0.0,0.0,0.0,0.0,0.0,0.0,0.0,0.0,0.0,0.0,0.0,0.0,0.0,0.0,0.0,0.0,0.0,0.0,0.0,0.0,0.0,0.0,0.0,0.0,0.0,0.0,0.0,-2.8264,-3.004,-3.119,-3.119,-3.119,-3.119,-3.119,-2.9914,-2.8622,-2.7536,-2.5142,0.0,0.0,0.0,0.0,0.0,0.0,0.0,0.0,0.0,0.0,0.0,0.0,0.0,0.0,0.0,0.0,0.0,0.0,0.0,0.0,0.0,0.0,0.0,0.0,0.0,0.0,0.0,0.0,0.0,0.0,0.0,0.0,0.0,0.0,0.0,0.0,0.0,0.0,0.0,0.0,0.0,0.0,0.0,0.0,0.0,0.0,0.0,0.0,0.0,0.0,0.0,0.0,0.0,-3.6725,-3.7055,-3.6927,-3.6927,-3.6853,-3.6633,-3.5257,-3.4504,-3.4156,0.0,0.0,0.0,0.0,0.0,0.0,0.0,0.0,0.0,0.0,0.0,0.0,0.0,0.0,0.0,0.0,0.0,0.0,0.0,0.0,0.0,0.0,0.0,0.0,0.0,-3.0294,-3.0514,0.0,0.0,0.0,0.0,0.0,0.0,0.0,0.0,0.0,0.0,0.0,0.0,-2.7908,-2.9888,-3.119,-3.119,-3.119,-3.119,-3.119,-3.0072,-2.8801,-2.7495,-2.5627,-2.3986,0.0,0.0,0.0,0.0,0.0,0.0,0.0,0.0,0.0,0.0,0.0,0.0,0.0,0.0,0.0,0.0,0.0,0.0,0.0,0.0,0.0,0.0,0.0,0.0,0.0,0.0,0.0,0.0,0.0,0.0,0.0,0.0,-2.236,-2.4222,0.0,0.0,0.0,0.0,0.0,0.0,0.0,0.0,0.0,0.0,0.0,0.0,0.0,0.0,-3.8046,-3.8854,-3.9239,-3.9258,-4.0084,-4.0102,-3.9423,-3.9423,-3.9038,-3.8377,-3.8157,0.0,-3.5844,-3.4284,0.0,0.0,0.0,0.0,0.0,0.0,0.0,0.0,0.0,0.0,0.0,0.0,0.0,0.0,0.0,0.0,0.0,0.0,0.0,0.0,0.0,0.0,-3.1021,-3.092,-3.1055,-3.1089,0.0,-2.9059,-2.7621,-2.7536,0.0,0.0,0.0,0.0,0.0,0.0,0.0,0.0,-2.8756,-3.0209,-3.119,-3.119,-3.119,-3.119,-3.119,-3.0456,-2.9625,-2.88,-2.6496,-2.4812,-2.3975,-2.2409,0.0,0.0,0.0,0.0,0.0,0.0,0.0,0.0,0.0,0.0,0.0,0.0,0.0,0.0,0.0,0.0,0.0,0.0,0.0,0.0,0.0,0.0,0.0,0.0,0.0,0.0,0.0,0.0,0.0,-2.0176,-2.3875,-2.5613,-2.686,-2.7714,0.0,0.0,0.0,0.0,0.0,0.0,0.0,0.0,0.0,-3.7569,-3.8083,-3.8872,-4.0031,-4.0414,-4.0579,-4.0579,-4.093,-4.0912,-4.0579,-4.0579,-4.0139,-3.9368,-3.9368,-3.8726,-3.7551,-3.6358,-3.5605,-3.5092,0.0,0.0,0.0,0.0,0.0,-3.3408,-3.3408,0.0,0.0,0.0,0.0,0.0,0.0,0.0,0.0,0.0,0.0,0.0,0.0,0.0,0.0,-3.1292,-3.1532,-3.1698,-3.1275,-3.0412,-2.96,0.0,-2.8568,-2.7723,-2.6437,0.0,0.0,0.0,0.0,0.0,-2.8959,-3.0296,-3.119,-3.119,-3.119,-3.119,-3.119,-3.0593,-2.9749,-2.8619,-2.7199,-2.591,-2.4804,-2.3402,-2.2531,0.0,0.0,0.0,0.0,0.0,0.0,0.0,0.0,0.0,0.0,0.0,0.0,0.0,0.0,0.0,0.0,0.0,0.0,0.0,0.0,0.0,0.0,0.0,0.0,0.0,0.0,0.0,0.0,-2.2514,-2.5483,-2.7266,-2.9384,-3.0621,0.0,0.0,0.0,0.0,0.0,0.0,-3.6197,-3.6872,-3.7955,-3.957,-4.0194,-4.0891,-4.1717,-4.1717,-4.1717,-4.1717,-4.1717,-4.1625,-4.1407,-4.1407,-4.0855,-3.99,-3.99,-3.9441,-3.8634,-3.7841,-3.7144,-3.6523,-3.5665,-3.5334,-3.5334,-3.5334,-3.5334,-3.5302,-3.517,-3.48,-3.4024,-3.1732,0.0,-2.9472,-2.8014,0.0,0.0,0.0,0.0,-3.0514,-3.1055,0.0,-3.1887,-3.1326,-3.1633,-3.187,-3.1309,-3.119,-3.1038,0.0,-3.0243,-2.9567,-2.7858,0.0,0.0,0.0,0.0,-2.9077,-2.9264,-3.0243,-3.0987,-3.1173,-3.119,-3.119,-3.119,-3.063,-2.9726,-2.8469,-2.7682,-2.6699,-2.546,-2.4404,-2.3729,-2.3421,0.0,0.0,0.0,0.0,0.0,0.0,0.0,0.0,0.0,0.0,0.0,0.0,0.0,0.0,0.0,0.0,0.0,0.0,0.0,0.0,0.0,0.0,0.0,0.0,0.0,0.0,0.0,0.0,0.0,-2.9639,-3.2039,0.0,0.0,0.0,0.0,-3.5922,-3.6119,-3.7184,-3.9533,-3.9698,-4.0451,-4.2066,-4.2158,-4.2561,-4.3369,-4.3386,-4.3386,-4.3386,-4.3386,-4.2983,-4.2249,-4.2249,-4.1387,-3.99,-3.99,-3.9441,-3.8634,-3.7841,-3.7474,-3.7364,-3.6556,-3.6229,-3.6229,-3.6229,-3.6229,-3.6153,-3.5654,-3.4988,-3.4231,-3.3194,-3.16,-3.0059,-2.9956,-2.9937,0.0,0.0,-3.0598,-3.114,-3.119,-3.1224,-3.1241,-3.1207,-3.1224,-3.1241,-3.1207,-3.119,-3.119,0.0,-3.0581,-3.0055,-2.9956,0.0,-2.8908,-2.884,-2.8925,-2.9264,-2.9956,-3.0125,-3.0429,-3.1123,-3.119,-3.119,-3.119,-3.0545,-2.9783,-2.9007,-2.779,-2.6749,-2.5975,-2.5416,-2.4569,-2.3421,-2.3305,0.0,0.0,0.0,0.0,0.0,0.0,0.0,0.0,0.0,0.0,0.0,0.0,0.0,0.0,0.0,0.0,0.0,0.0,0.0,0.0,0.0,0.0,0.0,0.0,0.0,0.0,0.0,0.0,-3.2162,-3.4334,0.0,0.0,-3.6145,-3.7064,-3.7774,-3.8799,-3.9992,-4.1368,-4.1442,-4.1937,-4.3039,-4.3057,-4.3221,-4.3515,-4.3515,-4.3515,-4.3515,-4.3515,-4.3349,-4.3057,-4.3057,-4.2194,-4.0671,-4.0671,-3.9918,-3.8689,-3.8395,-3.8267,-3.823,-3.7955,-3.7845,-3.7845,-3.7845,-3.7845,-3.7738,-3.7019,-3.609,-3.4857,-3.2879,-3.1579,-3.0818,-3.0818,-3.0818,-3.0818,-3.0818,-3.1004,-3.119,-3.119,-3.119,-3.119,-3.119,-3.119,-3.119,-3.119,-3.119,-3.119,-3.119,-3.0987,-3.0666,-3.0192,-2.9888,-2.9364,-2.8383,-2.8671,-2.8925,-2.8652,-2.948,-3.0209,-3.0463,-3.0497,-3.0497,-3.0497,-2.982,-2.9059,-2.8281,-2.78,-2.7224,-2.6487,-2.5979,-2.5354,-2.4569,-2.4125,-2.3067,0.0,0.0,0.0,0.0,0.0,0.0,0.0,0.0,0.0,0.0,0.0,0.0,0.0,0.0,0.0,0.0,0.0,0.0,0.0,0.0,0.0,0.0,0.0,0.0,0.0,0.0,-3.2577,-3.4148,-3.6392,-3.7608,-3.7154,-3.8579,-3.9625,-3.99,-4.091,-4.1864,-4.2653,-4.269,-4.2947,-4.3478,-4.3515,-4.3515,-4.3515,-4.3515,-4.3515,-4.3515,-4.3515,-4.3515,-4.3515,-4.3515,-4.2616,-4.1095,-4.1095,-4.0178,-3.8707,-3.8707,-3.8707,-3.8707,-3.8707,-3.8707,-3.8707,-3.8707,-3.8707,-3.8527,-3.7287,-3.6193,-3.4947,-3.2563,-3.1621,-3.1389,-3.1232,-3.119,-3.119,-3.119,-3.119,-3.119,-3.119,-3.119,-3.119,-3.119,-3.119,-3.119,-3.119,-3.119,-3.119,-3.119,-3.119,-3.1038,-3.0565,-3.048,-3.004,-2.877,-2.8822,-2.8807,-2.8281,-2.911,-2.982,-3.0074,-3.0108,-3.0108,-3.0108,-2.9178,-2.8366,-2.7841,-2.757,-2.7215,-2.6708,-2.615,-2.5599,-2.5093,-2.4071,-2.3123,-2.2258,0.0,0.0,0.0,0.0,0.0,0.0,0.0,0.0,0.0,0.0,0.0,0.0,0.0,0.0,0.0,0.0,0.0,0.0,0.0,0.0,0.0,0.0,0.0,-2.9591,-3.2704,-3.5157,-3.5648,-3.8209,-3.9604,-3.8817,-4.0178,-4.1462,-4.2249,-4.2323,-4.2671,-4.346,-4.3515,-4.3515,-4.3515,-4.3515,-4.3515,-4.3515,-4.3515,-4.3515,-4.3515,-4.3515,-4.3515,-4.3515,-4.3515,-4.2616,-4.1095,-4.1095,-4.0178,-3.8707,-3.8707,-3.8707,-3.8707,-3.8707,-3.8707,-3.8707,-3.8707,-3.8689,-3.8386,-3.6297,-3.5229,-3.4465,-3.2492,-3.1808,-3.1733,-3.1332,-3.121,-3.119,-3.119,-3.119,-3.119,-3.119,-3.119,-3.119,-3.119,-3.119,-3.119,-3.119,-3.119,-3.119,-3.119,-3.1173,-3.1173,-3.119,-3.1157,-3.0886,-3.0176,-2.9414,0.0,-2.8925,-2.8942,-2.9247,-2.9956,-3.0021,-3.0021,-3.0021,-2.8635,-2.7773,-2.7773,-2.7097,-2.6691,-2.6691,-2.6015,-2.538,-2.4839,-2.318,-2.269,-2.3433,0.0,0.0,0.0,0.0,0.0,0.0,0.0,0.0,0.0,0.0,0.0,0.0,0.0,0.0,0.0,0.0,0.0,0.0,0.0,0.0,0.0,0.0,-3.375,-3.375,-3.5419,-3.7014,-3.8015,-3.9355,-4.0037,-3.9601,-4.1038,-4.2066,-4.2286,-4.2837,-4.3276,-4.3496,-4.3515,-4.3515,-4.3515,-4.3515,-4.3515,-4.3515,-4.3515,-4.3515,-4.3515,-4.3515,-4.3515,-4.3515,-4.3515,-4.2616,-4.1095,-4.1095,-4.0178,-3.8707,-3.8707,-3.8707,-3.8707,-3.8707,-3.8707,-3.8707,-3.8707,-3.8322,-3.7554,-3.5769,-3.4885,-3.4327,-3.3178,-3.2366,-3.1789,-3.166,-3.143,-3.119,-3.119,-3.119,-3.119,-3.119,-3.119,-3.119,-3.119,-3.119,-3.119,-3.119,-3.119,-3.119,-3.119,-3.0768,-3.0581,-3.1106,-3.0294,-2.9551,-2.9331,0.0,0.0,-2.7317,-2.7807,-2.8196,-2.8415,-2.8432,-2.8432,-2.8432,-2.7536,-2.6996,0.0,-2.681,-2.6691,-2.6691,-2.6505,-2.6168,-2.5682,-2.3983,-2.3444,0.0,0.0,0.0,0.0,0.0,0.0,0.0,0.0,0.0,0.0,0.0,0.0,0.0,0.0,0.0,0.0,0.0,0.0,0.0,0.0,0.0,0.0,-3.4161,-3.6602,-3.7266,-3.776,-3.8313,-3.9029,-3.9723,-4.0203,-4.0375,-4.1552,-4.2433,-4.2782,-4.3239,-4.3515,-4.3515,-4.3629,-4.371,-4.371,-4.371,-4.371,-4.371,-4.3563,-4.3515,-4.3515,-4.3515,-4.3515,-4.3496,-4.3149,-4.2304,0.0,-4.0744,-3.9882,-3.8707,-3.8707,-3.8707,0.0,0.0,0.0,0.0,0.0,-3.8193,-3.7309,-3.6009,-3.5151,-3.4494,-3.353,-3.284,-3.2315,-3.1915,-3.164,-3.1411,-3.1249,-3.119,-3.119,-3.119,-3.119,-3.119,-3.119,-3.119,-3.1106,-3.0818,-3.0734,-3.0649,-3.0347,0.0,0.0,-3.0192,-2.9568,-2.8891,-2.8552,-2.774,-2.7046,0.0,-2.7334,-2.7807,-2.7807,-2.7807,-2.7807,-2.7807,-2.7131,0.0,0.0,0.0,-2.6455,-2.5916,-2.5899,0.0,0.0,0.0,0.0,0.0,0.0,0.0,0.0,-2.5247,-2.5472,0.0,0.0,0.0,0.0,0.0,0.0,0.0,0.0,0.0,0.0,0.0,0.0,0.0,0.0,0.0,0.0,-3.6496,-3.8489,-3.9948,-3.9569,-3.9165,-3.9165,-3.9684,-4.0333,-4.102,-4.186,-4.2684,-4.351,-4.3565,-4.3582,-4.3614,0.0,0.0,0.0,0.0,-4.4058,-4.4058,-4.3726,-4.3565,-4.3546,-4.3422,-4.3423,-4.3478,-4.2561,-4.1791,-4.1058,-4.0249,-3.9441,-3.8707,-3.8707,-3.8707,-3.8707,-3.8707,-3.8707,-3.8689,-3.8505,-3.7973,0.0,0.0,0.0,0.0,-3.3611,-3.3243,-3.3045,-3.2144,-3.1843,-3.1715,-3.131,-3.119,-3.119,-3.119,-3.119,-3.119,-3.119,-3.114,-3.0903,-3.0243,-3.0021,-2.9786,-2.9128,-2.8925,-2.8857,-2.8857,-2.8857,-2.8619,-2.7908,-2.7722,0.0,-2.6776,-2.7283,-2.7672,-2.7672,0.0,0.0,-2.7672,-2.708,-2.6691,-2.6691,-2.6776,-2.632,-2.519,-2.5152,-2.4953,-2.4473,-2.4509,-2.4868,-2.554,-2.624,-2.6632,-2.6677,-2.5495,-2.5585,0.0,0.0,0.0,0.0,0.0,0.0,0.0,0.0,0.0,0.0,0.0,0.0,0.0,0.0,0.0,-3.6749,-3.846,-3.9823,-4.0362,-3.9894,-3.9498,-3.9498,-4.0405,-4.1048,-4.1101,-4.2065,-4.3045,-4.3838,-4.3893,-4.4046,-4.4364,-4.4447,0.0,-4.4487,-4.4487,-4.4487,-4.4487,-4.4106,-4.3893,-4.3893,0.0,0.0,-4.346,-4.1992,-4.1242,-4.1058,-4.0249,-3.9441,-3.8707,-3.8707,-3.8707,-3.8707,-3.8707,-3.8707,-3.8542,-3.7239,-3.667,-3.6321,-3.4798,-3.4174,-3.3995,-3.3762,-3.3447,-3.309,-3.2516,-3.2092,0.0,-3.131,-3.119,-3.119,-3.119,-3.119,-3.119,-3.119,-3.0751,-3.0277,-3.0123,-2.9634,-2.9179,-2.9027,-2.8484,-2.8027,-2.8027,-2.8027,-2.7976,-2.7824,-2.7283,-2.686,-2.6708,-2.6826,-2.6911,-2.6911,-2.6911,-2.6911,-2.6911,-2.6776,-2.6691,-2.6691,-2.7249,-2.7485,-2.7228,-2.7365,-2.7222,-2.6686,-2.6223,-2.6129,-2.6365,-2.6501,-2.6881,-2.7405,-2.7151,-2.7165,0.0,0.0,0.0,0.0,0.0,0.0,0.0,0.0,0.0,0.0,0.0,-3.1176,-3.3181,0.0,-3.7288,-3.8322,-3.9514,-4.0347,-4.0481,-4.012,-3.9786,-3.9622,-3.9852,-4.0295,-4.1032,-4.162,-4.2526,-4.3908,-4.4001,-4.4175,-4.458,-4.4763,-4.4849,-4.4849,-4.4849,-4.4849,-4.4849,-4.4482,-4.419,-4.3982,-4.3018,-4.2682,-4.2837,-4.124,-4.0506,-4.0451,-3.9643,-3.9074,-3.8707,-3.8707,-3.8707,-3.867,-3.8267,-3.8102,-3.7991,-3.7199,-3.6376,-3.5518,-3.4692,-3.4137,-3.3807,-3.3807,-3.3666,-3.3375,-3.2713,-3.235,-3.2021,-3.137,-3.119,-3.119,-3.119,-3.119,-3.119,-3.119,-3.0632,-3.0006,-2.9634,-2.8941,-2.8281,-2.7909,-2.752,-2.7249,-2.7249,-2.7249,-2.7249,-2.7249,-2.6945,-2.6691,-2.6691,-2.6691,-2.6691,-2.6691,-2.6691,-2.6691,-2.6691,-2.6691,-2.6691,-2.6691,-2.7046,-2.7314,-2.7452,-2.7559,-2.7384,-2.6898,-2.6932,-2.6826,-2.6587,-2.6941,-2.727,-2.7625,-2.791,-2.7885,0.0,0.0,0.0,0.0,0.0,0.0,0.0,0.0,-2.8871,-2.9757,-3.1261,-3.3139,-3.5438,-3.7051,-3.8389,-3.9472,-4.0153,-4.0542,-4.0504,-4.0278,-3.9982,-3.9634,-3.9181,-3.9493,-4.1056,-4.1267,-4.2109,-4.4059,-4.42,-4.4387,-4.4769,-4.5052,-4.5201,-4.5201,-4.5201,-4.5201,-4.5201,-4.4793,-4.4474,-4.42,-4.3025,-4.2449,-4.2345,-4.0499,-3.9753,-3.9845,-3.9056,-3.8707,-3.8707,-3.8707,-3.8707,-3.8615,-3.7823,-3.7401,-3.7254,-3.7088,-3.6156,-3.4986,-3.4821,-3.4344,-3.3807,-3.3807,-3.3807,-3.3648,-3.2872,-3.2567,-3.2333,-3.1543,-3.1252,-3.119,-3.119,-3.119,-3.119,-3.119,-3.0531,-2.9719,-2.9128,-2.8264,-2.7401,-2.681,-2.6691,-2.6691,-2.6691,-2.6691,-2.6691,-2.6691,-2.6691,-2.6691,-2.6691,-2.6691,-2.6691,-2.6691,-2.6691,-2.6691,-2.6691,-2.6691,-2.6691,-2.6691,-2.6826,-2.7009,-2.7234,-2.7271,-2.7136,-2.6812,-2.7223,-2.7234,-2.6757,-2.7308,-2.7565,-2.761,-2.8238,-2.8238,-2.4968,-2.5152,-2.5519,-2.6385,-2.6678,-2.7014,0.0,0.0,-2.9933,-3.1553,-3.2609,-3.4219,-3.7319,-3.8045,-3.8698,-4.0291,-4.0628,-4.0643,-4.0519,-4.0278,-3.9982,-3.9634,-3.9541,-4.004,-4.1408,-4.1825,-4.2812,-4.4821,-4.4977,-4.5129,-4.5457,-4.5522,-4.5531,-4.5531,-4.5531,-4.5531,-4.5531,-4.4919,-4.4739,-4.4947,-4.2455,-4.181,-4.2653,-4.0031,-3.9221,-3.9845,-3.9056,-3.8707,-3.8707,-3.8707,-3.8707,-3.8615,-3.7823,-3.707,-3.634,-3.5573,-3.5169,-3.4912,-3.4192,-3.388,-3.3807,-3.3807,-3.3807,-3.3721,-3.3258,-3.2825,-3.2401,-3.1879,-3.1487,-3.119,-3.119,-3.119,-3.119,-3.119,-3.0144,-2.9094,-2.9027,-2.7841,-2.6793,-2.6708,-2.6691,-2.6691,-2.6691,-2.6691,-2.6691,-2.6691,-2.6691,-2.6691,-2.6691,-2.6691,-2.6691,-2.6691,-2.6691,-2.6691,-2.6691,-2.6691,-2.6691,-2.6691,-2.73,-2.7688,-2.7719,-2.79,-2.7971,-2.7918,-2.7474,-2.7268,-2.7303,-2.738,-2.7472,-2.761,-2.8238,-2.8463,-2.4973,-2.6015,0.0,0.0,-2.8082,-2.888,-2.9099,-2.9773,-3.0573,-3.1344,-3.2506,-3.4109,-3.6382,-3.7579,-3.8611,0.0,-4.0419,-4.0642,-4.0519,-4.0278,-4.0061,-3.9912,-3.9731,-4.0139,-4.1479,-4.1436,-4.2191,-4.4187,-4.4342,-4.4487,-4.4827,-4.5325,-4.5594,-4.5594,-4.5594,-4.5594,-4.5594,-4.5332,-4.5063,-4.4775,-4.2688,-4.1719,-4.1751,-3.9648,-3.8891,-3.9184,-3.8854,-3.8707,-3.867,-3.8193,-3.8267,-3.8579,-3.7294,-3.6597,-3.6193,-3.5316,-3.4711,-3.4252,-3.3917,-3.3807,-3.3807,-3.3807,-3.3807,-3.3721,-3.3317,-3.2856,-3.2401,-3.1915,-3.1507,-3.119,-3.119,-3.119,-3.119,-3.119,-3.0076,-2.8993,-2.8993,-2.7791,-2.6691,-2.6691,-2.6691,-2.6691,-2.6691,-2.6691,-2.6691,-2.6691,-2.6691,-2.6691,-2.6691,-2.6691,-2.6691,-2.6691,-2.6691,-2.6691,-2.6691,-2.6691,-2.6691,-2.6691,-2.6996,-2.735,-2.779,-2.7879,-2.799,-2.8096,-2.7858,-2.7788,-2.7933,-2.7933,-2.8182,-2.867,-2.9271,-2.954,-2.5036,0.0,0.0,-2.7498,-2.8448,-2.9282,-2.905,-2.9639,-3.0299,-3.0608,-3.1769,-3.3372,-3.5422,-3.6927,-3.8248,-3.942,-4.0238,-4.0678,-4.0515,-4.0339,-4.0177,-4.011,-4.0172,-4.0643,-4.1775,-4.1304,-4.1767,-4.3787,-4.3941,-4.4049,-4.4288,-4.5133,-4.5594,-4.5594,-4.5594,-4.5594,-4.5594,-4.5504,-4.5263,-4.4846,-4.2888,-4.1766,-4.1311,-3.9513,-3.8707,-3.8707,-3.8707,-3.8579,-3.834,-3.7988,-3.79,-3.7918,-3.6762,-3.6156,-3.5844,-3.4986,-3.4289,-3.3807,-3.3807,-3.3807,-3.3807,-3.3807,-3.3807,-3.3721,-3.3317,-3.2856,-3.2401,-3.1915,-3.1507,-3.119,-3.119,-3.119,-3.114,-3.0937,-2.9941,-2.8942,-2.8722,-2.7621,-2.6691,-2.6691,-2.6691,-2.6691,-2.6691,-2.6691,-2.6691,-2.6691,-2.6691,-2.6691,-2.6691,-2.6691,-2.6691,-2.6691,-2.6691,-2.6691,-2.6691,-2.6691,-2.6691,-2.6691,-2.6691,-2.6945,-2.7469,-2.7503,-2.758,-2.7696,-2.7713,-2.7791,-2.7906,-2.8136,-2.8522,-2.9118,-2.9918,-3.0293,0.0,0.0,-2.5666,-2.6458,-2.6678,-2.6809,-2.7195,-2.7905,-2.8724,-2.966,-3.0493,-3.2046,-3.5212,-3.6482,-3.7608,-3.9315,-4.0268,-4.0733,-4.053,-4.0489,-4.0389,-4.0129,-4.1069,-4.1956,0.0,-4.1798,-4.2116,-4.4137,-4.4288,-4.4288,-4.4297,-4.5133,-4.5594,-4.5594,-4.5594,-4.5594,-4.5594,-4.5282,-4.5263,-4.5549,-4.2888,-4.1774,-4.1983,-3.974,-3.8707,-3.8707,-3.8707,-3.8267,-3.7603,-3.834,-3.7771,-3.6376,-3.6321,-3.5789,-3.4949,-3.4137,-3.3825,-3.3807,-3.3807,-3.3807,-3.3807,-3.3807,-3.3807,-3.3721,-3.3317,-3.2856,-3.2401,-3.1915,-3.1507,-3.119,-3.119,-3.119,-3.1021,-3.0311,-2.955,-2.879,-2.7993,-2.7249,-2.6691,-2.6691,-2.6691,-2.6691,-2.6691,-2.6691,-2.6691,-2.6691,-2.6691,-2.6691,-2.6691,-2.6691,-2.6691,-2.6691,-2.6691,-2.6691,-2.6691,-2.6691,-2.6691,-2.6691,-2.6691,-2.6708,-2.6725,-2.6725,-2.6742,-2.6742,-2.6742,-2.6802,-2.6929,-2.7725,-2.8188,-2.8377,-2.9673,-3.0293,0.0,0.0,-2.6319,-2.6535,-2.7024,-2.7428,-2.7241,-2.7404,-2.7695,-2.8013,-2.9209,-3.0815,-3.2783,-3.4753,-3.6627,-3.8326,-3.932,-4.0018,-4.0438,-4.0989,-4.133,-4.1227,-4.2074,0.0,0.0,0.0,0.0,-4.4182,-4.3816,-4.3739,-4.4259,-4.5133,-4.5594,-4.5594,-4.5594,-4.5325,-4.4739,-4.5197,-4.4796,-4.3531,-4.1644,-4.0527,-4.0068,-3.9128,-3.8707,-3.8707,-3.8707,-3.823,-3.7529,-3.7786,-3.7584,-3.7052,-3.6505,-3.6119,-3.5771,-3.4912,-3.4266,-3.3807,-3.3807,-3.3807,-3.3807,-3.3807,-3.3807,-3.3762,-3.3652,-3.3302,-3.2874,-3.2401,-3.1933,-3.1425,-3.0658,-3.048,-3.0277,-2.9533,-2.8772,-2.8146,-2.7858,-2.7232,-2.6691,-2.6691,-2.6691,-2.6691,-2.6691,-2.6691,-2.6691,-2.6691,-2.6691,-2.6691,-2.6691,-2.6691,-2.6691,-2.6691,-2.6691,-2.6691,-2.6691,-2.6691,-2.6691,-2.6691,-2.6691,-2.6691,-2.6691,-2.6691,-2.6691,-2.6691,-2.6691,-2.6961,-2.7506,-2.7757,-2.8202,-2.8785,-2.9226,-2.9688,-2.4745,-2.5414,-2.6109,-2.6046,-2.6455,-2.6776,-2.6419,-2.6282,-2.6344,-2.6706,-2.767,-2.9022,-3.0984,-3.2927,-3.4996,-3.729,-3.8631,-3.9765,-4.0827,-4.172,-4.2258,-4.2258,-4.3008,-4.372,0.0,0.0,0.0,-4.422,-4.3719,-4.3624,-4.4278,-4.5133,-4.546,-4.5152,-4.5441,-4.5037,-4.3874,-4.4701,-4.4105,-4.2054,-4.101,-4.0034,-3.9099,-3.8815,-3.8707,-3.8689,-3.8395,-3.7808,-3.707,-3.707,-3.6721,-3.617,-3.5936,-3.5661,-3.533,-3.478,-3.4247,-3.3807,-3.3807,-3.3807,-3.3807,-3.3807,-3.3807,-3.3762,-3.3638,-3.3422,-3.309,-3.2632,-3.2281,-3.1829,-3.0944,-3.0506,-3.0077,-2.9199,-2.8383,-2.7722,-2.7452,-2.7029,-2.6691,-2.6691,-2.6691,-2.6691,-2.6691,-2.6691,-2.6691,-2.6691,-2.6691,-2.6691,-2.6691,-2.6691,-2.6691,-2.6691,-2.6691,-2.6691,-2.6691,-2.6691,-2.6691,-2.6691,-2.6691,-2.6691,-2.6691,-2.6691,-2.6691,-2.6691,-2.6691,-2.6928,-2.7401,-2.7672,-2.806,-2.8569,-2.8874,-2.9416,-2.4209,-2.4649,-2.5046,-2.499,-2.4992,-2.4949,-2.4814,-2.4631,-2.4775,-2.5748,-2.6012,-2.6953,0.0,0.0,-3.3,-3.6297,-3.8277,-3.9966,-4.157,-4.2547,-4.3124,0.0,0.0,0.0,0.0,0.0,0.0,-4.4374,0.0,-4.398,-4.4346,-4.5152,-4.521,-4.4335,-4.5152,-4.4767,-4.3047,-4.3739,-4.3174,-4.1312,-4.0991,-4.0221,-3.9125,-3.8829,-3.8689,-3.8597,-3.7841,-3.7015,-3.6229,-3.6266,-3.533,-3.3935,-3.4711,-3.4527,-3.3862,-3.3825,-3.3807,-3.3807,-3.3807,-3.3807,-3.3807,-3.3807,-3.3807,-3.3721,-3.3346,-3.3229,-3.3121,-3.2665,-3.2534,-3.2416,-3.1899,-3.1219,-3.037,-2.924,-2.8333,-2.7553,-2.6843,-2.6691,-2.6691,-2.6691,-2.6691,-2.6691,-2.6691,-2.6691,-2.6691,-2.6691,-2.6691,-2.6691,-2.6691,-2.6691,-2.6691,-2.6691,-2.6691,-2.6691,-2.6691,-2.6691,-2.6691,-2.6691,-2.6691,-2.6691,-2.6691,-2.6691,-2.6691,-2.6691,-2.6691,-2.6691,-2.6691,-2.7401,-2.7739,-2.7756,-2.8518,-2.9296,-2.3478,-2.4031,-2.4572,-2.479,-2.4855,-2.4806,-2.4615,-2.4545,-2.4626,-2.5024,-2.6103,-2.7291,-2.8368,0.0,0.0,-3.5612,-3.7808,0.0,-4.1566,-4.2547,0.0,-4.3912,0.0,-4.5267,-4.5267,-4.5036,0.0,0.0,-4.4591,-4.4486,-4.522,-4.5479,-4.521,-4.4335,-4.5152,-4.447,-4.2162,-4.1681,-4.1542,-4.1667,-4.0479,-3.9771,-3.945,-3.8946,-3.8377,-3.7786,-3.7584,-3.667,-3.5371,-3.6028,-3.5679,-3.4711,-3.4931,-3.4876,-3.4619,-3.4027,-3.3807,-3.3807,-3.3807,-3.3807,-3.3807,-3.3807,-3.3807,-3.3775,-3.368,-3.3652,-3.3564,-3.3136,-3.3014,-3.2793,-3.1775,-3.0709,-2.9676,-2.8833,-2.7776,-2.6928,-2.6742,-2.6691,-2.6691,-2.6691,-2.6691,-2.6691,-2.6691,-2.6691,-2.6691,-2.6691,-2.6691,-2.6691,-2.6691,-2.6691,-2.6691,-2.6691,-2.6691,-2.6691,-2.6691,-2.6691,-2.6691,-2.6691,-2.6691,-2.6691,-2.6691,-2.6691,-2.6691,-2.6691,-2.6691,-2.6691,-2.6691,-2.6894,-2.6979,-2.6996,-2.7182,-2.8011,-2.2685,-2.3307,-2.3962,-2.4346,-2.4562,-2.4639,-2.4528,-2.4503,-2.4569,-2.476,-2.5594,0.0,-2.7199,0.0,0.0,0.0,0.0,0.0,-4.2027,-4.3104,-4.3932,0.0,-4.5169,0.0,-4.5586,-4.5302,-4.5232,0.0,-4.5006,-4.4939,-4.5566,-4.5594,-4.5037,-4.3816,-4.4586,-4.3989,-4.1808,-4.0931,-4.0746,-4.1219,-4.0272,-3.9742,-3.9587,-3.9095,-3.8372,-3.7474,0.0,-3.6229,-3.5023,-3.5147,-3.4908,-3.4472,-3.4472,-3.4472,-3.4417,-3.3972,-3.3807,-3.3807,-3.3807,-3.3807,-3.3807,-3.3807,-3.3807,-3.3807,-3.3807,-3.3807,-3.3748,-3.3522,-3.3465,-3.3285,-3.2412,-3.1204,-2.9969,-2.9183,-2.7939,-2.6923,-2.6741,-2.6691,-2.6691,-2.6691,-2.6691,-2.6691,-2.6691,-2.6691,-2.6691,-2.6691,-2.6691,-2.6691,-2.6691,-2.6691,-2.6691,-2.6691,-2.6691,-2.6691,-2.6691,-2.6691,-2.6691,-2.6691,-2.6691,-2.6691,-2.6691,-2.6691,-2.6691,-2.6691,-2.6691,-2.6691,-2.6691,-2.6691,-2.6691,-2.6691,-2.6691,-2.7334,-2.173,-2.2498,-2.3328,-2.3759,-2.4165,-2.4452,-2.4452,-2.4478,-2.4569,-2.476,0.0,-2.5459,-2.6422,-2.8159,-3.0493,-3.3686,0.0,-3.9181,-4.2624,-4.3701,-4.4489,-4.5479,-4.5217,-4.505,-4.5359,-4.5014,-4.4878,-4.5186,-4.4968,-4.5073,-4.5566,-4.5498,-4.4701,-4.3143,-4.3547,-4.3143,-4.1808,-4.0931,-4.0496,-4.0496,-4.0223,-3.9886,-3.9475,-3.9114,-3.8322,-3.7198,0.0,0.0,-3.4784,-3.41,-3.3807,-3.3807,-3.3807,-3.3807,-3.3807,-3.3807,-3.3807,-3.3807,-3.3807,-3.3807,-3.3807,-3.3807,-3.3807,-3.3807,-3.3807,-3.3807,-3.377,-3.3678,-3.3715,-3.3666,-3.3107,-3.1942,-3.0679,-2.9744,-2.8389,-2.7194,-2.6791,-2.6691,-2.6691,-2.6691,-2.6691,-2.6691,-2.6691,-2.6691,-2.6691,-2.6691,-2.6691,-2.6691,-2.6691,-2.6691,-2.6691,-2.6691,-2.6691,-2.6691,-2.6691,-2.6691,-2.6691,-2.6691,-2.6691,-2.6691,-2.6691,-2.6691,-2.6691,-2.6691,-2.6691,-2.6691,-2.6691,-2.6691,-2.6691,-2.6691,-2.6691,-2.7097,-2.038,-2.1516,-2.2814,-2.3169,-2.3764,-2.4256,-2.4256,-2.4384,0.0,0.0,0.0,-2.6179,-2.6537,-2.9159,0.0,-3.3878,0.0,0.0,0.0,0.0,-4.3874,0.0,0.0,0.0,0.0,0.0,0.0,0.0,0.0,0.0,-4.5509,-4.4921,-4.4085,-4.3124,-4.1835,-4.1373,-4.1788,-4.0931,-4.0496,-4.0496,-4.0223,-3.969,-3.8917,-3.8351,-3.7285,-3.5832,0.0,0.0,-3.4009,-3.3862,-3.3807,-3.3807,-3.3807,-3.3807,-3.3807,-3.3807,-3.3807,-3.3807,-3.3807,-3.3807,-3.3807,-3.3807,-3.3807,-3.3807,-3.3807,-3.3807,-3.366,-3.2999,-3.3293,-3.3482,-3.2091,-3.1301,-3.0606,-2.9461,-2.8222,-2.7194,-2.6791,-2.6691,-2.6691,-2.6691,-2.6691,-2.6691,-2.6691,-2.6691,-2.6691,-2.6691,-2.6691,-2.6691,-2.6691,-2.6691,-2.6691,-2.6691,-2.6691,-2.6691,-2.6691,-2.6691,-2.6691,-2.6691,-2.6691,-2.6691,-2.6691,-2.6691,-2.6691,-2.6691,-2.6691,-2.6691,-2.6691,-2.6691,-2.6691,-2.6691,-2.6691,-2.7097,-1.9675,-2.0671,-2.181,-2.2641,-2.348,-2.4136,-2.4321,0.0,0.0,0.0,0.0,-2.6483,-2.6586,0.0,0.0,0.0,0.0,0.0,0.0,0.0,0.0,0.0,0.0,0.0,0.0,0.0,0.0,0.0,0.0,0.0,-4.4259,-4.347,-4.2816,-4.245,-4.1162,-4.0708,-4.1123,-4.0708,-4.0496,-4.0496,-4.0372,-3.9783,-3.8795,-3.8504,-3.7321,-3.5491,-3.5328,0.0,-3.3807,-3.3807,-3.3807,-3.3807,-3.3807,-3.3807,-3.3807,-3.3807,-3.3807,-3.3807,-3.3807,-3.3807,-3.3807,-3.3807,-3.3807,-3.3807,-3.3807,-3.3807,-3.3715,-3.333,-3.3201,-3.2999,-3.2228,-3.1123,-3.0025,-2.9265,-2.8028,-2.6939,-2.6741,-2.6691,-2.6691,-2.6691,-2.6691,-2.6691,-2.6691,-2.6691,-2.6691,-2.6691,-2.6873,-2.6939,-2.6725,-2.689,-2.6939,-2.6725,-2.6691,-2.6691,-2.6691,-2.6691,-2.6691,-2.6691,-2.6691,-2.6691,-2.6691,-2.6691,-2.6691,-2.6691,-2.6691,-2.6691,-2.6691,-2.6691,-2.6691,-2.6691,-2.6691,-2.6894,-1.924,-2.0179,-2.1196,-2.2203,-2.3298,-2.4183,-2.4442,-2.4754,0.0,0.0,-2.5852,-2.6659,-2.6832,0.0,0.0,0.0,0.0,0.0,0.0,0.0,0.0,0.0,0.0,0.0,0.0,0.0,0.0,0.0,0.0,0.0,-4.2816,-4.2181,-4.1712,-4.1527,-4.0854,-4.0496,-4.0496,-4.0496,-4.0496,-4.0496,-4.0323,-3.9671,-3.8611,-3.8375,-3.723,-3.5413,-3.5284,0.0,0.0,-3.3815,-3.3807,-3.3807,-3.3807,-3.3807,-3.3807,-3.3807,-3.3807,-3.3807,-3.3807,-3.3807,-3.3807,-3.3807,-3.3807,-3.3807,-3.3807,-3.3678,-3.3513,-3.333,-3.2834,-3.2252,-3.1922,-3.0774,-2.9583,-2.8977,-2.775,-2.6725,-2.6808,-2.6758,-2.6725,-2.6808,-2.6758,-2.6691,-2.6691,-2.6691,-2.6725,-2.6825,-2.7099,-2.7225,-2.6988,-2.7224,-2.727,-2.6873,-2.6758,-2.6691,-2.6691,-2.6691,-2.6691,-2.6691,-2.6691,-2.6691,-2.6691,-2.6691,-2.6691,-2.6691,-2.6691,-2.6691,-2.6691,-2.6691,-2.6691,-2.6691,-2.6691,-2.6691,-1.8949,-2.0347,-2.1824,-2.1952,-2.3216,-2.4459,-2.4495,0.0,0.0,-2.5004,-2.5852,-2.6832,-2.7621,-2.8569,0.0,0.0,0.0,0.0,0.0,0.0,0.0,0.0,0.0,0.0,0.0,0.0,0.0,0.0,0.0,0.0,0.0,-4.1846,-4.145,-4.065,-4.0535,-4.0496,-4.0496,-4.0496,-4.0496,-4.0496,-3.9765,-3.8942,-3.8047,-3.7001,-3.6021,-3.5104,0.0,0.0,0.0,-3.3902,-3.3807,-3.3807,-3.3807,-3.3807,-3.3807,-3.3807,-3.3807,-3.3807,-3.3807,-3.3807,-3.3807,-3.3807,-3.3807,-3.3807,-3.3807,-3.3293,-3.2559,-3.1825,-3.158,-3.1164,-2.9702,-2.9745,-2.9776,-2.8346,-2.7355,-2.6791,-2.7162,-2.6971,-2.6808,-2.7178,-2.6955,-2.6691,-2.6691,-2.6691,-2.6824,-2.7194,-2.7288,-2.7409,-2.7754,-2.7826,-2.7678,-2.7303,-2.6923,-2.6691,-2.6691,-2.6691,-2.6691,-2.6691,-2.6691,-2.6691,-2.6691,-2.6691,-2.6691,-2.6691,-2.6691,-2.6691,-2.6691,-2.6691,-2.6691,-2.6691,-2.6691,-2.6691,-1.9074,-2.0229,-2.1387,-2.2285,-2.3438,-2.4447,-2.4747,0.0,-2.5173,-2.5173,-2.6353,-2.7486,-2.7838,-2.8986,-3.0506,0.0,-3.3103,-3.4372,0.0,0.0,0.0,0.0,0.0,0.0,0.0,0.0,0.0,0.0,0.0,0.0,0.0,-4.1008,-4.0854,-4.0516,-4.0496,-4.0265,-3.9785,-3.9785,-3.9515,-3.8988,-3.8661,-3.8065,-3.7192,-3.6753,-3.6012,-3.5079,0.0,0.0,0.0,-3.3915,-3.3807,-3.3807,-3.3807,-3.3807,-3.3807,-3.3807,-3.3807,-3.3807,-3.3807,-3.3807,-3.3715,-3.3238,-3.3091,-3.3183,-3.3642,-3.3238,-3.2528,-3.221,-3.1421,-3.0522,-2.9886,-2.9424,-2.8913,-2.8095,-2.7666,-2.7472,-2.7636,-2.7547,-2.747,-2.7619,-2.753,-2.7409,-2.7409,-2.7409,-2.7487,-2.7651,-2.7819,-2.7946,-2.7911,-2.8075,-2.796,-2.7363,-2.7162,-2.6954,-2.6725,-2.6691,-2.6691,-2.6691,-2.6691,-2.6691,-2.6691,-2.6691,-2.6691,-2.6691,-2.6691,-2.6691,-2.6691,-2.6691,-2.6691,-2.6691,-2.6691,-2.6691,-1.9211,-2.0312,-2.1356,-2.2583,-2.3679,-2.461,0.0,0.0,-2.5442,-2.5962,-2.7044,-2.7972,-2.8203,-2.9429,-3.0692,0.0,-3.2372,-3.3506,-3.525,0.0,0.0,0.0,0.0,0.0,0.0,0.0,0.0,0.0,0.0,0.0,0.0,-4.015,-4.015,-4.015,-4.0381,-3.9996,-3.8931,-3.9169,-3.8854,-3.8007,-3.7738,-3.7296,-3.6692,-3.6442,-3.5898,-3.5088,0.0,0.0,0.0,-3.3915,-3.3855,-3.3915,-3.3829,-3.3855,-3.3878,-3.3571,-3.3605,-3.377,-3.3532,-3.3458,-3.3348,-3.2784,-3.2436,-3.2357,-3.2926,-3.254,-3.1885,-3.1885,-3.0895,-2.9861,-2.9861,-2.9125,-2.8342,-2.8102,-2.7982,-2.794,-2.8037,-2.7982,-2.794,-2.802,-2.7968,-2.7897,-2.7897,-2.7897,-2.794,-2.8034,-2.825,-2.8355,-2.8242,-2.8425,-2.8342,-2.7689,-2.7545,-2.7272,-2.6741,-2.6691,-2.6691,-2.6691,-2.6691,-2.6691,-2.6691,-2.6691,-2.6691,-2.6691,-2.6691,-2.6691,-2.6691,-2.6691,-2.6691,-2.6691,-2.6691,-2.6691,-1.9335,-2.0719,-2.2054,-2.274,-2.386,-2.5055,0.0,-2.5765,-2.5788,-2.7525,-2.7895,-2.8145,-2.8934,-2.9813,-3.0692,-3.1564,-3.2372,-3.3506,-3.525,0.0,0.0,0.0,0.0,0.0,0.0,0.0,0.0,0.0,0.0,0.0,0.0,-3.9304,-3.9304,-3.9304,-4.0073,-3.9708,-3.8027,-3.8873,-3.8854,-3.7988,-3.7142,-3.6712,-3.6673,-3.5885,-3.5361,0.0,0.0,0.0,0.0,-3.3915,-3.3961,-3.4183,-3.3902,-3.3961,-3.4059,-3.3005,-3.3128,-3.3697,-3.2894,-3.2601,-3.2601,-3.2601,-3.2063,-3.1415,-3.1415,-3.0852,-3.0228,-3.0228,-2.9629,-2.9005,-2.9005,-2.8713,-2.8407,-2.8407,-2.8143,-2.7978,-2.8311,-2.8129,-2.7992,-2.8342,-2.8129,-2.7897,-2.7897,-2.7897,-2.8006,-2.8337,-2.8407,-2.854,-2.894,-2.8994,-2.8839,-2.8433,-2.8088,-2.756,-2.6775,-2.6691,-2.6691,-2.6691,-2.6691,-2.6691,-2.6691,-2.6691,-2.6691,-2.6691,-2.6691,-2.6691,-2.6691,-2.6691,-2.6691,-2.6691,-2.6691,-2.6691,-1.9943,-2.1218,-2.2397,-2.3565,-2.4848,-2.5946,-2.6408,-2.6801,-2.7236,-2.7799,-2.8338,-2.88,-2.905,-2.9813,-3.1058,-3.3083,0.0,0.0,0.0,0.0,0.0,0.0,0.0,0.0,0.0,0.0,0.0,0.0,0.0,0.0,0.0,-3.918,-3.9034,-3.843,-3.8661,-3.8257,-3.7123,-3.7392,-3.7103,-3.6288,-3.6,-3.5885,-3.5865,-3.5615,0.0,0.0,0.0,0.0,0.0,-3.4529,-3.4341,-3.4151,-3.3505,-3.3192,-3.2994,-3.2101,-3.1935,-3.2131,-3.1861,-3.177,-3.1696,-3.1146,-3.0797,-3.0485,-2.9934,-2.9971,-3.0099,-2.9537,-2.9207,-2.9005,-2.9005,-2.8917,-2.8815,-2.8815,-2.8725,-2.8676,-2.8803,-2.8725,-2.8676,-2.8803,-2.8713,-2.8651,-2.8651,-2.8651,-2.8688,-2.8785,-2.8815,-2.8851,-2.8975,-2.9005,-2.8767,-2.8134,-2.795,-2.7695,-2.7162,-2.6857,-2.6691,-2.6691,-2.6691,-2.6691,-2.6691,-2.6691,-2.6691,-2.6691,-2.6691,-2.6691,-2.6691,-2.6691,-2.6691,-2.6691,-2.6691,-2.6691,0.0,-2.156,-2.2841,-2.4367,-2.5529,-2.6517,-2.7338,-2.7736,-2.8082,-2.8717,-2.8986,-2.9204,-2.9525,-3.0019,-3.0923,-3.2506,0.0,0.0,0.0,0.0,0.0,0.0,0.0,0.0,0.0,0.0,0.0,0.0,0.0,0.0,0.0,0.0,-3.793,-3.7084,-3.7661,-3.745,-3.625,-3.6538,-3.6308,-3.55,-3.55,-3.55,-3.55,-3.55,0.0,0.0,0.0,0.0,0.0,-3.4414,-3.4101,-3.381,-3.2903,-3.2446,-3.2182,-3.1268,-3.114,-3.136,-3.1048,-3.0944,-3.0852,-3.0356,-2.9989,-2.9647,-2.9152,-2.9354,-2.9629,-2.9133,-2.9005,-2.9005,-2.9005,-2.9005,-2.9005,-2.9005,-2.9005,-2.9005,-2.9005,-2.9005,-2.9005,-2.9005,-2.9005,-2.9005,-2.9005,-2.9005,-2.9005,-2.9005,-2.9005,-2.9005,-2.9005,-2.9005,-2.8767,-2.8143,-2.7982,-2.7739,-2.7332,-2.6939,-2.6691,-2.6691,-2.6691,-2.6691,-2.6691,-2.6691,-2.6691,-2.6691,-2.6691,-2.6691,-2.6691,-2.6691,-2.6691,-2.6691,-2.6691,-2.6691,0.0,-2.1895,-2.3378,-2.5114,-2.6,-2.6898,-2.8695,-2.8569,0.0,-3.0077,-2.9756,-2.9467,-3.0327,-3.05,-3.0558,-3.0731,0.0,0.0,0.0,0.0,0.0,0.0,0.0,0.0,0.0,0.0,0.0,0.0,0.0,0.0,0.0,0.0,-3.6327,-3.5538,-3.7007,-3.7065,-3.5519,-3.6231,-3.6231,-3.55,-3.55,-3.55,-3.55,-3.55,0.0,0.0,0.0,0.0,0.0,-3.3704,-3.3327,-3.3213,-3.2139,-3.1693,-3.1559,-3.0494,-3.0595,-3.1109,-3.0375,-3.0118,-3.0118,-3.0118,-2.961,-2.9005,-2.9005,-2.9005,-2.9005,-2.9005,-2.9005,-2.9005,-2.9005,-2.9005,-2.9005,-2.9005,-2.9005,-2.9005,-2.9005,-2.9005,-2.9005,-2.9005,-2.9005,-2.9005,-2.9005,-2.9005,-2.9005,-2.9005,-2.9005,-2.9005,-2.9005,-2.9005,-2.8839,-2.8407,-2.8088,-2.7739,-2.7286,-2.6923,-2.6691,-2.6691,-2.6691,-2.6691,-2.6691,-2.6691,-2.6691,-2.6691,-2.6691,-2.6691,-2.6691,-2.6691,-2.6691,-2.6691,-2.6691,-2.6691,-2.2426,0.0,-2.3878,-2.5668,-2.6823,-2.7794,0.0,-2.9467,-2.9923,-3.0327,0.0,-3.0365,-3.1231,-3.1385,-3.2019,0.0,0.0,0.0,0.0,0.0,0.0,0.0,0.0,0.0,0.0,0.0,0.0,0.0,0.0,0.0,0.0,0.0,-3.6327,-3.5538,-3.5885,-3.5904,-3.55,-3.5692,-3.5692,-3.55,-3.55,-3.55,-3.55,-3.55,0.0,0.0,0.0,0.0,-3.4232,-3.3198,-3.2669,-3.2383,-3.13,-3.0746,-3.0463,-2.9609,-2.939,-2.9537,-2.9354,-2.928,-2.928,-2.928,-2.9152,-2.9005,-2.9005,-2.9005,-2.9005,-2.9005,-2.9005,-2.9005,-2.9005,-2.9005,-2.9005,-2.9005,-2.9005,-2.9005,-2.9005,-2.9005,-2.9005,-2.9005,-2.9005,-2.9005,-2.9005,-2.9005,-2.9005,-2.9005,-2.9005,-2.9005,-2.9005,-2.9005,-2.8755,-2.8093,-2.7954,-2.7604,-2.6906,-2.6758,-2.6691,-2.6691,-2.6691,-2.6691,-2.6691,-2.6691,-2.6691,-2.6691,-2.6691,-2.6691,-2.6691,-2.6691,-2.6691,-2.6691,-2.6691,-2.6691,-2.3619,-2.4243,-2.4984,-2.6508,-2.7673,-2.8665,-2.9506,0.0,0.0,0.0,0.0,-3.0538,-3.1019,-3.1429,0.0,0.0,0.0,0.0,0.0,0.0,0.0,0.0,0.0,0.0,0.0,0.0,0.0,0.0,0.0,0.0,0.0,0.0,-3.5942,-3.5519,-3.55,-3.55,-3.55,-3.55,-3.55,-3.55,-3.55,-3.55,-3.5481,-3.5084,0.0,0.0,0.0,0.0,-3.3519,-3.2457,-3.1865,-3.1534,-3.0476,-2.9894,-2.9592,-2.9152,-2.9005,-2.9005,-2.9005,-2.9005,-2.9005,-2.9005,-2.9005,-2.9005,-2.9005,-2.9005,-2.9005,-2.9005,-2.9005,-2.9005,-2.9005,-2.9005,-2.9005,-2.9005,-2.9005,-2.9005,-2.9005,-2.9005,-2.9005,-2.9005,-2.9005,-2.9005,-2.9005,-2.9005,-2.9005,-2.9005,-2.9005,-2.9005,-2.9005,-2.8839,-2.8502,-2.7968,-2.7722,-2.7363,-2.6758,-2.6691,-2.6691,-2.6691,-2.6691,-2.6691,-2.6691,-2.6691,-2.6691,-2.6691,-2.6691,-2.6691,-2.6691,-2.6691,-2.6691,-2.6691,-2.6691,-2.6691,-2.4625,-2.5484,-2.6381,-2.7396,-2.8386,-2.9308,-3.0044,0.0,0.0,0.0,0.0,0.0,0.0,0.0,0.0,0.0,0.0,0.0,0.0,0.0,0.0,0.0,0.0,0.0,0.0,0.0,0.0,0.0,0.0,0.0,0.0,0.0,0.0,-3.55,-3.55,-3.55,-3.55,-3.55,-3.5423,-3.5308,-3.5442,-3.5423,-3.5269,-3.4545,0.0,0.0,0.0,0.0,-3.2628,-3.1503,-3.0959,-3.0704,-2.9715,-2.9192,-2.9005,-2.9005,-2.9005,-2.9005,-2.9005,-2.9005,-2.9005,-2.9005,-2.9005,-2.9005,-2.9005,-2.9005,-2.9005,-2.9005,-2.9005,-2.9005,-2.9005,-2.9005,-2.9005,-2.9005,-2.9005,-2.9005,-2.9005,-2.9005,-2.9005,-2.9005,-2.9005,-2.9005,-2.9005,-2.9005,-2.9005,-2.9005,-2.9005,-2.8982,-2.8917,-2.8602,-2.825,-2.7837,-2.75,-2.7131,-2.6741,-2.6691,-2.6691,-2.6691,-2.6691,-2.6691,-2.6691,-2.6691,-2.6691,-2.6691,-2.6691,-2.6691,-2.6691,-2.6691,-2.6691,-2.6691,-2.6691,-2.6691,-2.5817,-2.6887,-2.7682,-2.7813,-2.8531,-2.9192,-2.9289,0.0,0.0,0.0,0.0,0.0,0.0,0.0,0.0,0.0,0.0,0.0,0.0,0.0,0.0,0.0,0.0,0.0,0.0,0.0,0.0,0.0,0.0,0.0,0.0,0.0,0.0,-3.55,-3.55,-3.55,-3.55,-3.55,-3.5135,-3.4417,-3.5154,-3.5115,-3.4398,-3.4263,-3.4205,0.0,0.0,-3.1891,-3.1789,-3.0486,-2.9928,-2.983,-2.9283,-2.9051,-2.9005,-2.9005,-2.9005,-2.9005,-2.9005,-2.9005,-2.9005,-2.9005,-2.9005,-2.9005,-2.9005,-2.9005,-2.9005,-2.9005,-2.9005,-2.9005,-2.9005,-2.9005,-2.9005,-2.9005,-2.9005,-2.9005,-2.9005,-2.9005,-2.9005,-2.9005,-2.9005,-2.9005,-2.9005,-2.9005,-2.9005,-2.9005,-2.9005,-2.8893,-2.854,-2.8446,-2.8139,-2.7454,-2.735,-2.7131,-2.6741,-2.6691,-2.6691,-2.6691,-2.6691,-2.6691,-2.6691,-2.6691,-2.6691,-2.6691,-2.6691,-2.6691,-2.6691,-2.6691,-2.6691,-2.6691,-2.6691,-2.6691,-2.5673,-2.659,-2.7456,-2.7908,-2.8981,-2.9954,-2.9927,0.0,0.0,0.0,0.0,0.0,0.0,0.0,0.0,0.0,0.0,0.0,0.0,0.0,0.0,0.0,0.0,0.0,0.0,0.0,0.0,0.0,0.0,0.0,0.0,0.0,0.0,0.0,-3.4334,-3.4103,-3.4103,-3.4103,-3.4122,-3.4205,-3.4122,-3.3891,-3.3468,-3.3045,-3.2852,-3.2776,0.0,-3.1,-3.0937,-3.0059,-2.9705,-2.9652,-2.9185,-2.9005,-2.9005,-2.9005,-2.9005,-2.9005,-2.9005,-2.9005,-2.9005,-2.9005,-2.9005,-2.9005,-2.9005,-2.9005,-2.9005,-2.9005,-2.9005,-2.9005,-2.9005,-2.9005,-2.9005,-2.9005,-2.9005,-2.9005,-2.9005,-2.9005,-2.9005,-2.9005,-2.9005,-2.9005,-2.9005,-2.9005,-2.9005,-2.9005,-2.9005,-2.8851,-2.8446,-2.825,-2.7922,-2.7363,-2.7099,-2.6906,-2.6708,-2.6691,-2.6691,-2.6691,-2.6691,-2.6522,-2.6116,-2.6116,-2.5913,-2.5523,-2.5896,-2.5913,-2.5506,-2.5913,-2.6116,-2.6116,-2.6116,-2.6319,-2.56,-2.6242,-2.7002,-2.7904,0.0,-3.0138,-3.0534,0.0,0.0,0.0,0.0,0.0,0.0,0.0,0.0,0.0,0.0,0.0,0.0,0.0,0.0,0.0,0.0,0.0,0.0,0.0,0.0,0.0,0.0,0.0,0.0,0.0,0.0,0.0,-3.3256,-3.2891,-3.2891,-3.2718,-3.2949,-3.3609,-3.3122,-3.2795,-3.2602,-3.1987,-3.1698,-3.166,-3.0788,-3.0404,-3.0361,-2.9888,-2.9705,-2.9652,-2.9185,-2.9005,-2.9005,-2.9067,-2.9089,-2.9089,-2.9089,-2.9089,-2.9078,-2.9028,-2.9005,-2.9005,-2.9005,-2.9005,-2.9005,-2.9005,-2.9005,-2.9005,-2.9005,-2.9005,-2.9005,-2.9005,-2.9005,-2.9005,-2.9005,-2.9005,-2.9005,-2.9005,-2.9005,-2.9005,-2.9005,-2.9005,-2.9005,-2.9005,-2.9005,-2.8827,-2.8342,-2.8061,-2.7707,-2.7208,-2.689,-2.6623,-2.6454,-2.6437,-2.637,-2.62,-2.6336,-2.6184,-2.5625,-2.5439,-2.5067,-2.4508,-2.505,-2.505,-2.4491,-2.5067,-2.5338,-2.5338,-2.5338,-2.5642,-2.6366,-2.6695,-2.7013,-2.7955,-2.8271,0.0,-3.0338,-3.0647,0.0,0.0,0.0,0.0,0.0,0.0,0.0,0.0,0.0,0.0,0.0,0.0,0.0,0.0,0.0,0.0,0.0,0.0,0.0,0.0,0.0,0.0,0.0,0.0,0.0,0.0,0.0,-3.2891,-3.2891,-3.216,-3.1814,-3.1891,-3.2564,-3.2506,-3.1775,-3.1737,-3.1698,-3.166,-3.0788,-3.0404,-3.0361,-2.9888,-2.9705,-2.9652,-2.9185,-2.9005,-2.904,-2.9278,-2.9372,-2.9372,-2.9372,-2.9372,-2.933,-2.9078,-2.9005,-2.9005,-2.9005,-2.9005,-2.9005,-2.9005,-2.9005,-2.9005,-2.9005,-2.9005,-2.9005,-2.9005,-2.9005,-2.9005,-2.9005,-2.9005,-2.9005,-2.9005,-2.9005,-2.9005,-2.9005,-2.9005,-2.9005,-2.9005,-2.9005,-2.8743,-2.8037,-2.7911,-2.7604,-2.6841,-2.6708,-2.642,-2.5744,-2.5693,-2.5389,-2.4694,-2.5304,-2.5659,-2.5592,-2.4948,-2.4541,-2.4491,-2.4541,-2.4541,-2.4491,-2.4541,-2.4575,-2.4575,-2.4575,-2.4609,-2.5826,-2.6373,-2.6905,-2.7334,-2.7867,0.0,0.0,0.0,0.0,0.0,0.0,0.0,0.0,0.0,0.0,0.0,0.0,0.0,0.0,0.0,0.0,0.0,0.0,0.0,0.0,0.0,0.0,0.0,0.0,0.0,0.0,0.0,0.0,0.0,0.0,-3.1346,-3.1346,-3.1038,-3.0885,-3.0904,-3.1192,-3.1192,-3.0885,-3.0885,-3.0885,-3.0865,-3.0538,-3.0404,-3.0367,-3.0025,-2.9813,-2.9652,-2.9185,-2.9005,-2.9021,-2.9299,-2.9402,-2.9433,-2.9533,-2.9504,-2.9382,-2.9278,-2.9134,-2.9005,-2.9005,-2.9005,-2.9005,-2.9005,-2.9005,-2.9005,-2.9005,-2.9005,-2.9005,-2.9005,-2.9005,-2.9005,-2.9005,-2.9005,-2.9005,-2.9005,-2.9005,-2.9005,-2.9005,-2.9005,-2.9005,-2.9005,-2.9005,-2.8725,-2.7996,-2.7897,-2.7589,-2.6791,-2.6285,-2.5913,-2.5625,-2.5169,-2.4795,-2.4508,-2.4762,-2.4695,-2.4255,-2.3951,-2.3596,-2.3139,-2.3579,-2.3594,-2.3122,-2.3594,-2.3831,-2.3831,-2.3831,-2.4068,-2.5749,-2.6101,-2.6548,0.0,0.0,0.0,0.0,0.0,0.0,0.0,0.0,0.0,0.0,0.0,0.0,0.0,0.0,0.0,0.0,0.0,0.0,0.0,0.0,0.0,0.0,0.0,0.0,0.0,0.0,0.0,0.0,0.0,0.0,0.0,0.0,0.0,-3.0404,-3.0404,-3.0404,-3.0404,-3.0404,-3.0404,-3.0404,-3.0404,-3.0404,-3.0404,-3.0404,-3.0404,-3.0373,-3.0103,-2.9845,-2.9579,-2.9249,-2.9067,-2.9021,-2.9299,-2.9402,-2.9424,-2.9625,-2.9561,-2.9402,-2.9402,-2.9047,-2.862,-2.862,-2.862,-2.862,-2.862,-2.8803,-2.9005,-2.9005,-2.9005,-2.9005,-2.9005,-2.9005,-2.9005,-2.9005,-2.9005,-2.9005,-2.9005,-2.9005,-2.9005,-2.9005,-2.9005,-2.9005,-2.9005,-2.9005,-2.8725,-2.7996,-2.7897,-2.7502,-2.6469,-2.5693,-2.5169,-2.4932,-2.4441,-2.4051,-2.3831,-2.3814,-2.3678,-2.341,-2.3173,-2.2818,-2.2313,-2.2881,-2.292,-2.2426,-2.3045,-2.334,-2.334,-2.3229,-2.3463,-2.6351,-2.6057,-2.5936,0.0,0.0,0.0,0.0,0.0,0.0,0.0,0.0,0.0,0.0,0.0,0.0,0.0,0.0,0.0,0.0,0.0,0.0,0.0,0.0,0.0,0.0,0.0,0.0,0.0,0.0,0.0,0.0,0.0,0.0,0.0,0.0,0.0,-3.0385,-3.0385,-3.0385,-3.0385,-3.0385,-3.0385,-3.0404,-3.0404,-3.0404,-3.0404,-3.0404,-3.0404,-3.0373,-3.0103,-2.9754,-2.9375,-2.9384,-2.9217,-2.9003,-2.928,-2.9384,-2.9405,-2.9606,-2.9542,-2.9384,-2.9384,-2.8651,-2.7787,-2.7787,-2.7787,-2.7787,-2.7787,-2.8374,-2.8987,-2.8987,-2.8987,-2.9005,-2.9005,-2.9005,-2.9005,-2.9005,-2.9005,-2.9005,-2.9005,-2.9005,-2.9005,-2.9005,-2.9005,-2.9005,-2.9005,-2.8994,-2.8743,-2.7996,-2.788,-2.7277,-2.5757,-2.4932,-2.4186,-2.346,-2.3408,-2.3071,-2.2361,-2.231,-2.2632,-2.3359,-2.2699,-2.2296,-2.231,-2.2546,-2.2708,-2.2708,-2.3045,-2.32,-2.3189,-2.286,-2.2708,-2.5631,-2.6029,0.0,0.0,0.0,0.0,0.0,0.0,0.0,0.0,0.0,0.0,0.0,0.0,0.0,0.0,0.0,0.0,0.0,0.0,0.0,0.0,0.0,0.0,0.0,0.0,0.0,0.0,0.0,0.0,0.0,0.0,0.0,0.0,0.0,0.0,-2.9486,-2.8929,-2.864,-2.864,-2.864,-2.9256,-3.0404,-3.0404,-3.0404,-3.0404,-3.0404,-3.0404,-3.0334,-2.9492,-2.8714,-2.805,-2.7755,-2.7584,-2.7525,-2.7614,-2.7634,-2.7681,-2.7928,-2.7851,-2.7634,-2.7634,-2.7328,-2.6961,-2.6961,-2.6961,-2.6961,-2.6961,-2.7548,-2.8154,-2.8154,-2.8583,-2.9005,-2.9005,-2.9005,-2.9005,-2.9005,-2.9005,-2.9005,-2.9005,-2.9005,-2.9005,-2.9005,-2.9005,-2.9005,-2.9005,-2.8761,-2.8316,-2.7574,-2.6774,-2.6116,-2.5642,-2.4475,-2.3644,-2.341,-2.3092,-2.2723,-2.2341,-2.2699,-2.2838,-2.2629,-2.2429,-2.2388,-2.259,-2.266,-2.2822,-2.3057,-2.3153,-2.32,-2.3189,-2.286,-2.2708,-2.6145,0.0,0.0,0.0,0.0,0.0,0.0,0.0,0.0,0.0,0.0,0.0,0.0,0.0,0.0,0.0,0.0,0.0,0.0,0.0,0.0,0.0,0.0,0.0,0.0,0.0,0.0,0.0,0.0,0.0,0.0,0.0,0.0,0.0,0.0,0.0,-2.8626,-2.8145,-2.7895,-2.7895,-2.7895,-2.8429,-2.941,-2.941,-2.941,-2.941,-2.941,-2.941,-2.936,-2.8708,-2.8064,-2.7468,-2.7142,-2.6971,-2.6888,-2.6803,-2.6774,-2.6822,-2.7068,-2.6989,-2.6793,-2.687,-2.6551,-2.6117,-2.6117,-2.6117,-2.6117,-2.6117,-2.6704,-2.7328,-2.7328,-2.7915,-2.8601,-2.8932,-2.9005,-2.9005,-2.9005,-2.9005,-2.9005,-2.9005,-2.9005,-2.9005,-2.9005,-2.9005,-2.9005,-2.9005,-2.8545,-2.8084,-2.7776,-2.6353,-2.5369,-2.54,-2.4018,-2.313,-2.313,-2.2854,-2.2686,-2.266,-2.2989,-2.3038,-2.2673,-2.2664,-2.2734,-2.2898,-2.3033,-2.3189,-2.3403,-2.3533,-2.3533,-2.3392,-2.3057,-2.2835,-2.7262,0.0,0.0,0.0,0.0,0.0,0.0,0.0,0.0,0.0,0.0,0.0,0.0,0.0,0.0,0.0,0.0,0.0,0.0,0.0,0.0,0.0,0.0,0.0,0.0,0.0,0.0,0.0,0.0,0.0,0.0,0.0,0.0,0.0,0.0,0.0,-2.778,-2.7698,-2.7659,0.0,-2.7659,-2.7659,-2.7659,-2.7838,-2.7895,-2.7895,-2.7895,-2.7857,-2.778,-2.778,-2.7595,-2.7273,-2.7078,-2.6875,-2.6684,-2.6479,-2.6403,-2.6405,-2.6599,-2.6541,-2.6415,-2.6581,-2.6041,-2.5283,-2.5283,-2.5283,-2.5283,-2.5283,-2.586,-2.6502,-2.6502,-2.709,-2.7897,-2.8693,-2.895,-2.9005,-2.9005,-2.9005,-2.9005,-2.9005,-2.9005,-2.9005,-2.9005,-2.9005,-2.8994,-2.894,-2.8373,-2.8034,-2.8329,-2.6417,-2.5062,-2.5104,-2.3684,-2.2733,-2.2708,-2.2759,-2.291,-2.3177,-2.3265,-2.3288,-2.3253,-2.323,-2.3212,-2.3236,-2.3544,-2.3714,-2.3753,-2.4016,-2.3996,-2.3692,-2.3317,-2.2996,0.0,-2.6251,0.0,0.0,0.0,0.0,0.0,0.0,0.0,0.0,0.0,0.0,0.0,0.0,0.0,0.0,0.0,0.0,0.0,0.0,0.0,0.0,0.0,0.0,0.0,0.0,0.0,0.0,0.0,0.0,0.0,0.0,0.0,0.0,0.0,-2.689,-2.689,-2.6192,-2.5865,0.0,-2.5865,-2.5865,-2.5904,-2.7274,-2.7895,-2.7895,-2.7895,-2.7505,-2.689,-2.689,-2.6446,-2.574,-2.5545,-2.5387,-2.5227,-2.5025,-2.4857,-2.4713,-2.4781,-2.4762,-2.4713,-2.4763,-2.4633,-2.4456,-2.4456,-2.4456,-2.4456,-2.4456,-2.5044,-2.5668,-2.5668,-2.6264,-2.7071,-2.786,-2.8528,-2.9005,-2.9005,-2.9005,-2.9005,-2.9005,-2.9005,-2.9005,-2.9005,-2.9005,-2.8887,-2.8577,-2.8394,-2.8224,-2.8034,-2.6485,-2.5314,-2.5133,-2.3893,-2.2984,-2.2721,-2.3177,-2.3403,-2.32,-2.3692,-2.3876,-2.3599,-2.3346,-2.3317,-2.3577,-2.3671,-2.3827,-2.4094,-2.3907,-2.3774,-2.3682,-2.3081,-2.2772,0.0,0.0,0.0,0.0,0.0,0.0,0.0,0.0,0.0,0.0,0.0,0.0,0.0,0.0,0.0,0.0,0.0,0.0,0.0,0.0,0.0,0.0,0.0,0.0,0.0,0.0,0.0,0.0,0.0,0.0,0.0,0.0,0.0,0.0,-2.6256,-2.6037,-2.6037,-2.5608,-2.5372,-2.5352,-2.5352,-2.5326,-2.5327,-2.6231,-2.6659,-2.6659,-2.6659,-2.6409,-2.5981,-2.5981,-2.5712,-2.5269,-2.5018,-2.4869,-2.4768,-2.4461,-2.4284,-2.419,-2.419,-2.419,-2.419,-2.419,-2.419,-2.419,-2.419,-2.419,-2.419,-2.419,-2.4511,-2.4824,-2.4824,-2.5429,-2.6117,-2.6549,-2.7548,-2.8539,-2.8932,-2.9005,-2.9005,-2.9005,-2.9005,-2.9005,-2.9005,-2.9005,-2.8929,-2.8725,-2.8201,-2.783,-2.7853,-2.627,-2.5114,-2.5007,-2.4076,-2.3369,-2.3189,-2.3511,-2.3692,-2.3682,-2.4006,-2.4113,-2.3955,-2.3774,-2.3764,-2.3927,-2.3937,-2.4026,-2.419,-2.3858,-2.3628,-2.3448,-2.2947,-2.2621,0.0,0.0,0.0,0.0,0.0,0.0,0.0,0.0,0.0,0.0,0.0,0.0,0.0,0.0,0.0,0.0,0.0,0.0,0.0,0.0,0.0,0.0,0.0,0.0,0.0,0.0,0.0,0.0,0.0,0.0,0.0,0.0,-2.5308,-2.5308,-2.5375,-2.539,-2.5409,-2.5477,-2.5474,-2.5402,-2.5383,-2.5346,-2.5308,-2.5308,-2.5308,-2.5308,-2.5308,-2.5308,-2.5308,-2.5308,-2.5308,-2.5264,-2.4987,-2.4874,-2.4785,-2.4435,-2.4275,-2.4256,-2.4209,-2.419,-2.419,-2.419,-2.419,-2.419,-2.419,-2.419,-2.419,-2.419,-2.419,-2.419,-2.419,-2.4695,-2.5227,-2.5374,-2.6421,-2.7603,-2.84,-2.8583,-2.8583,-2.8583,-2.8583,-2.8583,-2.8583,-2.8583,-2.8583,-2.8583,-2.7742,-2.7217,-2.7552,-2.6008,-2.4895,-2.4901,-2.4234,-2.3756,-2.3703,-2.3746,-2.3907,-2.418,-2.419,-2.419,-2.419,-2.419,-2.419,-2.419,-2.419,-2.417,-2.4103,-2.3785,-2.3437,-2.3105,-2.2772,-2.2514,0.0,0.0,0.0,0.0,0.0,0.0,0.0,0.0,0.0,0.0,0.0,0.0,0.0,0.0,0.0,0.0,0.0,0.0,0.0,0.0,0.0,0.0,0.0,0.0,0.0,0.0,0.0,0.0,0.0,0.0,0.0,-2.5187,-2.5308,-2.5308,-2.5375,-2.5409,-2.5402,-2.5474,-2.5477,-2.5409,-2.5348,-2.5303,-2.5308,-2.5308,-2.5308,-2.5308,-2.5308,-2.5308,-2.5308,-2.5308,-2.5308,-2.5303,-2.5248,-2.5124,-2.4949,-2.4785,-2.4607,-2.4445,-2.4247,-2.419,-2.419,-2.419,-2.419,-2.419,-2.419,-2.419,-2.419,-2.419,-2.419,-2.419,-2.419,-2.4281,-2.4548,-2.5227,-2.5558,-2.5944,-2.6759,-2.6914,-2.6914,-2.6914,-2.6914,-2.6914,-2.6914,-2.6914,-2.6914,-2.6914,-2.6771,-2.6706,-2.6749,-2.5921,-2.5202,-2.4935,-2.4439,-2.4016,-2.3714,-2.3976,-2.4151,-2.4208,-2.419,-2.419,-2.419,-2.419,-2.419,-2.419,-2.419,-2.4064,-2.3774,-2.3426,-2.3093,-2.2759,-2.249,-2.2335,0.0,0.0,0.0,0.0,0.0,0.0,0.0,0.0,0.0,0.0,0.0,0.0,0.0,0.0,0.0,0.0,0.0,0.0,0.0,0.0,0.0,0.0,0.0,0.0,0.0,0.0,0.0,0.0,0.0,0.0,-2.4884,-2.5154,-2.5317,-2.5346,-2.5418,-2.5463,-2.5517,-2.559,-2.5559,-2.5462,-2.5391,-2.5339,-2.5308,-2.5308,-2.5308,-2.5308,-2.5308,-2.5308,-2.5308,-2.5308,-2.5308,-2.5298,-2.5187,-2.5082,-2.4986,-2.4849,-2.4746,-2.4639,-2.4445,-2.4366,-2.4339,-2.4237,-2.419,-2.419,-2.419,-2.419,-2.419,-2.419,-2.419,-2.419,-2.419,-2.419,-2.4281,-2.464,-2.4732,-2.4824,-2.5181,-2.597,-2.6602,-2.6602,-2.6602,-2.6602,-2.6602,-2.6602,-2.6602,-2.6602,-2.6227,-2.5944,-2.5944,-2.5227,-2.4664,-2.4525,-2.4323,-2.4151,-2.3996,-2.4132,-2.419,-2.419,-2.419,-2.419,-2.419,-2.419,-2.419,-2.419,-2.419,-2.4044,-2.3692,-2.3369,-2.3033,-2.2695,-2.2426,-2.2296,0.0,0.0,0.0,0.0,0.0,0.0,0.0,0.0,0.0,0.0,0.0,0.0,0.0,0.0,0.0,0.0,0.0,0.0,0.0,0.0,0.0,0.0,0.0,0.0,0.0,0.0,0.0,0.0,0.0,0.0,-2.4811,-2.5121,-2.5326,-2.5398,-2.5471,-2.5539,-2.5601,-2.5658,-2.5628,-2.5491,-2.5434,-2.5352,-2.5308,-2.5308,-2.5308,-2.5308,-2.5308,-2.5308,-2.5308,-2.5308,-2.5308,-2.5298,-2.5122,-2.5082,-2.5065,-2.4916,-2.4821,-2.4775,-2.4559,-2.4461,-2.4401,-2.4256,-2.419,-2.419,-2.419,-2.419,-2.419,-2.419,-2.419,-2.419,-2.419,-2.419,-2.419,-2.419,-2.419,-2.419,-2.419,-2.5144,-2.5988,-2.5988,-2.5988,-2.5988,-2.5988,-2.5988,-2.5988,-2.5988,-2.5485,-2.5099,-2.5099,-2.4566,-2.419,-2.419,-2.419,-2.419,-2.419,-2.419,-2.419,-2.419,-2.419,-2.419,-2.419,-2.419,-2.419,-2.419,-2.419,-2.3996,-2.3566,-2.3242,-2.2898,-2.2599,-2.2385,-2.2335,0.0,0.0,0.0,0.0,0.0,0.0,0.0,0.0,0.0,0.0,0.0,0.0,0.0,0.0,0.0,0.0,0.0,0.0,0.0,0.0,0.0,0.0,0.0,0.0,0.0,0.0,0.0,0.0,0.0,0.0,-2.4804,-2.5121,-2.533,-2.5406,-2.5474,-2.5539,-2.5601,-2.5603,-2.5566,-2.5491,-2.5428,-2.5363,-2.5308,-2.5308,-2.5308,-2.5308,-2.5308,-2.5308,-2.5308,-2.5308,-2.5308,-2.5308,-2.5298,-2.5279,-2.5264,-2.5071,-2.491,-2.4775,-2.4559,-2.4375,-2.4209,-2.4199,-2.419,-2.419,-2.419,-2.419,-2.419,-2.419,-2.419,-2.419,-2.419,-2.419,-2.419,-2.419,-2.419,-2.419,-2.419,-2.4263,-2.4318,-2.4318,-2.4318,-2.4318,-2.4318,-2.4318,-2.4318,-2.4318,-2.4281,-2.4263,-2.4263,-2.4226,-2.419,-2.419,-2.419,-2.419,-2.419,-2.419,-2.419,-2.419,-2.419,-2.419,-2.419,-2.419,-2.419,-2.419,-2.419,-2.3886,-2.3242,-2.2898,-2.259,-2.2307,-2.231,-2.244,0.0,0.0,0.0,0.0,0.0,0.0,0.0,0.0,0.0,0.0,0.0,0.0,0.0,0.0,0.0,0.0,0.0,0.0,0.0,0.0,0.0,0.0,0.0,0.0,0.0,0.0,0.0,0.0,0.0,0.0,-2.4804,-2.5006,-2.5212,-2.5468,-2.5498,-2.5554,-2.5661,-2.5661,-2.5633,-2.5561,-2.5506,-2.5425,-2.5359,-2.5322,-2.5308,-2.5308,-2.5308,-2.5308,-2.5308,-2.5308,-2.5308,-2.5308,-2.5308,-2.5308,-2.5284,-2.5219,-2.5071,-2.491,-2.4741,-2.4551,-2.4366,-2.4247,-2.419,-2.419,-2.419,-2.419,-2.419,-2.419,-2.419,-2.419,-2.419,-2.419,-2.419,-2.419,-2.419,-2.419,-2.419,-2.419,-2.419,-2.419,-2.419,-2.419,-2.419,-2.419,-2.419,-2.419,-2.419,-2.419,-2.419,-2.419,-2.419,-2.419,-2.419,-2.419,-2.419,-2.419,-2.419,-2.419,-2.419,-2.419,-2.419,-2.419,-2.419,-2.419,-2.3996,-2.3642,-2.32,-2.3081,-2.2865,-2.2563,-2.2563,-2.2712,0.0,0.0,0.0,0.0,0.0,0.0,0.0,0.0,0.0,0.0,0.0,0.0,0.0,0.0,0.0,0.0,0.0,0.0,0.0,0.0,0.0,0.0,0.0,0.0,0.0,0.0,0.0,0.0,0.0,0.0,-2.4797,-2.4689,-2.4777,-2.5085,-2.54,-2.5606,-2.5703,-2.5703,-2.5661,-2.5601,-2.5556,-2.5495,-2.5402,-2.535,-2.5312,-2.5308,-2.5308,-2.5308,-2.5308,-2.5308,-2.5308,-2.5308,-2.5308,-2.5308,-2.5308,-2.5308,-2.5135,-2.493,-2.4828,-2.4623,-2.4375,-2.4247,-2.419,-2.419,-2.419,-2.419,-2.419,-2.419,-2.419,-2.419,-2.419,-2.419,-2.419,-2.419,-2.419,-2.419,-2.419,-2.419,-2.419,-2.419,-2.419,-2.419,-2.419,-2.419,-2.419,-2.419,-2.419,-2.419,-2.419,-2.419,-2.419,-2.419,-2.419,-2.419,-2.419,-2.419,-2.419,-2.419,-2.419,-2.419,-2.419,-2.419,-2.419,-2.419,-2.3986,-2.3703,-2.3369,-2.3247,-2.3081,-2.2873,-2.2873,-2.3045,0.0,0.0,0.0,0.0,0.0,0.0,0.0,0.0,0.0,0.0,0.0,0.0,0.0,0.0,0.0,0.0,0.0,0.0,0.0,0.0,0.0,0.0,0.0,0.0,0.0,0.0,0.0,0.0,0.0,-2.4546,-2.4752,-2.4205,-2.3987,-2.4269,-2.5153,-2.5644,-2.5664,-2.5664,-2.5642,-2.5603,-2.5602,-2.5537,-2.5397,-2.5394,-2.5352,-2.5308,-2.5308,-2.5308,-2.5308,-2.5308,-2.5308,-2.5308,-2.5308,-2.5308,-2.5308,-2.5284,-2.5086,-2.4797,-2.4797,-2.4537,-2.419,-2.419,-2.419,-2.419,-2.419,-2.419,-2.419,-2.419,-2.419,-2.419,-2.419,-2.419,-2.419,-2.419,-2.419,-2.419,-2.419,-2.419,-2.419,-2.419,-2.419,-2.419,-2.419,-2.419,-2.419,-2.419,-2.419,-2.419,-2.419,-2.419,-2.419,-2.419,-2.419,-2.419,-2.419,-2.419,-2.419,-2.419,-2.419,-2.419,-2.419,-2.419,-2.419,-2.419,-2.419,-2.4036,-2.3714,-2.338,-2.3212,-2.3212,-2.3224,-2.3403,-2.5308,0.0,0.0,0.0,0.0,0.0,0.0,0.0,0.0,0.0,0.0,0.0,0.0,0.0,0.0,0.0,0.0,0.0,0.0,0.0,0.0,0.0,0.0,0.0,0.0,0.0,0.0,0.0,-2.4022,-2.3646,-2.3856,-2.3465,-2.3315,-2.343,-2.3688,-2.4121,-2.4746,-2.4766,-2.5078,-2.5662,-2.5611,-2.5556,-2.546,-2.5418,-2.5363,-2.5308,-2.5308,-2.5308,-2.5308,-2.5308,-2.5308,-2.5308,-2.5308,-2.5308,-2.5274,-2.5141,-2.4956,-2.4782,-2.4631,-2.44,-2.419,-2.419,-2.419,-2.419,-2.419,-2.419,-2.419,-2.419,-2.419,-2.419,-2.419,-2.419,-2.419,-2.419,-2.419,-2.419,-2.419,-2.419,-2.419,-2.419,-2.419,-2.419,-2.419,-2.419,-2.419,-2.419,-2.419,-2.419,-2.419,-2.419,-2.419,-2.419,-2.419,-2.419,-2.419,-2.419,-2.419,-2.419,-2.419,-2.419,-2.419,-2.419,-2.419,-2.419,-2.419,-2.4161,-2.4064,-2.3742,-2.3555,-2.3566,-2.3806,-2.3976,0.0,0.0,0.0,0.0,0.0,0.0,0.0,0.0,0.0,0.0,0.0,0.0,0.0,0.0,0.0,0.0,0.0,0.0,0.0,0.0,0.0,0.0,0.0,0.0,0.0,0.0,0.0,0.0,-2.3808,-2.303,-2.2631,-2.2888,-2.2911,-2.2607,-2.2929,-2.334,-2.3848,-2.4219,-2.4648,-2.5156,-2.5484,-2.5604,-2.5545,-2.5479,-2.5409,-2.5339,-2.5308,-2.5308,-2.5308,-2.5308,-2.5308,-2.5308,-2.5308,-2.5253,-2.5157,-2.504,-2.4852,-2.4654,-2.4545,-2.4366,-2.419,-2.419,-2.419,-2.419,-2.419,-2.419,-2.419,-2.419,-2.419,-2.419,-2.419,-2.419,-2.419,-2.419,-2.419,-2.419,-2.419,-2.419,-2.419,-2.419,-2.419,-2.419,-2.419,-2.419,-2.419,-2.419,-2.419,-2.419,-2.419,-2.419,-2.419,-2.419,-2.419,-2.419,-2.419,-2.419,-2.419,-2.419,-2.419,-2.419,-2.419,-2.419,-2.419,-2.419,-2.419,-2.419,-2.419,-2.4006,-2.3907,-2.3917,-2.4103,-2.419,0.0,-2.5375,0.0,0.0,0.0,0.0,-2.4908,-2.4566,0.0,0.0,0.0,0.0,0.0,0.0,0.0,0.0,0.0,0.0,0.0,0.0,0.0,0.0,0.0,0.0,0.0,0.0,-2.3919,-2.4579,-2.3588,-2.2482,-2.1355,-2.2255,-2.2488,-2.1777,-2.2441,-2.2871,-2.2969,-2.373,-2.418,-2.4277,-2.5137,-2.5524,-2.5464,-2.5498,-2.5468,-2.5395,-2.5321,-2.5308,-2.5308,-2.5308,-2.5308,-2.5303,-2.5274,-2.5157,-2.5004,-2.4968,-2.4766,-2.4495,-2.4469,-2.4339,-2.419,-2.419,-2.419,-2.419,-2.419,-2.419,-2.419,-2.419,-2.419,-2.419,-2.419,-2.419,-2.419,-2.419,-2.419,-2.419,-2.419,-2.419,-2.419,-2.419,-2.419,-2.419,-2.419,-2.419,-2.419,-2.419,-2.419,-2.419,-2.419,-2.419,-2.419,-2.419,-2.419,-2.419,-2.419,-2.419,-2.419,-2.419,-2.419,-2.419,-2.419,-2.419,-2.419,-2.419,-2.419,-2.419,-2.419,-2.419,-2.419,-2.419,-2.419,-2.419,-2.5488,-2.546,-2.5296,-2.4602,0.0,0.0,0.0,-2.379,0.0,0.0,0.0,0.0,0.0,0.0,0.0,0.0,0.0,0.0,0.0,0.0,0.0,0.0,0.0,0.0,0.0,0.0,-2.4279,-2.3632,-2.2292,-2.1244,-2.0629,-2.0855,-2.0967,-2.0859,-2.1016,-2.1426,-2.2129,-2.2305,-2.2734,-2.3437,-2.4258,-2.4626,-2.4583,-2.5204,-2.5451,-2.5402,-2.5326,-2.5308,-2.5308,-2.5308,-2.5308,-2.5279,-2.5116,-2.5034,-2.4974,-2.47,-2.4559,-2.4478,-2.4321,-2.4237,-2.419,-2.419,-2.419,-2.419,-2.419,-2.419,-2.419,-2.419,-2.419,-2.419,-2.419,-2.419,-2.419,-2.419,-2.419,-2.419,-2.419,-2.419,-2.419,-2.419,-2.419,-2.419,-2.419,-2.419,-2.419,-2.419,-2.419,-2.419,-2.419,-2.419,-2.419,-2.419,-2.419,-2.419,-2.419,-2.419,-2.419,-2.419,-2.419,-2.419,-2.419,-2.419,-2.419,-2.419,-2.419,-2.419,-2.419,-2.419,-2.419,-2.419,-2.419,-2.419,0.0,0.0,-2.5401,-2.4997,0.0,0.0,0.0,0.0,0.0,0.0,0.0,0.0,0.0,0.0,0.0,0.0,0.0,0.0,0.0,0.0,0.0,0.0,0.0,0.0,0.0,0.0,-2.334,-2.2846,-2.2543,-2.1989,-2.1096,-2.115,-2.1013,-2.0605,-2.0605,-2.0801,-2.125,-2.168,-2.2129,-2.2559,-2.3379,-2.3749,-2.3782,-2.4555,-2.4856,-2.4823,-2.5194,-2.5326,-2.5308,-2.5308,-2.5308,-2.5274,-2.5082,-2.4955,-2.4871,-2.4607,-2.4445,-2.4348,-2.4237,-2.419,-2.419,-2.419,-2.419,-2.419,-2.419,-2.419,-2.419,-2.419,-2.419,-2.419,-2.419,-2.419,-2.419,-2.419,-2.419,-2.419,-2.419,-2.419,-2.419,-2.419,-2.419,-2.419,-2.419,-2.419,-2.419,-2.419,-2.419,-2.419,-2.419,-2.419,-2.419,-2.419,-2.419,-2.419,-2.419,-2.419,-2.419,-2.419,-2.419,-2.419,-2.419,-2.419,-2.419,-2.419,-2.419,-2.419,-2.419,-2.419,-2.419,-2.419,-2.419,-2.419,0.0,0.0,0.0,0.0,0.0,-2.3309,0.0,0.0,0.0,-2.3137,0.0,0.0,0.0,0.0,0.0,0.0,0.0,0.0,0.0,0.0,0.0,0.0,0.0,0.0,0.0,0.0,-2.2253,-2.2312,-2.2903,-2.2825,-2.1757,-2.1823,-2.1504,-2.0625,-2.0605,-2.0605,-2.0605,-2.1309,-2.1641,-2.166,-2.248,-2.2891,-2.2988,-2.3738,-2.4035,-2.4,-2.4642,-2.4876,-2.4827,-2.5,-2.5077,-2.5067,-2.5025,-2.4923,-2.4775,-2.4567,-2.4375,-2.419,-2.419,-2.419,-2.419,-2.419,-2.419,-2.419,-2.419,-2.419,-2.419,-2.419,-2.419,-2.419,-2.419,-2.419,-2.419,-2.419,-2.419,-2.419,-2.419,-2.419,-2.419,-2.419,-2.419,-2.419,-2.419,-2.419,-2.419,-2.419,-2.419,-2.419,-2.419,-2.419,-2.419,-2.419,-2.419,-2.419,-2.419,-2.419,-2.419,-2.419,-2.419,-2.419,-2.419,-2.419,-2.419,-2.419,-2.419,-2.419,-2.419,-2.419,-2.419,-2.419,-2.419,-2.419,0.0,0.0,0.0,0.0,-2.3827,0.0,0.0,0.0,-2.1519,-2.0855,0.0,0.0,0.0,0.0,0.0,0.0,0.0,0.0,0.0,0.0,0.0,0.0,0.0,0.0,0.0,0.0,0.0,-2.2298,-2.195,-2.1737,-2.1701,-2.1823,-2.1504,-2.0625,-2.0605,-2.0605,-2.0605,-2.0703,-2.0742,-2.0762,-2.1621,-2.2031,-2.207,-2.2877,-2.3197,-2.313,-2.3169,-2.3157,-2.3144,-2.3913,-2.424,-2.4288,-2.4801,-2.4923,-2.4775,-2.4567,-2.4375,-2.419,-2.419,-2.419,-2.419,-2.419,-2.419,-2.419,-2.419,-2.419,-2.419,-2.419,-2.419,-2.419,-2.419,-2.419,-2.419,-2.419,-2.419,-2.419,-2.419,-2.419,-2.419,-2.419,-2.419,-2.419,-2.419,-2.419,-2.419,-2.419,-2.419,-2.419,-2.419,-2.419,-2.419,-2.419,-2.419,-2.419,-2.419,-2.419,-2.419,-2.419,-2.419,-2.419,-2.419,-2.419,-2.419,-2.419,-2.419,-2.419,-2.419,-2.419,-2.419,-2.419,-2.419,-2.419,0.0,0.0,0.0,0.0,0.0,0.0,0.0,0.0,-2.0979,0.0,0.0,0.0,0.0,0.0,0.0,0.0,0.0,0.0,0.0,0.0,0.0,0.0,0.0,0.0,0.0,0.0,0.0,0.0,0.0,-2.2968,-2.314,-2.2802,-2.2203,-2.1387,-2.0859,-2.0605,-2.0605,-2.0605,-2.0605,-2.0605,-2.0977,-2.1152,-2.1172,-2.2029,-2.2359,-2.2272,-2.2753,-2.2904,-2.2836,-2.3182,-2.3355,-2.3428,-2.4182,-2.4605,-2.4775,-2.4567,-2.4375,-2.419,-2.419,-2.419,-2.419,-2.419,-2.419,-2.419,-2.419,-2.419,-2.419,-2.419,-2.419,-2.419,-2.419,-2.419,-2.419,-2.419,-2.419,-2.419,-2.419,-2.419,-2.419,-2.419,-2.419,-2.419,-2.419,-2.419,-2.419,-2.419,-2.419,-2.419,-2.419,-2.419,-2.419,-2.419,-2.419,-2.419,-2.419,-2.419,-2.419,-2.419,-2.419,-2.419,-2.419,-2.419,-2.419,-2.419,-2.419,-2.419,-2.419,-2.419,-2.419,-2.419,-2.419,-2.419,-2.5657,0.0,0.0,0.0,0.0,0.0,0.0,0.0,0.0,0.0,0.0,0.0,0.0,0.0,0.0,0.0,0.0,0.0,0.0,0.0,0.0,0.0,0.0,0.0,0.0,0.0,0.0,0.0,0.0,0.0,-2.4173,-2.3508,-2.2721,-2.1934,-2.1055,-2.0605,-2.0605,-2.0605,-2.0605,-2.0605,-2.0605,-2.0605,-2.0625,-2.1269,-2.1473,-2.1377,-2.2004,-2.2222,-2.212,-2.235,-2.2447,-2.2528,-2.3394,-2.4055,-2.4532,-2.4603,-2.4485,-2.4275,-2.4275,-2.4256,-2.419,-2.419,-2.419,-2.419,-2.419,-2.419,-2.419,-2.419,-2.419,-2.419,-2.419,-2.419,-2.419,-2.419,-2.419,-2.419,-2.419,-2.419,-2.419,-2.419,-2.419,-2.419,-2.419,-2.419,-2.419,-2.419,-2.419,-2.419,-2.419,-2.419,-2.419,-2.419,-2.419,-2.419,-2.419,-2.419,-2.419,-2.419,-2.419,-2.419,-2.419,-2.419,-2.419,-2.419,-2.419,-2.419,-2.419,-2.419,-2.419,-2.419,-2.419,-2.419,0.0,0.0,0.0,-2.3542,0.0,0.0,0.0,0.0,-2.1666,0.0,0.0,0.0,0.0,0.0,0.0,0.0,0.0,0.0,0.0,0.0,0.0,0.0,0.0,0.0,0.0,0.0,0.0,0.0,0.0,0.0,-2.4156,-2.3508,-2.2721,-2.1934,-2.1055,-2.0605,-2.0605,-2.0605,-2.0605,-2.0605,-2.0605,-2.0605,-2.0605,-2.0625,-2.0576,-2.0447,-2.0467,-2.0435,-2.0442,-2.1216,-2.1543,-2.1639,-2.2509,-2.3251,-2.3938,-2.4706,-2.4769,-2.4495,-2.4495,-2.4357,-2.419,-2.419,-2.419,-2.419,-2.419,-2.419,-2.419,-2.419,-2.419,-2.419,-2.419,-2.419,-2.419,-2.419,-2.419,-2.419,-2.419,-2.419,-2.419,-2.419,-2.419,-2.419,-2.419,-2.419,-2.419,-2.419,-2.419,-2.419,-2.419,-2.419,-2.419,-2.419,-2.419,-2.419,-2.419,-2.419,-2.419,-2.419,-2.419,-2.419,-2.419,-2.419,-2.419,-2.419,-2.419,-2.419,-2.419,-2.419,-2.419,-2.419,-2.419,-2.419,0.0,0.0,-2.5221,-2.4105,0.0,0.0,0.0,0.0,0.0,0.0,0.0,0.0,0.0,0.0,0.0,0.0,0.0,0.0,0.0,0.0,0.0,0.0,0.0,0.0,0.0,0.0,0.0,0.0,0.0,0.0,0.0,-2.4189,-2.3488,-2.2722,-2.1893,-2.1172,-2.0605,-2.0605,-2.0605,-2.0605,-2.0605,-2.0605,-2.0605,-2.0605,-2.0537,-2.0408,-2.0408,-2.0358,-2.0327,-2.0596,-2.0712,-2.0846,-2.2254,-2.2944,-2.3218,-2.3946,-2.4416,-2.4678,-2.4553,-2.4452,-2.4375,-2.4247,-2.419,-2.419,-2.419,-2.419,-2.419,-2.419,-2.419,-2.419,-2.419,-2.419,-2.419,-2.419,-2.419,-2.419,-2.419,-2.419,-2.419,-2.419,-2.419,-2.419,-2.419,-2.419,-2.419,-2.419,-2.419,-2.419,-2.419,-2.419,-2.419,-2.419,-2.419,-2.419,-2.419,-2.419,-2.419,-2.419,-2.419,-2.419,-2.419,-2.419,-2.419,-2.419,-2.419,-2.419,-2.419,-2.419,-2.419,-2.419,-2.419,-2.419,-2.5082,-2.5008,0.0,-2.3556,-2.2914,0.0,-2.1923,0.0,0.0,0.0,0.0,0.0,0.0,0.0,0.0,0.0,0.0,0.0,0.0,0.0,0.0,0.0,0.0,0.0,0.0,0.0,-2.1299,-2.2421,0.0,0.0,0.0,0.0,-2.3854,-2.3118,-2.2321,-2.1484,-2.0605,-2.0605,-2.0605,-2.0605,-2.0605,-2.0605,-2.0605,-2.0605,-2.0537,-2.0408,-2.0408,-2.0358,-2.0308,-2.0308,-2.0308,-2.0404,-2.1485,-2.2081,-2.2496,-2.3849,-2.4561,-2.4855,-2.4678,-2.4599,-2.4594,-2.4452,-2.44,-2.4401,-2.4339,-2.4312,-2.4294,-2.4218,-2.419,-2.419,-2.419,-2.419,-2.419,-2.419,-2.419,-2.419,-2.419,-2.419,-2.419,-2.419,-2.419,-2.419,-2.419,-2.419,-2.419,-2.419,-2.419,-2.419,-2.419,-2.419,-2.419,-2.419,-2.419,-2.419,-2.419,-2.419,-2.419,-2.419,-2.419,-2.419,-2.419,-2.419,-2.419,-2.419,-2.419,-2.419,-2.419,-2.419,-2.419,-2.419,-2.419,-2.419]},{"header":{"parameterUnit":"m.s-1","parameterCategory":1,"la1":30.6,"la2":29.2853,"lo1":-89.7004,"lo2":-87.6739,"dy":0.0162,"dx":0.0183,"nx":112,"ny":82,"refTime":"2024-07-14T18:00:00:Z","depth":0,"parameterNumber":3,"parameterNumberName":"V-component_of_WINDS"},"data":[0.0,0.0,0.0,0.0,0.0,0.0,0.0,0.0,0.0,0.0,0.0,0.0,0.0,0.0,0.0,0.0,0.0,0.0,0.0,0.0,0.0,0.0,0.0,0.0,0.0,0.0,0.0,0.0,0.0,0.0,0.0,0.0,0.0,0.0,0.0,0.0,0.0,0.0,0.0,0.0,0.0,0.0,0.0,0.0,0.0,0.0,0.0,0.0,0.0,0.0,0.0,0.0,0.0,0.0,0.0,0.0,0.0,0.0,0.0,0.0,0.0,0.0,0.0,0.0,0.0,0.0,0.0,0.0,0.0,0.0,0.0,0.0,0.0,0.0,0.0,0.0,0.0,0.0,0.0,0.0,0.0,0.0,0.0,0.0,0.0,0.0,0.0,0.0,0.0,0.0,0.0,-0.8114,-0.9074,-1.0853,-1.3432,-1.3556,-1.4157,-1.5697,0.0,0.0,0.0,0.0,0.0,0.0,0.0,0.0,0.0,0.0,0.0,0.0,0.0,0.0,0.0,0.0,0.0,0.0,0.0,0.0,0.0,0.0,0.0,0.0,0.0,0.0,0.0,0.0,0.0,0.0,0.0,0.0,0.0,0.0,0.0,0.0,0.0,0.0,0.0,0.0,0.0,0.0,0.0,0.0,0.0,0.0,0.0,0.0,0.0,0.0,0.0,0.0,0.0,0.0,0.0,0.0,0.0,0.0,0.0,0.0,0.0,0.0,0.0,0.0,0.0,0.0,0.0,0.0,0.0,0.0,0.0,0.0,0.0,0.0,0.0,0.0,0.0,0.0,0.0,0.0,0.0,0.0,0.0,0.0,0.0,0.0,0.0,0.0,0.0,0.0,0.0,0.0,0.0,0.0,0.0,0.0,0.0,0.0,0.0,0.0,0.0,0.0,0.0,0.0,-0.9572,-1.0617,-1.0879,-1.2024,-1.4521,-1.5281,-1.5676,-1.5805,0.0,0.0,0.0,0.0,0.0,0.0,0.0,0.0,0.0,0.0,0.0,0.0,0.0,0.0,0.0,0.0,0.0,0.0,0.0,0.0,0.0,0.0,0.0,0.0,0.0,0.0,0.0,0.0,0.0,0.0,0.0,0.0,0.0,0.0,0.0,0.0,0.0,0.0,0.0,0.0,0.0,0.0,0.0,0.0,0.0,0.0,0.0,0.0,0.0,0.0,0.0,0.0,0.0,0.0,0.0,0.0,0.0,0.0,0.0,0.0,0.0,0.0,0.0,0.0,0.0,0.0,0.0,0.0,0.0,0.0,0.0,0.0,0.0,0.0,0.0,0.0,0.0,0.0,0.0,0.0,0.0,0.0,0.0,0.0,0.0,0.0,0.0,0.0,0.0,0.0,0.0,0.0,0.0,0.0,0.0,0.0,0.0,0.0,0.0,0.0,0.0,0.0,0.0,-1.0203,-1.027,-1.205,-1.2079,-1.2725,-1.4584,-1.5447,-1.5703,-1.529,-1.5638,0.0,0.0,0.0,0.0,0.0,0.0,0.0,0.0,0.0,0.0,0.0,0.0,0.0,0.0,0.0,0.0,0.0,0.0,0.0,0.0,0.0,0.0,0.0,0.0,0.0,0.0,0.0,0.0,0.0,0.0,0.0,0.0,0.0,0.0,0.0,0.0,0.0,0.0,0.0,0.0,0.0,0.0,0.0,0.0,0.0,0.0,0.0,0.0,0.0,0.0,0.0,0.0,0.0,0.0,0.0,0.0,0.0,0.0,0.0,0.0,0.0,0.0,0.0,0.0,0.0,0.0,0.0,0.0,0.0,0.0,0.0,0.0,0.0,0.0,0.0,0.0,0.0,0.0,0.0,0.0,0.0,0.0,0.0,0.0,0.0,0.0,0.0,0.0,0.0,0.0,0.0,0.0,0.0,0.0,0.0,0.0,0.0,0.0,0.0,0.0,0.0,0.0,-1.0804,-1.0838,-1.272,-1.2697,-1.3032,-1.4286,-1.5255,-1.5474,-1.4852,-1.5756,0.0,0.0,0.0,0.0,0.0,0.0,0.0,0.0,0.0,0.0,0.0,0.0,0.0,0.0,0.0,0.0,0.0,0.0,0.0,0.0,0.0,0.0,0.0,0.0,0.0,0.0,0.0,0.0,0.0,0.0,0.0,0.0,0.0,0.0,0.0,0.0,0.0,0.0,0.0,0.0,0.0,0.0,0.0,0.0,0.0,0.0,0.0,0.0,0.0,0.0,0.0,0.0,0.0,0.0,0.0,0.0,0.0,0.0,0.0,0.0,0.0,0.0,0.0,0.0,0.0,0.0,0.0,0.0,0.0,0.0,0.0,0.0,0.0,0.0,0.0,0.0,0.0,0.0,0.0,0.0,0.0,0.0,0.0,0.0,0.0,0.0,0.0,0.0,0.0,0.0,0.0,0.0,0.0,0.0,0.0,0.0,0.0,0.0,0.0,0.0,0.0,0.0,-1.1131,-1.1077,-1.2501,-1.2429,-1.2796,-1.403,-1.527,-1.5643,-1.4856,-1.5636,0.0,0.0,0.0,0.0,0.0,0.0,0.0,0.0,0.0,0.0,0.0,0.0,0.0,0.0,0.0,0.0,0.0,0.0,0.0,0.0,0.0,0.0,0.0,0.0,0.0,0.0,0.0,0.0,0.0,0.0,0.0,0.0,0.0,0.0,0.0,0.0,0.0,0.0,0.0,0.0,0.0,0.0,0.0,0.0,0.0,0.0,0.0,0.0,0.0,0.0,0.0,0.0,0.0,0.0,0.0,0.0,0.0,0.0,0.0,0.0,0.0,0.0,0.0,0.0,0.0,0.0,0.0,0.0,0.0,0.0,0.0,0.0,0.0,0.0,0.0,0.0,0.0,0.0,0.0,0.0,0.0,0.0,0.0,0.0,0.0,0.0,0.0,0.0,0.0,0.0,0.0,0.0,0.0,0.0,0.0,0.0,0.0,0.0,0.0,0.0,0.0,0.0,-1.2376,-1.2378,0.0,-1.4059,-1.449,-1.47,-1.6386,-1.6828,-1.5446,0.0,0.0,0.0,0.0,0.0,0.0,0.0,0.0,0.0,0.0,0.0,0.0,0.0,0.0,0.0,0.0,0.0,0.0,0.0,0.0,0.0,0.0,0.0,0.0,0.0,0.0,0.0,0.0,0.0,0.0,0.0,0.0,0.0,0.0,0.0,0.0,0.0,0.0,0.0,0.0,0.0,0.0,0.0,0.0,0.0,0.0,0.0,0.0,0.0,0.0,0.0,0.0,0.0,0.0,0.0,0.0,0.0,0.0,0.0,0.0,0.0,0.0,0.0,0.0,0.0,0.0,0.0,0.0,0.0,0.0,0.0,0.0,0.0,0.0,0.0,0.0,0.0,0.0,0.0,0.0,0.0,0.0,0.0,0.0,0.0,0.0,0.0,0.0,0.0,0.0,0.0,0.0,0.0,0.0,0.0,0.0,0.0,0.0,0.0,0.0,0.0,0.0,-1.3737,-1.3792,-1.3921,0.0,-1.5194,-1.5686,-1.5425,-1.6674,-1.6902,-1.5588,0.0,0.0,0.0,0.0,0.0,0.0,0.0,0.0,0.0,0.0,0.0,0.0,0.0,0.0,0.0,0.0,0.0,0.0,0.0,0.0,0.0,0.0,0.0,0.0,0.0,0.0,0.0,0.0,0.0,0.0,0.0,0.0,0.0,0.0,0.0,0.0,0.0,0.0,0.0,0.0,0.0,0.0,0.0,0.0,0.0,0.0,0.0,0.0,0.0,0.0,0.0,0.0,0.0,0.0,0.0,0.0,0.0,0.0,0.0,0.0,0.0,0.0,0.0,0.0,0.0,0.0,0.0,0.0,0.0,0.0,0.0,0.0,0.0,0.0,0.0,0.0,0.0,0.0,0.0,0.0,0.0,0.0,0.0,0.0,0.0,0.0,0.0,0.0,0.0,0.0,0.0,0.0,0.0,0.0,0.0,0.0,0.0,0.0,0.0,0.0,0.0,0.0,-1.4364,-1.5304,-1.5656,-1.4717,-1.5473,-1.6038,-1.5992,-1.5841,-1.5535,0.0,0.0,0.0,0.0,0.0,0.0,0.0,0.0,0.0,0.0,0.0,0.0,0.0,0.0,0.0,0.0,0.0,0.0,0.0,0.0,0.0,0.0,0.0,0.0,0.0,0.0,0.0,0.0,0.0,0.0,0.0,0.0,0.0,0.0,0.0,0.0,0.0,0.0,0.0,0.0,0.0,0.0,0.0,0.0,0.0,0.0,0.0,0.0,0.0,0.0,0.0,0.0,0.0,0.0,0.0,0.0,0.0,0.0,0.0,0.0,0.0,0.0,0.0,0.0,0.0,0.0,0.0,0.0,0.0,0.0,0.0,0.0,0.0,0.0,0.0,0.0,0.0,0.0,0.0,0.0,0.0,0.0,0.0,0.0,0.0,0.0,0.0,0.0,0.0,0.0,0.0,0.0,0.0,0.0,0.0,0.0,0.0,0.0,0.0,0.0,0.0,0.0,0.0,-1.5203,-1.5551,-1.5686,-1.5594,-1.6548,-1.7055,-1.6739,-1.709,-1.6883,-1.5866,0.0,0.0,0.0,0.0,0.0,0.0,0.0,0.0,0.0,0.0,0.0,0.0,0.0,0.0,0.0,0.0,0.0,0.0,0.0,0.0,0.0,0.0,0.0,0.0,0.0,0.0,0.0,0.0,0.0,0.0,0.0,0.0,0.0,0.0,0.0,0.0,0.0,0.0,0.0,0.0,0.0,0.0,0.0,0.0,0.0,0.0,0.0,0.0,0.0,0.0,0.0,0.0,0.0,0.0,0.0,0.0,0.0,0.0,0.0,0.0,0.0,0.0,0.0,0.0,0.0,0.0,0.0,0.0,0.0,0.0,0.0,0.0,0.0,0.0,0.0,0.0,0.0,0.0,0.0,0.0,0.0,0.0,0.0,0.0,0.0,0.0,0.0,0.0,0.0,0.0,0.0,0.0,0.0,0.0,0.0,0.0,0.0,0.0,0.0,0.0,0.0,0.0,-1.5224,-1.6024,-1.6472,-1.6252,-1.718,-1.7719,-1.7407,-1.746,-1.7021,-1.5879,0.0,0.0,0.0,0.0,0.0,0.0,0.0,0.0,0.0,0.0,0.0,0.0,0.0,0.0,0.0,0.0,0.0,0.0,0.0,0.0,0.0,0.0,0.0,0.0,0.0,0.0,0.0,0.0,0.0,0.0,0.0,0.0,0.0,0.0,0.0,0.0,0.0,0.0,0.0,0.0,0.0,0.0,0.0,0.0,0.0,0.0,0.0,0.0,0.0,0.0,0.0,0.0,0.0,0.0,0.0,0.0,0.0,0.0,0.0,0.0,0.0,0.0,0.0,0.0,0.0,0.0,0.0,0.0,0.0,0.0,0.0,0.0,0.0,0.0,0.0,0.0,0.0,0.0,0.0,0.0,0.0,0.0,0.0,0.0,0.0,0.0,0.0,0.0,0.0,0.0,0.0,0.0,0.0,0.0,0.0,0.0,0.0,0.0,0.0,0.0,0.0,0.0,-1.4932,-1.6727,-1.7681,-1.6819,-1.7501,-1.8008,-1.8008,-1.7194,-1.6346,-1.5527,0.0,0.0,0.0,0.0,0.0,0.0,0.0,0.0,0.0,0.0,0.0,0.0,0.0,0.0,0.0,0.0,0.0,0.0,0.0,0.0,0.0,0.0,0.0,0.0,0.0,0.0,0.0,0.0,0.0,0.0,0.0,0.0,0.0,0.0,0.0,0.0,0.0,0.0,0.0,0.0,0.0,0.0,0.0,0.0,0.0,0.0,0.0,0.0,0.0,0.0,0.0,0.0,0.0,0.0,0.0,0.0,0.0,0.0,0.0,0.0,-1.1476,0.0,0.0,0.0,0.0,0.0,0.0,0.0,0.0,0.0,0.0,0.0,0.0,0.0,0.0,0.0,0.0,0.0,0.0,0.0,0.0,0.0,0.0,0.0,0.0,0.0,0.0,0.0,0.0,0.0,0.0,0.0,0.0,0.0,0.0,0.0,0.0,0.0,0.0,0.0,0.0,0.0,-1.6194,-1.728,-1.794,-1.7716,-1.7862,-1.8008,-1.8008,-1.7194,-1.6504,-1.5987,0.0,0.0,0.0,0.0,0.0,0.0,0.0,0.0,0.0,0.0,0.0,0.0,0.0,0.0,0.0,0.0,0.0,0.0,0.0,0.0,0.0,0.0,0.0,0.0,0.0,0.0,0.0,0.0,0.0,0.0,0.0,0.0,0.0,0.0,0.0,0.0,0.0,0.0,0.0,0.0,0.0,0.0,0.0,0.0,0.0,0.0,0.0,0.0,0.0,0.0,0.0,0.0,0.0,0.0,0.0,0.0,0.0,0.0,0.0,0.0,0.0,-1.1844,0.0,0.0,0.0,0.0,0.0,0.0,0.0,0.0,0.0,0.0,0.0,0.0,0.0,0.0,0.0,0.0,0.0,0.0,0.0,0.0,0.0,0.0,0.0,0.0,0.0,0.0,0.0,0.0,0.0,0.0,0.0,0.0,0.0,0.0,0.0,0.0,0.0,0.0,0.0,0.0,-1.6318,-1.7344,-1.8008,-1.8008,-1.8008,-1.8008,-1.8008,-1.7753,-1.7325,-1.6668,-1.7038,0.0,0.0,0.0,0.0,0.0,0.0,0.0,0.0,0.0,0.0,0.0,0.0,0.0,0.0,0.0,0.0,0.0,0.0,0.0,0.0,0.0,0.0,0.0,0.0,0.0,0.0,0.0,0.0,0.0,0.0,0.0,0.0,0.0,0.0,0.0,0.0,0.0,0.0,0.0,0.0,0.0,0.0,0.0,0.0,0.0,0.0,0.0,0.0,0.0,0.0,0.0,0.0,0.0,-1.3367,-1.3487,-1.344,-1.344,-1.3414,-1.3333,-1.2832,-1.2559,-1.2432,0.0,0.0,0.0,0.0,0.0,0.0,0.0,0.0,0.0,0.0,0.0,0.0,0.0,0.0,0.0,0.0,0.0,0.0,0.0,0.0,0.0,0.0,0.0,0.0,0.0,-1.749,-1.7617,0.0,0.0,0.0,0.0,0.0,0.0,0.0,0.0,0.0,0.0,0.0,0.0,-1.6153,-1.7256,-1.8008,-1.8008,-1.8008,-1.8008,-1.8008,-1.8248,-1.804,-1.7181,-1.7986,-1.8116,0.0,0.0,0.0,0.0,0.0,0.0,0.0,0.0,0.0,0.0,0.0,0.0,0.0,0.0,0.0,0.0,0.0,0.0,0.0,0.0,0.0,0.0,0.0,0.0,0.0,0.0,0.0,0.0,0.0,0.0,0.0,0.0,-1.6735,-1.5918,0.0,0.0,0.0,0.0,0.0,0.0,0.0,0.0,0.0,0.0,0.0,0.0,0.0,0.0,-1.3848,-1.4142,-1.4282,-1.4289,-1.4589,-1.4596,-1.4349,-1.4349,-1.4208,-1.3968,-1.3888,0.0,-1.3046,-1.2478,0.0,0.0,0.0,0.0,0.0,0.0,0.0,0.0,0.0,0.0,0.0,0.0,0.0,0.0,0.0,0.0,0.0,0.0,0.0,0.0,0.0,0.0,-1.791,-1.7852,-1.793,-1.7949,0.0,-1.6777,-1.5987,-1.5938,0.0,0.0,0.0,0.0,0.0,0.0,0.0,0.0,-1.656,-1.7441,-1.8008,-1.8008,-1.8008,-1.8008,-1.8008,-1.7717,-1.732,-1.6796,-1.733,-1.7414,-1.6905,-1.7666,0.0,0.0,0.0,0.0,0.0,0.0,0.0,0.0,0.0,0.0,0.0,0.0,0.0,0.0,0.0,0.0,0.0,0.0,0.0,0.0,0.0,0.0,0.0,0.0,0.0,0.0,0.0,0.0,0.0,-1.8773,-1.7347,-1.5657,-1.5469,-1.4775,0.0,0.0,0.0,0.0,0.0,0.0,0.0,0.0,0.0,-1.3674,-1.3861,-1.4148,-1.462,-1.471,-1.477,-1.477,-1.4948,-1.4941,-1.477,-1.477,-1.4609,-1.4329,-1.4329,-1.4095,-1.3667,-1.3233,-1.2959,-1.2772,0.0,0.0,0.0,0.0,0.0,-1.2201,-1.2201,0.0,0.0,0.0,0.0,0.0,0.0,0.0,0.0,0.0,0.0,0.0,0.0,0.0,0.0,-1.8066,-1.8159,-1.8301,-1.8057,-1.7559,-1.709,0.0,-1.6535,-1.6006,-1.5264,0.0,0.0,0.0,0.0,0.0,-1.6677,-1.7447,-1.8008,-1.8008,-1.8008,-1.8008,-1.8008,-1.8292,-1.8141,-1.7367,-1.8003,-1.8058,-1.7288,-1.7755,-1.7922,0.0,0.0,0.0,0.0,0.0,0.0,0.0,0.0,0.0,0.0,0.0,0.0,0.0,0.0,0.0,0.0,0.0,0.0,0.0,0.0,0.0,0.0,0.0,0.0,0.0,0.0,0.0,0.0,-1.8808,-1.7885,-1.5821,-1.5419,-1.4605,0.0,0.0,0.0,0.0,0.0,0.0,-1.3219,-1.342,-1.3814,-1.4402,-1.4629,-1.4883,-1.5184,-1.5184,-1.5184,-1.5184,-1.5184,-1.515,-1.5122,-1.5122,-1.487,-1.4522,-1.4522,-1.4355,-1.4062,-1.3726,-1.3473,-1.3293,-1.3025,-1.2904,-1.2904,-1.2904,-1.2904,-1.2936,-1.3237,-1.3708,-1.4267,-1.4629,0.0,-1.5836,-1.589,0.0,0.0,0.0,0.0,-1.7617,-1.793,0.0,-1.8364,-1.8086,-1.8217,-1.8354,-1.8076,-1.8008,-1.792,0.0,-1.7461,-1.707,-1.6084,0.0,0.0,0.0,0.0,-1.6746,-1.6853,-1.7461,-1.7891,-1.7998,-1.8008,-1.8008,-1.8008,-1.8496,-1.844,-1.7574,-1.8192,-1.8221,-1.7335,-1.7649,-1.784,-1.7891,0.0,0.0,0.0,0.0,0.0,0.0,0.0,0.0,0.0,0.0,0.0,0.0,0.0,0.0,0.0,0.0,0.0,0.0,0.0,0.0,0.0,0.0,0.0,0.0,0.0,0.0,0.0,0.0,0.0,-1.6983,-1.6018,0.0,0.0,0.0,0.0,-1.3119,-1.3146,-1.3534,-1.4389,-1.4449,-1.4723,-1.5311,-1.5344,-1.5491,-1.5785,-1.5738,-1.5738,-1.5738,-1.5738,-1.5645,-1.5378,-1.5378,-1.5064,-1.4522,-1.4522,-1.4355,-1.4062,-1.3726,-1.3593,-1.3553,-1.326,-1.3186,-1.3186,-1.3186,-1.3186,-1.3338,-1.436,-1.4493,-1.453,-1.6415,-1.7157,-1.7311,-1.7295,-1.7328,0.0,0.0,-1.7666,-1.7978,-1.8008,-1.8027,-1.8037,-1.8018,-1.8027,-1.8037,-1.8018,-1.8008,-1.8008,0.0,-1.7656,-1.7396,-1.7295,0.0,-1.6648,-1.6609,-1.6658,-1.6853,-1.7295,-1.7393,-1.7568,-1.7969,-1.8008,-1.8008,-1.8008,-1.768,-1.7282,-1.6789,-1.7113,-1.7082,-1.6588,-1.7224,-1.7687,-1.7891,-1.7882,0.0,0.0,0.0,0.0,0.0,0.0,0.0,0.0,0.0,0.0,0.0,0.0,0.0,0.0,0.0,0.0,0.0,0.0,0.0,0.0,0.0,0.0,0.0,0.0,0.0,0.0,0.0,0.0,-1.5948,-1.5512,0.0,0.0,-1.3694,-1.3858,-1.3795,-1.4122,-1.4556,-1.5057,-1.5084,-1.5264,-1.5665,-1.5671,-1.5678,-1.5784,-1.5784,-1.5784,-1.5784,-1.5784,-1.5724,-1.5671,-1.5671,-1.5357,-1.4803,-1.4803,-1.4529,-1.4082,-1.3975,-1.3928,-1.3915,-1.3814,-1.3774,-1.3774,-1.3774,-1.3774,-1.3782,-1.3979,-1.4216,-1.4706,-1.6303,-1.7235,-1.7793,-1.7793,-1.7793,-1.7793,-1.7793,-1.79,-1.8008,-1.8008,-1.8008,-1.8008,-1.8008,-1.8008,-1.8008,-1.8008,-1.8008,-1.8008,-1.8008,-1.7891,-1.7705,-1.7432,-1.7256,-1.6953,-1.6387,-1.6512,-1.6658,-1.6584,-1.7063,-1.7441,-1.7588,-1.7607,-1.7607,-1.7607,-1.7217,-1.6777,-1.6328,-1.6416,-1.6277,-1.5797,-1.651,-1.7142,-1.7687,-1.7368,-1.7421,0.0,0.0,0.0,0.0,0.0,0.0,0.0,0.0,0.0,0.0,0.0,0.0,0.0,0.0,0.0,0.0,0.0,0.0,0.0,0.0,0.0,0.0,0.0,0.0,0.0,0.0,-1.6643,-1.5115,-1.4981,-1.4625,-1.3615,-1.4041,-1.4422,-1.4522,-1.489,-1.5237,-1.5524,-1.5538,-1.5631,-1.5771,-1.5784,-1.5784,-1.5784,-1.5784,-1.5784,-1.5784,-1.5784,-1.5784,-1.5784,-1.5784,-1.5511,-1.5008,-1.5008,-1.4673,-1.4088,-1.4088,-1.4088,-1.4088,-1.4088,-1.4088,-1.4088,-1.4088,-1.4088,-1.407,-1.3987,-1.4485,-1.5286,-1.628,-1.7035,-1.7579,-1.7896,-1.8008,-1.8008,-1.8008,-1.8008,-1.8008,-1.8008,-1.8008,-1.8008,-1.8008,-1.8008,-1.8008,-1.8008,-1.8008,-1.8008,-1.8008,-1.8008,-1.792,-1.7646,-1.7598,-1.7344,-1.6652,-1.6641,-1.659,-1.6328,-1.6807,-1.7217,-1.7363,-1.7383,-1.7383,-1.7383,-1.6846,-1.6377,-1.6114,-1.5958,-1.5713,-1.542,-1.5751,-1.6269,-1.7005,-1.6972,-1.7346,-1.8105,0.0,0.0,0.0,0.0,0.0,0.0,0.0,0.0,0.0,0.0,0.0,0.0,0.0,0.0,0.0,0.0,0.0,0.0,0.0,0.0,0.0,0.0,0.0,-1.73,-1.6217,-1.5196,-1.4584,-1.4476,-1.4366,-1.4128,-1.4673,-1.5142,-1.5378,-1.5404,-1.5531,-1.5764,-1.5784,-1.5784,-1.5784,-1.5784,-1.5784,-1.5784,-1.5784,-1.5784,-1.5784,-1.5784,-1.5784,-1.5784,-1.5784,-1.5511,-1.5008,-1.5008,-1.4673,-1.4088,-1.4088,-1.4088,-1.4088,-1.4088,-1.4088,-1.4088,-1.4088,-1.4082,-1.4114,-1.4435,-1.5227,-1.6163,-1.6422,-1.6558,-1.6784,-1.7681,-1.7974,-1.8008,-1.8008,-1.8008,-1.8008,-1.8008,-1.8008,-1.8008,-1.8008,-1.8008,-1.8008,-1.8008,-1.8008,-1.8008,-1.8008,-1.7998,-1.7998,-1.8008,-1.7988,-1.7832,-1.7422,-1.6982,0.0,-1.6658,-1.6668,-1.6843,-1.7295,-1.7376,-1.7376,-1.7376,-1.6574,-1.6075,-1.6075,-1.5644,-1.541,-1.541,-1.5019,-1.5174,-1.59,-1.6841,-1.7529,-1.794,0.0,0.0,0.0,0.0,0.0,0.0,0.0,0.0,0.0,0.0,0.0,0.0,0.0,0.0,0.0,0.0,0.0,0.0,0.0,0.0,0.0,0.0,-1.4807,-1.4807,-1.4265,-1.3655,-1.2997,-1.312,-1.3542,-1.4316,-1.4937,-1.5311,-1.5391,-1.5591,-1.5698,-1.5778,-1.5784,-1.5784,-1.5784,-1.5784,-1.5784,-1.5784,-1.5784,-1.5784,-1.5784,-1.5784,-1.5784,-1.5784,-1.5784,-1.5511,-1.5008,-1.5008,-1.4673,-1.4088,-1.4088,-1.4088,-1.4088,-1.4088,-1.4088,-1.4088,-1.4088,-1.3948,-1.3715,-1.3418,-1.3918,-1.4704,-1.4555,-1.5438,-1.6636,-1.6922,-1.7467,-1.8008,-1.8008,-1.8008,-1.8008,-1.8008,-1.8008,-1.8008,-1.8008,-1.8008,-1.8008,-1.8008,-1.8008,-1.8008,-1.8008,-1.7764,-1.7656,-1.7959,-1.749,-1.7019,-1.6892,0.0,0.0,-1.5771,-1.6055,-1.632,-1.6447,-1.6457,-1.6457,-1.6457,-1.5938,-1.5586,0.0,-1.5478,-1.541,-1.541,-1.5303,-1.5568,-1.6322,-1.7265,-1.7989,0.0,0.0,0.0,0.0,0.0,0.0,0.0,0.0,0.0,0.0,0.0,0.0,0.0,0.0,0.0,0.0,0.0,0.0,0.0,0.0,0.0,0.0,-1.2645,-1.2603,-1.1839,-1.2406,-1.2726,-1.2353,-1.3003,-1.3843,-1.4645,-1.5124,-1.5444,-1.5571,-1.5684,-1.5784,-1.5784,-1.5289,-1.4997,-1.4997,-1.4997,-1.4997,-1.4997,-1.5534,-1.5784,-1.5784,-1.5784,-1.5784,-1.5778,-1.5705,-1.5398,0.0,-1.483,-1.4516,-1.4088,-1.4088,-1.4088,0.0,0.0,0.0,0.0,0.0,-1.3901,-1.3533,-1.3106,-1.323,-1.3631,-1.3675,-1.445,-1.5544,-1.6349,-1.7001,-1.7501,-1.7906,-1.8008,-1.8008,-1.8008,-1.8008,-1.8008,-1.8008,-1.8008,-1.7959,-1.7793,-1.7744,-1.7695,-1.7477,0.0,0.0,-1.7432,-1.7028,-1.6638,-1.6484,-1.6016,-1.5615,0.0,-1.5821,-1.6095,-1.6095,-1.6095,-1.6095,-1.6095,-1.5664,0.0,0.0,0.0,-1.5467,-1.561,-1.56,0.0,0.0,0.0,0.0,0.0,0.0,0.0,0.0,-2.1232,-2.1421,0.0,0.0,0.0,0.0,0.0,0.0,0.0,0.0,0.0,0.0,0.0,0.0,0.0,0.0,0.0,0.0,-1.0681,-1.0674,-0.8948,-1.0649,-1.2114,-1.2114,-1.3182,-1.4184,-1.493,-1.5133,-1.5325,-1.5568,-1.5588,-1.554,-1.5391,0.0,0.0,0.0,0.0,-1.368,-1.368,-1.4949,-1.5588,-1.5581,-1.5697,-1.5751,-1.5771,-1.5491,-1.5211,-1.4995,-1.4649,-1.4355,-1.4088,-1.4088,-1.4088,-1.4088,-1.4088,-1.4088,-1.4082,-1.4015,-1.3821,0.0,0.0,0.0,0.0,-1.3367,-1.36,-1.4027,-1.5895,-1.6532,-1.6819,-1.7759,-1.8008,-1.8008,-1.8008,-1.8008,-1.8008,-1.8008,-1.7978,-1.7842,-1.7461,-1.7376,-1.7197,-1.6775,-1.6658,-1.6619,-1.6619,-1.6619,-1.6523,-1.6153,-1.6046,0.0,-1.5459,-1.5752,-1.6016,-1.6016,0.0,0.0,-1.6016,-1.5635,-1.541,-1.541,-1.5459,-1.562,-1.5894,-1.6062,-1.6477,-1.7216,-1.8427,-1.9341,-1.9909,-2.1535,-2.2347,-2.2385,-2.1393,-2.1468,0.0,0.0,0.0,0.0,0.0,0.0,0.0,0.0,0.0,0.0,0.0,0.0,0.0,0.0,0.0,-0.8569,-0.8968,-0.8965,-0.7617,-0.944,-1.0907,-1.0907,-1.0543,-1.1529,-1.4706,-1.4433,-1.409,-1.4244,-1.4262,-1.3782,-1.2721,-1.2431,0.0,-1.2285,-1.2285,-1.2285,-1.2285,-1.359,-1.4262,-1.4262,0.0,0.0,-1.5764,-1.5284,-1.5062,-1.4995,-1.4649,-1.4355,-1.4088,-1.4088,-1.4088,-1.4088,-1.4088,-1.4088,-1.4028,-1.3554,-1.3347,-1.322,-1.2665,-1.2438,-1.2415,-1.2539,-1.3091,-1.3918,-1.5119,-1.6,0.0,-1.7759,-1.8008,-1.8008,-1.8008,-1.8008,-1.8008,-1.8008,-1.7754,-1.748,-1.7435,-1.7109,-1.6804,-1.6716,-1.6445,-1.6222,-1.6222,-1.6222,-1.6193,-1.6105,-1.5791,-1.5508,-1.542,-1.5488,-1.5537,-1.5537,-1.5537,-1.5537,-1.5537,-1.5459,-1.541,-1.541,-1.5772,-1.5988,-1.6079,-1.7058,-1.7932,-1.8686,-1.9626,-2.0645,-2.1782,-2.2138,-2.2506,-2.2945,-2.2732,-2.2744,0.0,0.0,0.0,0.0,0.0,0.0,0.0,0.0,0.0,0.0,0.0,-0.8903,-0.7699,0.0,-0.7756,-0.6714,-0.7368,-0.7797,-0.7183,-0.8619,-0.9966,-1.0524,-1.1239,-1.256,-1.4782,-1.4585,-1.4229,-1.3897,-1.3926,-1.3295,-1.1945,-1.1317,-1.0974,-1.0974,-1.0974,-1.0974,-1.0974,-1.2231,-1.3247,-1.392,-1.4237,-1.4801,-1.5591,-1.501,-1.4743,-1.4723,-1.4429,-1.4222,-1.4088,-1.4088,-1.4088,-1.4075,-1.3928,-1.3868,-1.3828,-1.3493,-1.324,-1.2971,-1.267,-1.2425,-1.2305,-1.2305,-1.2629,-1.3273,-1.4736,-1.5517,-1.6184,-1.7613,-1.8008,-1.8008,-1.8008,-1.8008,-1.8008,-1.8008,-1.7686,-1.7324,-1.7109,-1.6709,-1.6328,-1.6113,-1.5889,-1.5732,-1.5732,-1.5732,-1.5732,-1.5732,-1.5557,-1.541,-1.541,-1.541,-1.541,-1.541,-1.541,-1.541,-1.541,-1.541,-1.541,-1.541,-1.5615,-1.6009,-1.6617,-1.7263,-1.8254,-1.9632,-2.0341,-2.1243,-2.2309,-2.2556,-2.2832,-2.3078,-2.2702,-2.2732,0.0,0.0,0.0,0.0,0.0,0.0,0.0,0.0,-0.8007,-0.8744,-0.867,-0.7879,-0.597,-0.6034,-0.608,-0.5284,-0.6046,-0.683,-0.7051,-0.8149,-0.9323,-1.0481,-1.226,-1.3743,-1.4539,-1.4411,-1.3936,-1.3208,-1.3145,-1.2571,-1.1214,-1.0194,-0.9608,-0.9608,-0.9608,-0.9608,-0.9608,-1.1116,-1.2334,-1.3145,-1.3514,-1.4152,-1.4995,-1.459,-1.4469,-1.4502,-1.4215,-1.4088,-1.4088,-1.4088,-1.4088,-1.4055,-1.372,-1.3567,-1.3513,-1.3453,-1.316,-1.2777,-1.2717,-1.2543,-1.2305,-1.2305,-1.2305,-1.2622,-1.4378,-1.5057,-1.5552,-1.726,-1.7862,-1.8008,-1.8008,-1.8008,-1.8008,-1.8008,-1.7627,-1.7158,-1.6775,-1.6318,-1.586,-1.5478,-1.541,-1.541,-1.541,-1.541,-1.541,-1.541,-1.541,-1.541,-1.541,-1.541,-1.541,-1.541,-1.541,-1.541,-1.541,-1.541,-1.541,-1.541,-1.5488,-1.5989,-1.6935,-1.7207,-1.8132,-1.975,-2.0375,-2.1134,-2.2106,-2.2511,-2.2875,-2.3065,-2.2261,-2.2261,-0.5678,-0.5003,-0.4528,-0.4682,-0.4704,-0.5251,0.0,0.0,-0.8196,-0.8418,-0.8623,-0.7979,-0.5453,-0.5051,-0.5181,-0.5349,-0.5484,-0.5938,-0.6962,-0.8149,-0.9323,-1.0481,-1.0826,-1.1576,-1.3056,-1.229,-1.1371,-1.0502,-1.0435,-0.985,-0.8528,-0.8283,-0.8233,-0.8233,-0.8233,-0.8233,-0.8233,-1.0681,-1.1414,-1.048,-1.3437,-1.4396,-1.3653,-1.398,-1.4275,-1.4502,-1.4215,-1.4088,-1.4088,-1.4088,-1.4088,-1.4055,-1.372,-1.3447,-1.3227,-1.2991,-1.2844,-1.275,-1.2445,-1.2331,-1.2305,-1.2305,-1.2305,-1.2482,-1.3564,-1.4486,-1.5411,-1.6463,-1.7364,-1.8008,-1.8008,-1.8008,-1.8008,-1.8008,-1.736,-1.6755,-1.6716,-1.6074,-1.5469,-1.542,-1.541,-1.541,-1.541,-1.541,-1.541,-1.541,-1.541,-1.541,-1.541,-1.541,-1.541,-1.541,-1.541,-1.541,-1.541,-1.541,-1.541,-1.541,-1.5801,-1.6066,-1.6206,-1.7307,-1.8035,-1.826,-1.9059,-2.0085,-2.1332,-2.1392,-2.2,-2.3065,-2.2261,-2.1939,-0.5194,-0.4529,0.0,0.0,-0.4952,-0.5581,-0.7458,-0.8117,-0.8299,-0.8289,-0.8558,-0.7757,-0.4346,-0.4365,-0.4784,0.0,-0.4963,-0.5802,-0.6962,-0.8149,-0.9065,-0.9536,-1.0183,-1.1226,-1.283,-1.1881,-1.0813,-0.9948,-0.9881,-0.9304,-0.7955,-0.7941,-0.7988,-0.7988,-0.7988,-0.7988,-0.7988,-0.9069,-1.0145,-1.1112,-1.219,-1.3304,-1.4325,-1.4186,-1.4155,-1.4262,-1.4142,-1.4088,-1.4075,-1.3901,-1.3928,-1.4041,-1.3574,-1.332,-1.3173,-1.2898,-1.2677,-1.2509,-1.2345,-1.2305,-1.2305,-1.2305,-1.2305,-1.2482,-1.3419,-1.4414,-1.5411,-1.6349,-1.7285,-1.8008,-1.8008,-1.8008,-1.8008,-1.8008,-1.7321,-1.6697,-1.6697,-1.6005,-1.541,-1.541,-1.541,-1.541,-1.541,-1.541,-1.541,-1.541,-1.541,-1.541,-1.541,-1.541,-1.541,-1.541,-1.541,-1.541,-1.541,-1.541,-1.541,-1.541,-1.5586,-1.5831,-1.6085,-1.6627,-1.7236,-1.7985,-1.8351,-1.9188,-2.0434,-2.0434,-2.0854,-2.1604,-2.0782,-2.0398,-0.4781,0.0,0.0,-0.4663,-0.5016,-0.5659,-0.7411,-0.8011,-0.819,-0.8094,-0.8364,-0.7475,-0.3606,-0.3678,-0.4189,-0.3666,-0.4318,-0.5401,-0.6871,-0.7841,-0.854,-0.8846,-0.9367,-1.0322,-1.1831,-1.1116,-1.0172,-0.9307,-0.924,-0.8812,-0.7859,-0.7907,-0.7988,-0.7988,-0.7988,-0.7988,-0.7988,-0.8382,-0.9312,-1.0818,-1.1392,-1.2421,-1.3923,-1.4041,-1.4088,-1.4088,-1.4088,-1.4041,-1.3955,-1.378,-1.3794,-1.3801,-1.338,-1.316,-1.3046,-1.2777,-1.2522,-1.2305,-1.2305,-1.2305,-1.2305,-1.2305,-1.2305,-1.2482,-1.3419,-1.4414,-1.5411,-1.6349,-1.7285,-1.8008,-1.8008,-1.8008,-1.7978,-1.7861,-1.7243,-1.6668,-1.6541,-1.5947,-1.541,-1.541,-1.541,-1.541,-1.541,-1.541,-1.541,-1.541,-1.541,-1.541,-1.541,-1.541,-1.541,-1.541,-1.541,-1.541,-1.541,-1.541,-1.541,-1.541,-1.541,-1.5557,-1.5899,-1.5919,-1.6327,-1.7265,-1.7275,-1.7918,-1.9224,-1.9337,-1.9741,-2.0389,-1.9662,-1.9299,0.0,0.0,-0.3607,-0.4487,-0.4704,-0.5181,-0.6938,-0.7542,-0.773,-0.7705,-0.7993,-0.7141,-0.3546,-0.2951,-0.3084,-0.3526,-0.3612,-0.4461,-0.6782,-0.7139,-0.7577,-0.8759,-0.8076,-0.8013,0.0,-0.9266,-0.8808,-0.7931,-0.7859,-0.7859,-0.7811,-0.7907,-0.7988,-0.7988,-0.7988,-0.7988,-0.7988,-0.9316,-0.9312,-0.8134,-1.1392,-1.2325,-1.1298,-1.32,-1.4088,-1.4088,-1.4088,-1.3928,-1.364,-1.3955,-1.3748,-1.324,-1.322,-1.3026,-1.2764,-1.2425,-1.2311,-1.2305,-1.2305,-1.2305,-1.2305,-1.2305,-1.2305,-1.2482,-1.3419,-1.4414,-1.5411,-1.6349,-1.7285,-1.8008,-1.8008,-1.8008,-1.791,-1.75,-1.7061,-1.658,-1.6202,-1.5732,-1.541,-1.541,-1.541,-1.541,-1.541,-1.541,-1.541,-1.541,-1.541,-1.541,-1.541,-1.541,-1.541,-1.541,-1.541,-1.541,-1.541,-1.541,-1.541,-1.541,-1.541,-1.542,-1.543,-1.543,-1.5439,-1.5478,-1.5478,-1.6144,-1.7488,-1.7876,-1.8702,-1.9916,-1.9501,-1.9299,0.0,0.0,-0.3728,-0.45,-0.4765,-0.5269,-0.6918,-0.7375,-0.7421,-0.7441,-0.7656,-0.7008,-0.417,-0.3806,-0.4092,-0.4536,-0.461,-0.518,-0.6858,-0.7227,-0.7427,-0.7874,-0.7703,0.0,0.0,0.0,0.0,-0.779,-0.7726,-0.7712,-0.7804,-0.7907,-0.7988,-0.7988,-0.7988,-0.7941,-0.7889,-0.8428,-0.8758,-0.9005,-1.1647,-1.2536,-1.1964,-1.3425,-1.4088,-1.4088,-1.4088,-1.3915,-1.3613,-1.3706,-1.3633,-1.344,-1.3287,-1.3146,-1.3019,-1.275,-1.2472,-1.2305,-1.2305,-1.2305,-1.2305,-1.2305,-1.2305,-1.2372,-1.2666,-1.3455,-1.4422,-1.5411,-1.6358,-1.7151,-1.7523,-1.7598,-1.748,-1.7051,-1.6611,-1.625,-1.6124,-1.5723,-1.541,-1.541,-1.541,-1.541,-1.541,-1.541,-1.541,-1.541,-1.541,-1.541,-1.541,-1.541,-1.541,-1.541,-1.541,-1.541,-1.541,-1.541,-1.541,-1.541,-1.541,-1.541,-1.541,-1.541,-1.541,-1.541,-1.541,-1.5762,-1.6527,-1.6678,-1.7113,-1.7769,-1.7647,-1.775,-0.6112,-0.5084,-0.4077,-0.4798,-0.5053,-0.5448,-0.674,-0.7258,-0.7399,-0.7187,-0.7285,-0.67,-0.4355,-0.4116,-0.4413,-0.4951,-0.5086,-0.5589,-0.7015,-0.7356,-0.7451,-0.7451,-0.7584,-0.7709,0.0,0.0,0.0,-0.7797,-0.8152,-0.8233,-0.7807,-0.7907,-0.7965,-0.7911,-0.7961,-0.7891,-0.7736,-0.7882,-0.8423,-0.9371,-1.1229,-1.2144,-1.2328,-1.3555,-1.4088,-1.4082,-1.3975,-1.3761,-1.3447,-1.3447,-1.332,-1.312,-1.308,-1.2979,-1.2859,-1.2659,-1.2465,-1.2305,-1.2305,-1.2305,-1.2305,-1.2305,-1.2305,-1.2372,-1.2703,-1.3208,-1.3918,-1.4914,-1.5614,-1.6261,-1.6932,-1.6997,-1.6844,-1.6731,-1.6387,-1.6046,-1.5889,-1.5605,-1.541,-1.541,-1.541,-1.541,-1.541,-1.541,-1.541,-1.541,-1.541,-1.541,-1.541,-1.541,-1.541,-1.541,-1.541,-1.541,-1.541,-1.541,-1.541,-1.541,-1.541,-1.541,-1.541,-1.541,-1.541,-1.541,-1.541,-1.5547,-1.586,-1.6016,-1.6242,-1.6494,-1.6629,-1.6941,-0.772,-0.6174,-0.4727,-0.5397,-0.5569,-0.576,-0.6475,-0.7208,-0.7545,-0.6989,-0.6909,-0.6284,0.0,0.0,-0.4162,-0.4859,-0.5082,-0.5706,-0.719,-0.7502,-0.7604,0.0,0.0,0.0,0.0,0.0,0.0,-0.7824,0.0,-0.9148,-0.7869,-0.7911,-0.7921,-0.7818,-0.7911,-0.7843,-0.759,-0.7712,-0.8197,-0.9017,-1.022,-1.1296,-1.2242,-1.3512,-1.4082,-1.4048,-1.3726,-1.3427,-1.3186,-1.32,-1.2859,-1.2351,-1.2677,-1.261,-1.2325,-1.2311,-1.2305,-1.2305,-1.2305,-1.2305,-1.2305,-1.2305,-1.2305,-1.2482,-1.3346,-1.3637,-1.3846,-1.4843,-1.5128,-1.5332,-1.6253,-1.6165,-1.5978,-1.6459,-1.6317,-1.5948,-1.5498,-1.541,-1.541,-1.541,-1.541,-1.541,-1.541,-1.541,-1.541,-1.541,-1.541,-1.541,-1.541,-1.541,-1.541,-1.541,-1.541,-1.541,-1.541,-1.541,-1.541,-1.541,-1.541,-1.541,-1.541,-1.541,-1.541,-1.541,-1.541,-1.541,-1.541,-1.586,-1.6056,-1.6065,-1.6465,-1.6914,-0.9248,-0.7953,-0.6699,-0.6411,-0.6312,-0.6502,-0.7262,-0.7563,-0.7499,-0.6822,-0.6872,-0.6552,-0.4906,0.0,0.0,-0.5879,-0.6242,0.0,-0.7329,-0.7502,0.0,-0.7743,0.0,-0.7931,-0.7931,-0.8856,0.0,0.0,-0.8164,-0.8195,-0.7974,-0.7968,-0.7921,-0.7818,-0.7911,-0.7841,-0.7434,-0.735,-0.7465,-0.7864,-0.9765,-1.0796,-1.108,-1.3173,-1.3968,-1.3706,-1.3633,-1.3347,-1.2918,-1.3113,-1.2986,-1.2677,-1.2757,-1.2737,-1.2643,-1.2385,-1.2305,-1.2305,-1.2305,-1.2305,-1.2305,-1.2305,-1.2305,-1.2335,-1.2592,-1.2666,-1.2842,-1.381,-1.4099,-1.4216,-1.4859,-1.5227,-1.5407,-1.525,-1.5396,-1.5547,-1.5439,-1.541,-1.541,-1.541,-1.541,-1.541,-1.541,-1.541,-1.541,-1.541,-1.541,-1.541,-1.541,-1.541,-1.541,-1.541,-1.541,-1.541,-1.541,-1.541,-1.541,-1.541,-1.541,-1.541,-1.541,-1.541,-1.541,-1.541,-1.541,-1.541,-1.541,-1.5527,-1.5576,-1.5586,-1.5693,-1.6132,-1.1187,-0.9773,-0.8338,-0.7676,-0.7305,-0.7182,-0.7616,-0.7696,-0.7482,-0.675,-0.65,0.0,-0.501,0.0,0.0,0.0,0.0,0.0,-0.7411,-0.76,-0.7746,0.0,-0.8474,0.0,-0.8038,-0.9217,-0.946,0.0,-0.8494,-0.8532,-0.8035,-0.7988,-0.7891,-0.7726,-0.7862,-0.7756,-0.7419,-0.7217,-0.7139,-0.7268,-0.902,-1.0139,-1.0654,-1.2467,-1.34,-1.3593,0.0,-1.3186,-1.279,-1.2792,-1.2705,-1.2589,-1.2589,-1.2589,-1.2569,-1.2365,-1.2305,-1.2305,-1.2305,-1.2305,-1.2305,-1.2305,-1.2305,-1.2305,-1.2305,-1.2305,-1.2409,-1.2952,-1.3098,-1.3237,-1.3967,-1.4138,-1.4294,-1.4829,-1.4934,-1.4962,-1.5323,-1.541,-1.541,-1.541,-1.541,-1.541,-1.541,-1.541,-1.541,-1.541,-1.541,-1.541,-1.541,-1.541,-1.541,-1.541,-1.541,-1.541,-1.541,-1.541,-1.541,-1.541,-1.541,-1.541,-1.541,-1.541,-1.541,-1.541,-1.541,-1.541,-1.541,-1.541,-1.541,-1.541,-1.541,-1.5781,-1.3284,-1.1556,-0.9723,-0.912,-0.8409,-0.7857,-0.7857,-0.7777,-0.7482,-0.675,0.0,-0.5353,-0.4808,-0.4965,-0.5342,-0.5902,0.0,-0.6909,-0.7516,-0.7706,-0.7845,-0.7968,-0.9148,-0.9473,-0.8305,-0.9261,-0.9437,-0.8273,-0.9098,-0.917,-0.8035,-0.7971,-0.7882,-0.7607,-0.7678,-0.7607,-0.7419,-0.7217,-0.7095,-0.7095,-0.8321,-0.9392,-1.0393,-1.1679,-1.2637,-1.3264,0.0,0.0,-1.2703,-1.2412,-1.2305,-1.2305,-1.2305,-1.2305,-1.2305,-1.2305,-1.2305,-1.2305,-1.2305,-1.2305,-1.2305,-1.2305,-1.2305,-1.2305,-1.2305,-1.2305,-1.2291,-1.2258,-1.2271,-1.2462,-1.3208,-1.3068,-1.3101,-1.4668,-1.4622,-1.4421,-1.5235,-1.541,-1.541,-1.541,-1.541,-1.541,-1.541,-1.541,-1.541,-1.541,-1.541,-1.541,-1.541,-1.541,-1.541,-1.541,-1.541,-1.541,-1.541,-1.541,-1.541,-1.541,-1.541,-1.541,-1.541,-1.541,-1.541,-1.541,-1.541,-1.541,-1.541,-1.541,-1.541,-1.541,-1.541,-1.5644,-1.5012,-1.3185,-1.1189,-1.0528,-0.9481,-0.8619,-0.8619,-0.8129,0.0,0.0,0.0,-0.5535,-0.4829,-0.5142,0.0,-0.5936,0.0,0.0,0.0,0.0,-0.7736,0.0,0.0,0.0,0.0,0.0,0.0,0.0,0.0,0.0,-0.8024,-0.787,-0.7773,-0.7604,-0.7377,-0.7295,-0.7415,-0.7217,-0.7095,-0.7095,-0.8321,-0.8935,-0.9074,-1.1088,-1.1845,-1.1642,0.0,0.0,-1.2378,-1.2325,-1.2305,-1.2305,-1.2305,-1.2305,-1.2305,-1.2305,-1.2305,-1.2305,-1.2305,-1.2305,-1.2305,-1.2305,-1.2305,-1.2305,-1.2305,-1.2305,-1.2251,-1.2011,-1.2118,-1.2228,-1.1879,-1.2251,-1.2873,-1.3582,-1.3956,-1.4421,-1.5235,-1.541,-1.541,-1.541,-1.541,-1.541,-1.541,-1.541,-1.541,-1.541,-1.541,-1.541,-1.541,-1.541,-1.541,-1.541,-1.541,-1.541,-1.541,-1.541,-1.541,-1.541,-1.541,-1.541,-1.541,-1.541,-1.541,-1.541,-1.541,-1.541,-1.541,-1.541,-1.541,-1.541,-1.541,-1.5644,-1.6111,-1.4575,-1.2847,-1.1536,-0.9967,-0.8666,-0.8315,0.0,0.0,0.0,0.0,-0.5118,-0.4778,0.0,0.0,0.0,0.0,0.0,0.0,0.0,0.0,0.0,0.0,0.0,0.0,0.0,0.0,0.0,0.0,0.0,-0.7804,-0.7665,-0.755,-0.7485,-0.7258,-0.7132,-0.7251,-0.7132,-0.7095,-0.7095,-0.7665,-0.823,-0.8734,-0.9779,-1.057,-1.1233,-1.1735,0.0,-1.2305,-1.2305,-1.2305,-1.2305,-1.2305,-1.2305,-1.2305,-1.2305,-1.2305,-1.2305,-1.2305,-1.2305,-1.2305,-1.2305,-1.2305,-1.2305,-1.2305,-1.2305,-1.2271,-1.2131,-1.2084,-1.2011,-1.173,-1.2064,-1.2591,-1.326,-1.4127,-1.4932,-1.5323,-1.541,-1.541,-1.541,-1.541,-1.541,-1.541,-1.541,-1.541,-1.541,-1.505,-1.4932,-1.5352,-1.5021,-1.4932,-1.5352,-1.541,-1.541,-1.541,-1.541,-1.541,-1.541,-1.541,-1.541,-1.541,-1.541,-1.541,-1.541,-1.541,-1.541,-1.541,-1.541,-1.541,-1.541,-1.541,-1.5527,-1.6836,-1.5379,-1.3765,-1.2276,-1.0191,-0.8356,-0.7824,-0.6546,0.0,0.0,-0.5084,-0.4701,-0.4731,0.0,0.0,0.0,0.0,0.0,0.0,0.0,0.0,0.0,0.0,0.0,0.0,0.0,0.0,0.0,0.0,0.0,-0.755,-0.7438,-0.7402,-0.7322,-0.7204,-0.7095,-0.7095,-0.7095,-0.7095,-0.7095,-0.7065,-0.7487,-0.8295,-0.8464,-0.9239,-1.049,-1.0914,0.0,0.0,-1.2224,-1.2305,-1.2305,-1.2305,-1.2305,-1.2305,-1.2305,-1.2305,-1.2305,-1.2305,-1.2305,-1.2305,-1.2305,-1.2305,-1.2305,-1.2305,-1.2258,-1.2198,-1.2131,-1.1951,-1.1779,-1.1658,-1.1774,-1.2178,-1.3091,-1.4369,-1.5352,-1.5167,-1.5294,-1.5352,-1.5167,-1.5294,-1.541,-1.541,-1.541,-1.5352,-1.5177,-1.4599,-1.4362,-1.4844,-1.4323,-1.4234,-1.505,-1.5294,-1.541,-1.541,-1.541,-1.541,-1.541,-1.541,-1.541,-1.541,-1.541,-1.541,-1.541,-1.541,-1.541,-1.541,-1.541,-1.541,-1.541,-1.541,-1.541,-1.725,-1.509,-1.2823,-1.2642,-1.0185,-0.7771,-0.7723,0.0,0.0,-0.5515,-0.5084,-0.4731,-0.487,-0.5005,0.0,0.0,0.0,0.0,0.0,0.0,0.0,0.0,0.0,0.0,0.0,0.0,0.0,0.0,0.0,0.0,0.0,-0.7426,-0.7309,-0.7122,-0.7102,-0.7095,-0.7095,-0.7095,-0.7095,-0.7095,-0.6967,-0.691,-0.6923,-0.7696,-0.8068,-0.8225,0.0,0.0,0.0,-1.1922,-1.2305,-1.2305,-1.2305,-1.2305,-1.2305,-1.2305,-1.2305,-1.2305,-1.2305,-1.2305,-1.2305,-1.2305,-1.2305,-1.2305,-1.2305,-1.2118,-1.185,-1.1583,-1.1455,-1.1343,-1.0847,-1.09,-1.143,-1.2732,-1.424,-1.5196,-1.4481,-1.4874,-1.5167,-1.4451,-1.4903,-1.541,-1.541,-1.541,-1.5138,-1.4421,-1.4243,-1.3965,-1.3312,-1.3161,-1.3425,-1.4213,-1.4962,-1.541,-1.541,-1.541,-1.541,-1.541,-1.541,-1.541,-1.541,-1.541,-1.541,-1.541,-1.541,-1.541,-1.541,-1.541,-1.541,-1.541,-1.541,-1.541,-1.7024,-1.5313,-1.3429,-1.188,-0.9559,-0.7416,-0.6573,0.0,-0.4893,-0.4893,-0.4855,-0.4847,-0.4877,-0.5111,-0.5379,0.0,-0.5837,-0.6061,0.0,0.0,0.0,0.0,0.0,0.0,0.0,0.0,0.0,0.0,0.0,0.0,0.0,-0.7231,-0.7204,-0.7098,-0.7095,-0.7055,-0.697,-0.697,-0.6923,-0.6875,-0.6817,-0.6712,-0.66,-0.6936,-0.7368,-0.7897,0.0,0.0,0.0,-1.1885,-1.2305,-1.2305,-1.2305,-1.2305,-1.2305,-1.2305,-1.2305,-1.2305,-1.2305,-1.2305,-1.2271,-1.2098,-1.2044,-1.2078,-1.2245,-1.2098,-1.1879,-1.1724,-1.1436,-1.1109,-1.0914,-1.1148,-1.1755,-1.2767,-1.3494,-1.3885,-1.3554,-1.3734,-1.3846,-1.3545,-1.3726,-1.3965,-1.3965,-1.3965,-1.3855,-1.3524,-1.3083,-1.281,-1.2978,-1.2573,-1.2779,-1.4055,-1.4481,-1.4864,-1.5352,-1.541,-1.541,-1.541,-1.541,-1.541,-1.541,-1.541,-1.541,-1.541,-1.541,-1.541,-1.541,-1.541,-1.541,-1.541,-1.541,-1.541,-1.681,-1.5202,-1.3442,-1.1259,-0.9001,-0.6999,0.0,0.0,-0.4515,-0.4607,-0.4769,-0.4901,-0.4941,-0.5189,-0.5446,0.0,-0.5708,-0.5908,-0.6255,0.0,0.0,0.0,0.0,0.0,0.0,0.0,0.0,0.0,0.0,0.0,0.0,-0.7034,-0.7034,-0.7034,-0.7075,-0.7007,-0.6865,-0.6862,-0.6851,-0.6702,-0.6654,-0.6576,-0.6511,-0.6467,-0.6937,-0.7859,0.0,0.0,0.0,-1.1885,-1.2114,-1.1885,-1.2187,-1.2114,-1.1872,-1.2095,-1.2231,-1.2291,-1.2204,-1.2178,-1.2138,-1.1973,-1.1846,-1.1777,-1.1984,-1.1844,-1.1645,-1.1645,-1.1283,-1.0868,-1.0868,-1.1326,-1.1958,-1.2512,-1.2826,-1.2917,-1.2704,-1.2826,-1.2917,-1.2696,-1.2856,-1.3009,-1.3009,-1.3009,-1.2917,-1.2665,-1.2174,-1.1927,-1.2243,-1.181,-1.1958,-1.3356,-1.3696,-1.4273,-1.5323,-1.541,-1.541,-1.541,-1.541,-1.541,-1.541,-1.541,-1.541,-1.541,-1.541,-1.541,-1.541,-1.541,-1.541,-1.541,-1.541,-1.541,-1.6697,-1.4609,-1.2383,-1.103,-0.8625,-0.648,0.0,-0.5125,-0.4576,-0.4853,-0.4887,-0.4931,-0.5069,-0.5257,-0.5446,-0.5566,-0.5708,-0.5908,-0.6255,0.0,0.0,0.0,0.0,0.0,0.0,0.0,0.0,0.0,0.0,0.0,0.0,-0.6886,-0.6886,-0.6886,-0.7021,-0.6957,-0.6705,-0.6854,-0.6851,-0.6698,-0.6549,-0.6515,-0.6508,-0.6368,-0.6834,0.0,0.0,0.0,0.0,-1.1885,-1.1694,-1.0901,-1.1922,-1.1694,-1.0902,-1.1647,-1.2058,-1.2265,-1.2013,-1.1906,-1.1906,-1.1906,-1.167,-1.1395,-1.1395,-1.1229,-1.1002,-1.1002,-1.0821,-1.0593,-1.0593,-1.1202,-1.1803,-1.1803,-1.242,-1.2787,-1.1981,-1.2451,-1.2757,-1.1958,-1.2451,-1.3009,-1.3009,-1.3009,-1.2726,-1.1919,-1.1803,-1.1531,-1.0713,-1.0624,-1.0926,-1.1741,-1.2543,-1.3666,-1.5264,-1.541,-1.541,-1.541,-1.541,-1.541,-1.541,-1.541,-1.541,-1.541,-1.541,-1.541,-1.541,-1.541,-1.541,-1.541,-1.541,-1.541,-1.5651,-1.355,-1.1412,-0.9134,-0.7301,-0.5871,-0.5193,-0.4907,-0.4802,-0.487,-0.4965,-0.5046,-0.509,-0.5257,-0.5511,-0.5833,0.0,0.0,0.0,0.0,0.0,0.0,0.0,0.0,0.0,0.0,0.0,0.0,0.0,0.0,0.0,-0.735,-0.6839,-0.6776,-0.6817,-0.6746,-0.6546,-0.6593,-0.6542,-0.6439,-0.6388,-0.6368,-0.6364,-0.632,0.0,0.0,0.0,0.0,0.0,-0.982,-1.0458,-1.0809,-1.0967,-1.1227,-1.1562,-1.1565,-1.1623,-1.1655,-1.1597,-1.1563,-1.1536,-1.1336,-1.1209,-1.1096,-1.0895,-1.0909,-1.0955,-1.0787,-1.0667,-1.0593,-1.0593,-1.0776,-1.0989,-1.0989,-1.117,-1.1296,-1.1021,-1.117,-1.1296,-1.1021,-1.1202,-1.1358,-1.1358,-1.1358,-1.1264,-1.1014,-1.0989,-1.0895,-1.0618,-1.0593,-1.1115,-1.2489,-1.2848,-1.3433,-1.4481,-1.5079,-1.541,-1.541,-1.541,-1.541,-1.541,-1.541,-1.541,-1.541,-1.541,-1.541,-1.541,-1.541,-1.541,-1.541,-1.541,-1.541,0.0,-1.2923,-1.0681,-0.8301,-0.6751,-0.5636,-0.5005,-0.4891,-0.4952,-0.5064,-0.5111,-0.5117,-0.5206,-0.5327,-0.5487,-0.5732,0.0,0.0,0.0,0.0,0.0,0.0,0.0,0.0,0.0,0.0,0.0,0.0,0.0,0.0,0.0,0.0,-0.6688,-0.6539,-0.6641,-0.6603,-0.6433,-0.6484,-0.6443,-0.63,-0.63,-0.63,-0.63,-0.63,0.0,0.0,0.0,0.0,0.0,-0.898,-0.9537,-1.0055,-1.0217,-1.0621,-1.116,-1.1226,-1.1295,-1.1375,-1.1262,-1.1263,-1.1229,-1.1049,-1.0915,-1.0827,-1.0646,-1.072,-1.0821,-1.064,-1.0593,-1.0593,-1.0593,-1.0593,-1.0593,-1.0593,-1.0593,-1.0593,-1.0593,-1.0593,-1.0593,-1.0593,-1.0593,-1.0593,-1.0593,-1.0593,-1.0593,-1.0593,-1.0593,-1.0593,-1.0593,-1.0593,-1.1115,-1.242,-1.2826,-1.3342,-1.4115,-1.4932,-1.541,-1.541,-1.541,-1.541,-1.541,-1.541,-1.541,-1.541,-1.541,-1.541,-1.541,-1.541,-1.541,-1.541,-1.541,-1.541,0.0,-1.2388,-1.0105,-0.8221,-0.6724,-0.5626,-0.5189,-0.5005,0.0,-0.5337,-0.5247,-0.5196,-0.5382,-0.5412,-0.5423,-0.5453,0.0,0.0,0.0,0.0,0.0,0.0,0.0,0.0,0.0,0.0,0.0,0.0,0.0,0.0,0.0,0.0,-0.6446,-0.6306,-0.6525,-0.6536,-0.6303,-0.6429,-0.6429,-0.63,-0.63,-0.63,-0.63,-0.63,0.0,0.0,0.0,0.0,0.0,-0.8992,-0.8891,-0.8861,-0.9711,-1.0031,-1.0064,-1.0724,-1.1136,-1.1323,-1.1056,-1.0962,-1.0962,-1.0962,-1.0814,-1.0593,-1.0593,-1.0593,-1.0593,-1.0593,-1.0593,-1.0593,-1.0593,-1.0593,-1.0593,-1.0593,-1.0593,-1.0593,-1.0593,-1.0593,-1.0593,-1.0593,-1.0593,-1.0593,-1.0593,-1.0593,-1.0593,-1.0593,-1.0593,-1.0593,-1.0593,-1.0593,-1.0926,-1.1803,-1.2543,-1.3342,-1.4204,-1.4962,-1.541,-1.541,-1.541,-1.541,-1.541,-1.541,-1.541,-1.541,-1.541,-1.541,-1.541,-1.541,-1.541,-1.541,-1.541,-1.541,-1.1181,0.0,-0.8632,-0.6758,-0.5701,-0.512,0.0,-0.5196,-0.531,-0.5382,0.0,-0.5388,-0.5542,-0.5569,-0.5682,0.0,0.0,0.0,0.0,0.0,0.0,0.0,0.0,0.0,0.0,0.0,0.0,0.0,0.0,0.0,0.0,0.0,-0.6446,-0.6306,-0.6368,-0.6371,-0.63,-0.6334,-0.6334,-0.63,-0.63,-0.63,-0.63,-0.63,0.0,0.0,0.0,0.0,-0.6809,-0.736,-0.7994,-0.8715,-0.9383,-1.0101,-1.075,-1.0704,-1.0734,-1.0787,-1.072,-1.0693,-1.0693,-1.0693,-1.0646,-1.0593,-1.0593,-1.0593,-1.0593,-1.0593,-1.0593,-1.0593,-1.0593,-1.0593,-1.0593,-1.0593,-1.0593,-1.0593,-1.0593,-1.0593,-1.0593,-1.0593,-1.0593,-1.0593,-1.0593,-1.0593,-1.0593,-1.0593,-1.0593,-1.0593,-1.0593,-1.0593,-1.1146,-1.2581,-1.2887,-1.3575,-1.4991,-1.5294,-1.541,-1.541,-1.541,-1.541,-1.541,-1.541,-1.541,-1.541,-1.541,-1.541,-1.541,-1.541,-1.541,-1.541,-1.541,-1.541,-0.8772,-0.7994,-0.746,-0.6211,-0.5442,-0.5022,-0.5203,0.0,0.0,0.0,0.0,-0.5419,-0.5504,-0.5542,0.0,0.0,0.0,0.0,0.0,0.0,0.0,0.0,0.0,0.0,0.0,0.0,0.0,0.0,0.0,0.0,0.0,0.0,-0.6378,-0.6303,-0.63,-0.63,-0.63,-0.63,-0.63,-0.63,-0.63,-0.63,-0.6296,-0.6186,0.0,0.0,0.0,0.0,-0.5948,-0.6714,-0.7577,-0.8486,-0.9136,-1.0003,-1.0807,-1.0646,-1.0593,-1.0593,-1.0593,-1.0593,-1.0593,-1.0593,-1.0593,-1.0593,-1.0593,-1.0593,-1.0593,-1.0593,-1.0593,-1.0593,-1.0593,-1.0593,-1.0593,-1.0593,-1.0593,-1.0593,-1.0593,-1.0593,-1.0593,-1.0593,-1.0593,-1.0593,-1.0593,-1.0593,-1.0593,-1.0593,-1.0593,-1.0593,-1.0593,-1.0926,-1.1624,-1.2856,-1.3334,-1.4055,-1.5294,-1.541,-1.541,-1.541,-1.541,-1.541,-1.541,-1.541,-1.541,-1.541,-1.541,-1.541,-1.541,-1.541,-1.541,-1.541,-1.541,-1.541,-0.68,-0.6295,-0.6242,-0.5917,-0.5357,-0.497,-0.5298,0.0,0.0,0.0,0.0,0.0,0.0,0.0,0.0,0.0,0.0,0.0,0.0,0.0,0.0,0.0,0.0,0.0,0.0,0.0,0.0,0.0,0.0,0.0,0.0,0.0,0.0,-0.63,-0.63,-0.63,-0.63,-0.63,-0.6286,-0.6265,-0.6289,-0.6286,-0.6259,-0.6091,0.0,0.0,0.0,0.0,-0.5827,-0.6696,-0.7504,-0.8263,-0.9156,-0.9945,-1.0593,-1.0593,-1.0593,-1.0593,-1.0593,-1.0593,-1.0593,-1.0593,-1.0593,-1.0593,-1.0593,-1.0593,-1.0593,-1.0593,-1.0593,-1.0593,-1.0593,-1.0593,-1.0593,-1.0593,-1.0593,-1.0593,-1.0593,-1.0593,-1.0593,-1.0593,-1.0593,-1.0593,-1.0593,-1.0593,-1.0593,-1.0593,-1.0593,-1.0656,-1.0776,-1.1375,-1.2174,-1.3092,-1.3786,-1.454,-1.5323,-1.541,-1.541,-1.541,-1.541,-1.541,-1.541,-1.541,-1.541,-1.541,-1.541,-1.541,-1.541,-1.541,-1.541,-1.541,-1.541,-1.541,-0.5165,-0.4409,-0.4261,-0.4904,-0.4519,-0.42,-0.4967,0.0,0.0,0.0,0.0,0.0,0.0,0.0,0.0,0.0,0.0,0.0,0.0,0.0,0.0,0.0,0.0,0.0,0.0,0.0,0.0,0.0,0.0,0.0,0.0,0.0,0.0,-0.63,-0.63,-0.63,-0.63,-0.63,-0.6235,-0.603,-0.6238,-0.6231,-0.6027,-0.6003,-0.5993,0.0,0.0,-0.5623,-0.5748,-0.7214,-0.7914,-0.8203,-0.9798,-1.0466,-1.0593,-1.0593,-1.0593,-1.0593,-1.0593,-1.0593,-1.0593,-1.0593,-1.0593,-1.0593,-1.0593,-1.0593,-1.0593,-1.0593,-1.0593,-1.0593,-1.0593,-1.0593,-1.0593,-1.0593,-1.0593,-1.0593,-1.0593,-1.0593,-1.0593,-1.0593,-1.0593,-1.0593,-1.0593,-1.0593,-1.0593,-1.0593,-1.0593,-1.0839,-1.1531,-1.171,-1.2381,-1.3876,-1.4124,-1.454,-1.5323,-1.541,-1.541,-1.541,-1.541,-1.541,-1.541,-1.541,-1.541,-1.541,-1.541,-1.541,-1.541,-1.541,-1.541,-1.541,-1.541,-1.541,-0.421,-0.3324,-0.2977,-0.3488,-0.3398,-0.3314,-0.3708,0.0,0.0,0.0,0.0,0.0,0.0,0.0,0.0,0.0,0.0,0.0,0.0,0.0,0.0,0.0,0.0,0.0,0.0,0.0,0.0,0.0,0.0,0.0,0.0,0.0,0.0,0.0,-0.6054,-0.6013,-0.6013,-0.6013,-0.6017,-0.5993,-0.6017,-0.5976,-0.5901,-0.5827,-0.5793,-0.5779,0.0,-0.5501,-0.5629,-0.7321,-0.7994,-0.8188,-0.9907,-1.0593,-1.0593,-1.0593,-1.0593,-1.0593,-1.0593,-1.0593,-1.0593,-1.0593,-1.0593,-1.0593,-1.0593,-1.0593,-1.0593,-1.0593,-1.0593,-1.0593,-1.0593,-1.0593,-1.0593,-1.0593,-1.0593,-1.0593,-1.0593,-1.0593,-1.0593,-1.0593,-1.0593,-1.0593,-1.0593,-1.0593,-1.0593,-1.0593,-1.0593,-1.0895,-1.171,-1.2174,-1.2909,-1.4055,-1.4599,-1.4991,-1.5381,-1.541,-1.541,-1.541,-1.541,-1.5312,-1.5078,-1.5078,-1.4961,-1.4699,-1.4951,-1.4961,-1.4689,-1.4961,-1.5078,-1.5078,-1.5078,-1.5195,-0.3655,-0.2758,-0.2184,-0.2165,0.0,-0.2405,-0.2604,0.0,0.0,0.0,0.0,0.0,0.0,0.0,0.0,0.0,0.0,0.0,0.0,0.0,0.0,0.0,0.0,0.0,0.0,0.0,0.0,0.0,0.0,0.0,0.0,0.0,0.0,0.0,-0.5864,-0.58,-0.58,-0.5769,-0.581,-0.5888,-0.584,-0.5783,-0.5749,-0.564,-0.5589,-0.5583,-0.5463,-0.5395,-0.5524,-0.7279,-0.7994,-0.8188,-0.9907,-1.0593,-1.0593,-1.0364,-1.0301,-1.0301,-1.0301,-1.0301,-1.0333,-1.053,-1.0593,-1.0593,-1.0593,-1.0593,-1.0593,-1.0593,-1.0593,-1.0593,-1.0593,-1.0593,-1.0593,-1.0593,-1.0593,-1.0593,-1.0593,-1.0593,-1.0593,-1.0593,-1.0593,-1.0593,-1.0593,-1.0593,-1.0593,-1.0593,-1.0593,-1.0958,-1.1958,-1.2604,-1.3364,-1.4353,-1.5021,-1.5371,-1.5273,-1.5264,-1.5225,-1.5089,-1.5205,-1.5117,-1.4795,-1.4687,-1.4473,-1.4114,-1.4463,-1.4463,-1.4104,-1.4473,-1.4629,-1.4629,-1.4629,-1.4805,-0.353,-0.2747,-0.2037,-0.1373,-0.1296,0.0,-0.2354,-0.2648,0.0,0.0,0.0,0.0,0.0,0.0,0.0,0.0,0.0,0.0,0.0,0.0,0.0,0.0,0.0,0.0,0.0,0.0,0.0,0.0,0.0,0.0,0.0,0.0,0.0,0.0,0.0,-0.58,-0.58,-0.5671,-0.561,-0.5623,-0.5742,-0.5732,-0.5603,-0.5596,-0.5589,-0.5583,-0.5463,-0.5395,-0.5524,-0.7279,-0.7994,-0.8188,-0.9907,-1.0593,-1.0498,-0.969,-0.9402,-0.9402,-0.9402,-0.9402,-0.953,-1.0333,-1.0593,-1.0593,-1.0593,-1.0593,-1.0593,-1.0593,-1.0593,-1.0593,-1.0593,-1.0593,-1.0593,-1.0593,-1.0593,-1.0593,-1.0593,-1.0593,-1.0593,-1.0593,-1.0593,-1.0593,-1.0593,-1.0593,-1.0593,-1.0593,-1.0593,-1.1178,-1.2704,-1.2978,-1.3575,-1.5147,-1.5381,-1.5254,-1.4863,-1.4834,-1.4658,-1.4221,-1.4609,-1.4814,-1.4813,-1.4367,-1.4133,-1.4104,-1.4133,-1.4133,-1.4104,-1.4133,-1.4153,-1.4153,-1.4153,-1.4172,-0.2971,-0.2423,-0.1911,-0.0716,-0.0456,0.0,0.0,0.0,0.0,0.0,0.0,0.0,0.0,0.0,0.0,0.0,0.0,0.0,0.0,0.0,0.0,0.0,0.0,0.0,0.0,0.0,0.0,0.0,0.0,0.0,0.0,0.0,0.0,0.0,0.0,-0.5562,-0.5562,-0.5508,-0.5481,-0.5484,-0.5535,-0.5535,-0.5481,-0.5481,-0.5481,-0.5477,-0.5419,-0.5395,-0.5491,-0.6691,-0.7502,-0.8188,-0.9907,-1.0593,-1.0491,-0.9626,-0.9306,-0.921,-0.8678,-0.8844,-0.937,-0.969,-1.0174,-1.0593,-1.0593,-1.0593,-1.0593,-1.0593,-1.0593,-1.0593,-1.0593,-1.0593,-1.0593,-1.0593,-1.0593,-1.0593,-1.0593,-1.0593,-1.0593,-1.0593,-1.0593,-1.0593,-1.0593,-1.0593,-1.0593,-1.0593,-1.0593,-1.117,-1.2795,-1.3009,-1.3606,-1.5235,-1.5176,-1.4961,-1.4795,-1.4531,-1.428,-1.4114,-1.426,-1.4258,-1.4004,-1.3828,-1.3623,-1.3359,-1.3613,-1.3588,-1.335,-1.3588,-1.3724,-1.3724,-1.3724,-1.386,-0.3276,-0.26,-0.1973,0.0,0.0,0.0,0.0,0.0,0.0,0.0,0.0,0.0,0.0,0.0,0.0,0.0,0.0,0.0,0.0,0.0,0.0,0.0,0.0,0.0,0.0,0.0,0.0,0.0,0.0,0.0,0.0,0.0,0.0,0.0,0.0,0.0,-0.5395,-0.5395,-0.5395,-0.5395,-0.5395,-0.5395,-0.5395,-0.5395,-0.5395,-0.5395,-0.5395,-0.5395,-0.5458,-0.633,-0.7372,-0.8517,-0.9716,-1.0364,-1.0491,-0.9626,-0.9306,-0.9172,-0.8285,-0.8581,-0.9306,-0.9306,-0.9825,-1.0452,-1.0452,-1.0452,-1.0452,-1.0452,-1.0519,-1.0593,-1.0593,-1.0593,-1.0593,-1.0593,-1.0593,-1.0593,-1.0593,-1.0593,-1.0593,-1.0593,-1.0593,-1.0593,-1.0593,-1.0593,-1.0593,-1.0593,-1.0593,-1.117,-1.2795,-1.3009,-1.3562,-1.5052,-1.4834,-1.4531,-1.4394,-1.4111,-1.3851,-1.3724,-1.3714,-1.3636,-1.3516,-1.3379,-1.3174,-1.2915,-1.2945,-1.2836,-1.2559,-1.261,-1.264,-1.264,-1.2843,-1.3106,-0.4646,-0.3488,-0.2269,0.0,0.0,0.0,0.0,0.0,0.0,0.0,0.0,0.0,0.0,0.0,0.0,0.0,0.0,0.0,0.0,0.0,0.0,0.0,0.0,0.0,0.0,0.0,0.0,0.0,0.0,0.0,0.0,0.0,0.0,0.0,0.0,0.0,-0.5392,-0.5392,-0.5392,-0.5392,-0.5392,-0.5392,-0.5395,-0.5395,-0.5395,-0.5395,-0.5395,-0.5395,-0.5458,-0.633,-0.773,-0.9262,-0.93,-0.9811,-1.0485,-0.962,-0.93,-0.9166,-0.828,-0.8576,-0.93,-0.93,-0.9656,-1.0114,-1.0114,-1.0114,-1.0114,-1.0114,-1.0327,-1.0586,-1.0586,-1.0586,-1.0593,-1.0593,-1.0593,-1.0593,-1.0593,-1.0593,-1.0593,-1.0593,-1.0593,-1.0593,-1.0593,-1.0593,-1.0593,-1.0593,-1.0624,-1.1178,-1.2795,-1.3,-1.3488,-1.4684,-1.4394,-1.3929,-1.3545,-1.348,-1.332,-1.291,-1.2881,-1.3066,-1.3486,-1.3105,-1.2905,-1.2881,-1.2178,-1.1789,-1.1789,-1.1116,-1.0788,-1.0813,-1.1491,-1.1789,-0.3974,-0.3398,0.0,0.0,0.0,0.0,0.0,0.0,0.0,0.0,0.0,0.0,0.0,0.0,0.0,0.0,0.0,0.0,0.0,0.0,0.0,0.0,0.0,0.0,0.0,0.0,0.0,0.0,0.0,0.0,0.0,0.0,0.0,0.0,0.0,0.0,-0.5199,-0.5101,-0.505,-0.505,-0.505,-0.5159,-0.5395,-0.5395,-0.5395,-0.5395,-0.5395,-0.5395,-0.5451,-0.6201,-0.6728,-0.7222,-0.8353,-0.8963,-0.9143,-0.8806,-0.868,-0.8529,-0.768,-0.7953,-0.868,-0.868,-0.9177,-0.9813,-0.9813,-0.9813,-0.9813,-0.9813,-1.0027,-1.0247,-1.0247,-1.0439,-1.0593,-1.0593,-1.0593,-1.0593,-1.0593,-1.0593,-1.0593,-1.0593,-1.0593,-1.0593,-1.0593,-1.0593,-1.0593,-1.0593,-1.1076,-1.202,-1.3636,-1.4087,-1.4402,-1.4767,-1.4131,-1.3617,-1.3516,-1.2767,-1.2466,-1.2866,-1.1974,-1.192,-1.3032,-1.2949,-1.2666,-1.2138,-1.1922,-1.1566,-1.1091,-1.0889,-1.0788,-1.0813,-1.1491,-1.1789,-0.4229,0.0,0.0,0.0,0.0,0.0,0.0,0.0,0.0,0.0,0.0,0.0,0.0,0.0,0.0,0.0,0.0,0.0,0.0,0.0,0.0,0.0,0.0,0.0,0.0,0.0,0.0,0.0,0.0,0.0,0.0,0.0,0.0,0.0,0.0,0.0,-0.5015,-0.4931,-0.4887,-0.4887,-0.4887,-0.5013,-0.5186,-0.5186,-0.5186,-0.5186,-0.5186,-0.5186,-0.5243,-0.5645,-0.5965,-0.631,-0.7591,-0.831,-0.8639,-0.8838,-0.8926,-0.878,-0.7922,-0.8187,-0.8868,-0.8504,-0.8916,-0.9506,-0.9506,-0.9506,-0.9506,-0.9506,-0.9719,-0.9947,-0.9947,-1.016,-1.0445,-1.0566,-1.0593,-1.0593,-1.0593,-1.0593,-1.0593,-1.0593,-1.0593,-1.0593,-1.0593,-1.0593,-1.0593,-1.0593,-1.1569,-1.2504,-1.3174,-1.3755,-1.4098,-1.4043,-1.3313,-1.2821,-1.2821,-1.2183,-1.1873,-1.2049,-1.1275,-1.1174,-1.2024,-1.2082,-1.1866,-1.1416,-1.1141,-1.0813,-1.0389,-1.0141,-1.0141,-1.0415,-1.1091,-1.1541,-0.4991,0.0,0.0,0.0,0.0,0.0,0.0,0.0,0.0,0.0,0.0,0.0,0.0,0.0,0.0,0.0,0.0,0.0,0.0,0.0,0.0,0.0,0.0,0.0,0.0,0.0,0.0,0.0,0.0,0.0,0.0,0.0,0.0,0.0,0.0,0.0,-0.4867,-0.4884,-0.4877,0.0,-0.4877,-0.4877,-0.4877,-0.4877,-0.4887,-0.4887,-0.4887,-0.4881,-0.4867,-0.4867,-0.5333,-0.6109,-0.6845,-0.7675,-0.8509,-0.9247,-0.9577,-0.9513,-0.8707,-0.8945,-0.9484,-0.8701,-0.8776,-0.9171,-0.9171,-0.9171,-0.9171,-0.9171,-0.9412,-0.9646,-0.9646,-0.986,-1.0154,-1.0479,-1.0573,-1.0593,-1.0593,-1.0593,-1.0593,-1.0593,-1.0593,-1.0593,-1.0593,-1.0593,-1.0624,-1.0713,-1.1934,-1.2665,-1.1989,-1.253,-1.2977,-1.2895,-1.2198,-1.174,-1.1789,-1.169,-1.1391,-1.0838,-1.0695,-1.0644,-1.072,-1.0771,-1.0762,-1.0712,-1.0115,-0.9762,-0.9718,-0.9159,-0.9211,-0.9814,-1.0534,-1.1216,0.0,-0.454,0.0,0.0,0.0,0.0,0.0,0.0,0.0,0.0,0.0,0.0,0.0,0.0,0.0,0.0,0.0,0.0,0.0,0.0,0.0,0.0,0.0,0.0,0.0,0.0,0.0,0.0,0.0,0.0,0.0,0.0,0.0,0.0,0.0,-0.4741,-0.4741,-0.4648,-0.459,0.0,-0.459,-0.459,-0.4597,-0.4809,-0.4887,-0.4887,-0.4887,-0.485,-0.4741,-0.4741,-0.4782,-0.4945,-0.5605,-0.6359,-0.7115,-0.786,-0.8498,-0.8964,-0.8775,-0.8829,-0.8964,-0.8769,-0.8784,-0.8871,-0.8871,-0.8871,-0.8871,-0.8871,-0.9084,-0.9311,-0.9311,-0.9559,-0.9853,-1.014,-1.0419,-1.0593,-1.0593,-1.0593,-1.0593,-1.0593,-1.0593,-1.0593,-1.0593,-1.0593,-1.08,-1.1437,-1.1834,-1.2235,-1.2665,-1.2386,-1.2346,-1.284,-1.1783,-1.1241,-1.1765,-1.0838,-1.0389,-1.0788,-0.9814,-0.9465,-0.9987,-1.0517,-1.0534,-1.0038,-0.9865,-0.9536,-0.9008,-0.9387,-0.9666,-0.984,-1.104,-1.1665,0.0,0.0,0.0,0.0,0.0,0.0,0.0,0.0,0.0,0.0,0.0,0.0,0.0,0.0,0.0,0.0,0.0,0.0,0.0,0.0,0.0,0.0,0.0,0.0,0.0,0.0,0.0,0.0,0.0,0.0,0.0,0.0,0.0,0.0,-0.4276,-0.4036,-0.4036,-0.3599,-0.3594,-0.3987,-0.3987,-0.4153,-0.4494,-0.4655,-0.4701,-0.4701,-0.4701,-0.4657,-0.461,-0.461,-0.4563,-0.4598,-0.5632,-0.6258,-0.6723,-0.783,-0.848,-0.8804,-0.8804,-0.8804,-0.8804,-0.8804,-0.8804,-0.8804,-0.8804,-0.8804,-0.8804,-0.8804,-0.8891,-0.9004,-0.9004,-0.9224,-0.9506,-0.963,-1.0027,-1.0388,-1.0566,-1.0593,-1.0593,-1.0593,-1.0593,-1.0593,-1.0593,-1.0593,-1.0744,-1.117,-1.143,-1.1563,-1.1609,-1.1389,-1.1346,-1.1628,-1.0846,-1.0466,-1.0813,-1.0192,-0.9814,-0.984,-0.9185,-0.8956,-0.9316,-0.9666,-0.9692,-0.9335,-0.9309,-0.9133,-0.8804,-0.9458,-0.9969,-1.0287,-1.1316,-1.1996,0.0,0.0,0.0,0.0,0.0,0.0,0.0,0.0,0.0,0.0,0.0,0.0,0.0,0.0,0.0,0.0,0.0,0.0,0.0,0.0,0.0,0.0,0.0,0.0,0.0,0.0,0.0,0.0,0.0,0.0,0.0,0.0,-0.4491,-0.4491,-0.3707,-0.3314,-0.3317,-0.2565,-0.2593,-0.3372,-0.3511,-0.3901,-0.4491,-0.4491,-0.4491,-0.4491,-0.4491,-0.4491,-0.4491,-0.4491,-0.4491,-0.4625,-0.5769,-0.6317,-0.6583,-0.791,-0.8507,-0.8619,-0.8752,-0.8804,-0.8804,-0.8804,-0.8804,-0.8804,-0.8804,-0.8804,-0.8804,-0.8804,-0.8804,-0.8804,-0.8804,-0.8958,-0.9151,-0.9204,-0.9584,-1.0047,-1.0372,-1.0439,-1.0439,-1.0439,-1.0439,-1.0439,-1.0439,-1.0439,-1.0439,-1.0439,-1.0788,-1.079,-1.013,-1.018,-1.028,-1.0314,-0.9883,-0.9658,-0.9788,-0.9684,-0.9387,-0.8831,-0.8804,-0.8804,-0.8804,-0.8804,-0.8804,-0.8804,-0.8804,-0.8857,-0.8982,-0.964,-1.0312,-1.099,-1.1665,-1.232,0.0,0.0,0.0,0.0,0.0,0.0,0.0,0.0,0.0,0.0,0.0,0.0,0.0,0.0,0.0,0.0,0.0,0.0,0.0,0.0,0.0,0.0,0.0,0.0,0.0,0.0,0.0,0.0,0.0,0.0,0.0,-0.4924,-0.4491,-0.4491,-0.3707,-0.3317,-0.3372,-0.2593,-0.2565,-0.3317,-0.4015,-0.4405,-0.4491,-0.4491,-0.4491,-0.4491,-0.4491,-0.4491,-0.4491,-0.4491,-0.4491,-0.4519,-0.4708,-0.514,-0.576,-0.6583,-0.7289,-0.7943,-0.8586,-0.8804,-0.8804,-0.8804,-0.8804,-0.8804,-0.8804,-0.8804,-0.8804,-0.8804,-0.8804,-0.8804,-0.8804,-0.8838,-0.8904,-0.9151,-0.9271,-0.9411,-0.974,-0.9829,-0.9829,-0.9829,-0.9829,-0.9829,-0.9829,-0.9829,-0.9829,-0.9829,-0.9876,-0.9885,-0.9769,-0.953,-0.9611,-1.0233,-0.9473,-0.9159,-0.9762,-0.9263,-0.891,-0.8811,-0.8804,-0.8804,-0.8804,-0.8804,-0.8804,-0.8804,-0.8804,-0.9087,-0.9666,-1.0338,-1.1015,-1.169,-1.2403,-1.2798,0.0,0.0,0.0,0.0,0.0,0.0,0.0,0.0,0.0,0.0,0.0,0.0,0.0,0.0,0.0,0.0,0.0,0.0,0.0,0.0,0.0,0.0,0.0,0.0,0.0,0.0,0.0,0.0,0.0,0.0,-0.6118,-0.5089,-0.4322,-0.3901,-0.3093,-0.2508,-0.212,-0.1341,-0.1535,-0.2704,-0.3456,-0.407,-0.4491,-0.4491,-0.4491,-0.4491,-0.4491,-0.4491,-0.4491,-0.4491,-0.4491,-0.4546,-0.4924,-0.5246,-0.5597,-0.634,-0.6804,-0.7182,-0.7943,-0.8182,-0.8262,-0.8672,-0.8804,-0.8804,-0.8804,-0.8804,-0.8804,-0.8804,-0.8804,-0.8804,-0.8804,-0.8804,-0.8838,-0.8938,-0.8971,-0.9004,-0.9165,-0.9452,-0.9715,-0.9715,-0.9715,-0.9715,-0.9715,-0.9715,-0.9715,-0.9715,-0.9546,-0.9411,-0.9411,-0.9151,-0.9099,-0.9414,-0.9064,-0.891,-0.9211,-0.8962,-0.8804,-0.8804,-0.8804,-0.8804,-0.8804,-0.8804,-0.8804,-0.8804,-0.8804,-0.914,-0.9814,-1.0466,-1.1141,-1.1814,-1.2559,-1.2905,0.0,0.0,0.0,0.0,0.0,0.0,0.0,0.0,0.0,0.0,0.0,0.0,0.0,0.0,0.0,0.0,0.0,0.0,0.0,0.0,0.0,0.0,0.0,0.0,0.0,0.0,0.0,0.0,0.0,0.0,-0.6561,-0.5254,-0.4153,-0.34,-0.2621,-0.1842,-0.1118,-0.056,-0.0923,-0.2202,-0.2954,-0.3732,-0.4491,-0.4491,-0.4491,-0.4491,-0.4491,-0.4491,-0.4491,-0.4491,-0.4491,-0.4546,-0.5054,-0.5246,-0.5328,-0.6068,-0.6448,-0.6696,-0.745,-0.783,-0.8076,-0.8619,-0.8804,-0.8804,-0.8804,-0.8804,-0.8804,-0.8804,-0.8804,-0.8804,-0.8804,-0.8804,-0.8804,-0.8804,-0.8804,-0.8804,-0.8804,-0.9152,-0.9459,-0.9459,-0.9459,-0.9459,-0.9459,-0.9459,-0.9459,-0.9459,-0.9244,-0.9104,-0.9104,-0.8911,-0.8804,-0.8804,-0.8804,-0.8804,-0.8804,-0.8804,-0.8804,-0.8804,-0.8804,-0.8804,-0.8804,-0.8804,-0.8804,-0.8804,-0.8804,-0.9211,-1.0064,-1.0745,-1.1416,-1.208,-1.2632,-1.2798,0.0,0.0,0.0,0.0,0.0,0.0,0.0,0.0,0.0,0.0,0.0,0.0,0.0,0.0,0.0,0.0,0.0,0.0,0.0,0.0,0.0,0.0,0.0,0.0,0.0,0.0,0.0,0.0,0.0,0.0,-0.6588,-0.5254,-0.4125,-0.3345,-0.2593,-0.1842,-0.1118,-0.1062,-0.1424,-0.2202,-0.301,-0.379,-0.4491,-0.4491,-0.4491,-0.4491,-0.4491,-0.4491,-0.4491,-0.4491,-0.4491,-0.4491,-0.4546,-0.4543,-0.4625,-0.53,-0.6009,-0.6696,-0.745,-0.8156,-0.8752,-0.8778,-0.8804,-0.8804,-0.8804,-0.8804,-0.8804,-0.8804,-0.8804,-0.8804,-0.8804,-0.8804,-0.8804,-0.8804,-0.8804,-0.8804,-0.8804,-0.8831,-0.8851,-0.8851,-0.8851,-0.8851,-0.8851,-0.8851,-0.8851,-0.8851,-0.8838,-0.8831,-0.8831,-0.8818,-0.8804,-0.8804,-0.8804,-0.8804,-0.8804,-0.8804,-0.8804,-0.8804,-0.8804,-0.8804,-0.8804,-0.8804,-0.8804,-0.8804,-0.8804,-0.9439,-1.0745,-1.1416,-1.2138,-1.2847,-1.2881,-1.2535,0.0,0.0,0.0,0.0,0.0,0.0,0.0,0.0,0.0,0.0,0.0,0.0,0.0,0.0,0.0,0.0,0.0,0.0,0.0,0.0,0.0,0.0,0.0,0.0,0.0,0.0,0.0,0.0,0.0,0.0,-0.6588,-0.5687,-0.436,-0.2649,-0.2343,-0.1619,-0.0392,-0.0392,-0.0755,-0.1507,-0.2259,-0.3037,-0.3818,-0.4294,-0.4491,-0.4491,-0.4491,-0.4491,-0.4491,-0.4491,-0.4491,-0.4491,-0.4491,-0.4491,-0.4515,-0.4759,-0.53,-0.6009,-0.6745,-0.7477,-0.8182,-0.8646,-0.8804,-0.8804,-0.8804,-0.8804,-0.8804,-0.8804,-0.8804,-0.8804,-0.8804,-0.8804,-0.8804,-0.8804,-0.8804,-0.8804,-0.8804,-0.8804,-0.8804,-0.8804,-0.8804,-0.8804,-0.8804,-0.8804,-0.8804,-0.8804,-0.8804,-0.8804,-0.8804,-0.8804,-0.8804,-0.8804,-0.8804,-0.8804,-0.8804,-0.8804,-0.8804,-0.8804,-0.8804,-0.8804,-0.8804,-0.8804,-0.8804,-0.8804,-0.9211,-0.9884,-1.0788,-1.104,-1.1525,-1.2187,-1.2187,-1.1823,0.0,0.0,0.0,0.0,0.0,0.0,0.0,0.0,0.0,0.0,0.0,0.0,0.0,0.0,0.0,0.0,0.0,0.0,0.0,0.0,0.0,0.0,0.0,0.0,0.0,0.0,0.0,0.0,0.0,0.0,-0.6615,-0.5672,-0.4118,-0.1892,-0.1581,-0.0978,0.0,0.0,-0.0364,-0.1118,-0.1591,-0.2371,-0.3372,-0.3873,-0.4236,-0.4491,-0.4491,-0.4491,-0.4491,-0.4491,-0.4491,-0.4491,-0.4491,-0.4491,-0.4491,-0.4491,-0.5085,-0.5928,-0.6421,-0.7235,-0.8156,-0.8646,-0.8804,-0.8804,-0.8804,-0.8804,-0.8804,-0.8804,-0.8804,-0.8804,-0.8804,-0.8804,-0.8804,-0.8804,-0.8804,-0.8804,-0.8804,-0.8804,-0.8804,-0.8804,-0.8804,-0.8804,-0.8804,-0.8804,-0.8804,-0.8804,-0.8804,-0.8804,-0.8804,-0.8804,-0.8804,-0.8804,-0.8804,-0.8804,-0.8804,-0.8804,-0.8804,-0.8804,-0.8804,-0.8804,-0.8804,-0.8804,-0.8804,-0.8804,-0.9237,-0.9788,-1.0466,-1.0686,-1.104,-1.1466,-1.1466,-1.1116,0.0,0.0,0.0,0.0,0.0,0.0,0.0,0.0,0.0,0.0,0.0,0.0,0.0,0.0,0.0,0.0,0.0,0.0,0.0,0.0,0.0,0.0,0.0,0.0,0.0,0.0,0.0,0.0,0.0,-0.7358,-0.6632,-0.5145,-0.3344,-0.1166,-0.0384,0.0,0.0,0.0,-0.0364,-0.1062,-0.109,-0.187,-0.3259,-0.3287,-0.3732,-0.4491,-0.4491,-0.4491,-0.4491,-0.4491,-0.4491,-0.4491,-0.4491,-0.4491,-0.4491,-0.4515,-0.5418,-0.6615,-0.6615,-0.7589,-0.8804,-0.8804,-0.8804,-0.8804,-0.8804,-0.8804,-0.8804,-0.8804,-0.8804,-0.8804,-0.8804,-0.8804,-0.8804,-0.8804,-0.8804,-0.8804,-0.8804,-0.8804,-0.8804,-0.8804,-0.8804,-0.8804,-0.8804,-0.8804,-0.8804,-0.8804,-0.8804,-0.8804,-0.8804,-0.8804,-0.8804,-0.8804,-0.8804,-0.8804,-0.8804,-0.8804,-0.8804,-0.8804,-0.8804,-0.8804,-0.8804,-0.8804,-0.8804,-0.8804,-0.8804,-0.9106,-0.9762,-1.044,-1.0762,-1.0762,-1.0737,-1.0389,-0.4491,0.0,0.0,0.0,0.0,0.0,0.0,0.0,0.0,0.0,0.0,0.0,0.0,0.0,0.0,0.0,0.0,0.0,0.0,0.0,0.0,0.0,0.0,0.0,0.0,0.0,0.0,0.0,-0.7201,-0.7229,-0.6504,-0.4032,-0.2194,-0.1125,-0.0388,0.0,0.0,0.0,-0.0109,-0.0308,-0.0838,-0.1591,-0.2536,-0.3093,-0.379,-0.4491,-0.4491,-0.4491,-0.4491,-0.4491,-0.4491,-0.4491,-0.4491,-0.4491,-0.457,-0.5058,-0.5819,-0.6669,-0.7208,-0.8017,-0.8804,-0.8804,-0.8804,-0.8804,-0.8804,-0.8804,-0.8804,-0.8804,-0.8804,-0.8804,-0.8804,-0.8804,-0.8804,-0.8804,-0.8804,-0.8804,-0.8804,-0.8804,-0.8804,-0.8804,-0.8804,-0.8804,-0.8804,-0.8804,-0.8804,-0.8804,-0.8804,-0.8804,-0.8804,-0.8804,-0.8804,-0.8804,-0.8804,-0.8804,-0.8804,-0.8804,-0.8804,-0.8804,-0.8804,-0.8804,-0.8804,-0.8804,-0.8804,-0.8804,-0.8804,-0.8883,-0.9087,-0.9744,-1.009,-1.0064,-0.9588,-0.9263,0.0,0.0,0.0,0.0,0.0,0.0,0.0,0.0,0.0,0.0,0.0,0.0,0.0,0.0,0.0,0.0,0.0,0.0,0.0,0.0,0.0,0.0,0.0,0.0,0.0,0.0,0.0,0.0,-0.7165,-0.6767,-0.5121,-0.2861,-0.1326,-0.0666,-0.0225,0.0,0.0,0.0,0.0,0.0,-0.0445,-0.1034,-0.1758,-0.2538,-0.3317,-0.407,-0.4377,-0.4491,-0.4491,-0.4491,-0.4491,-0.4491,-0.4491,-0.468,-0.4976,-0.5351,-0.6167,-0.7128,-0.7563,-0.8182,-0.8804,-0.8804,-0.8804,-0.8804,-0.8804,-0.8804,-0.8804,-0.8804,-0.8804,-0.8804,-0.8804,-0.8804,-0.8804,-0.8804,-0.8804,-0.8804,-0.8804,-0.8804,-0.8804,-0.8804,-0.8804,-0.8804,-0.8804,-0.8804,-0.8804,-0.8804,-0.8804,-0.8804,-0.8804,-0.8804,-0.8804,-0.8804,-0.8804,-0.8804,-0.8804,-0.8804,-0.8804,-0.8804,-0.8804,-0.8804,-0.8804,-0.8804,-0.8804,-0.8804,-0.8804,-0.8804,-0.8804,-0.9185,-0.9387,-0.9361,-0.8982,-0.8804,0.0,-0.3707,0.0,0.0,0.0,0.0,-0.428,-0.4194,0.0,0.0,0.0,0.0,0.0,0.0,0.0,0.0,0.0,0.0,0.0,0.0,0.0,0.0,0.0,0.0,0.0,0.0,-0.6493,-0.6672,-0.7015,-0.5972,-0.312,-0.1752,-0.0736,-0.0024,0.0,0.0,0.0,0.0,0.0,0.0,0.0,-0.039,-0.1112,-0.1867,-0.2649,-0.3428,-0.4181,-0.4491,-0.4491,-0.4491,-0.4491,-0.4519,-0.457,-0.4976,-0.5515,-0.5678,-0.6578,-0.7723,-0.7803,-0.8262,-0.8804,-0.8804,-0.8804,-0.8804,-0.8804,-0.8804,-0.8804,-0.8804,-0.8804,-0.8804,-0.8804,-0.8804,-0.8804,-0.8804,-0.8804,-0.8804,-0.8804,-0.8804,-0.8804,-0.8804,-0.8804,-0.8804,-0.8804,-0.8804,-0.8804,-0.8804,-0.8804,-0.8804,-0.8804,-0.8804,-0.8804,-0.8804,-0.8804,-0.8804,-0.8804,-0.8804,-0.8804,-0.8804,-0.8804,-0.8804,-0.8804,-0.8804,-0.8804,-0.8804,-0.8804,-0.8804,-0.8804,-0.8804,-0.8804,-0.8804,-0.8804,-0.8804,-0.2454,-0.2536,-0.2603,-0.2477,0.0,0.0,0.0,-0.3343,0.0,0.0,0.0,0.0,0.0,0.0,0.0,0.0,0.0,0.0,0.0,0.0,0.0,0.0,0.0,0.0,0.0,0.0,-0.6733,-0.7141,-0.6077,-0.4419,-0.2168,-0.1344,-0.0641,-0.0023,0.0,0.0,0.0,0.0,0.0,0.0,0.0,-0.0376,-0.1127,-0.1873,-0.2619,-0.3372,-0.4153,-0.4491,-0.4491,-0.4491,-0.4491,-0.4543,-0.5081,-0.5378,-0.5651,-0.6821,-0.745,-0.7777,-0.8374,-0.8672,-0.8804,-0.8804,-0.8804,-0.8804,-0.8804,-0.8804,-0.8804,-0.8804,-0.8804,-0.8804,-0.8804,-0.8804,-0.8804,-0.8804,-0.8804,-0.8804,-0.8804,-0.8804,-0.8804,-0.8804,-0.8804,-0.8804,-0.8804,-0.8804,-0.8804,-0.8804,-0.8804,-0.8804,-0.8804,-0.8804,-0.8804,-0.8804,-0.8804,-0.8804,-0.8804,-0.8804,-0.8804,-0.8804,-0.8804,-0.8804,-0.8804,-0.8804,-0.8804,-0.8804,-0.8804,-0.8804,-0.8804,-0.8804,-0.8804,-0.8804,-0.8804,-0.8804,0.0,0.0,-0.2111,-0.1748,0.0,0.0,0.0,0.0,0.0,0.0,0.0,0.0,0.0,0.0,0.0,0.0,0.0,0.0,0.0,0.0,0.0,0.0,0.0,0.0,0.0,0.0,-0.6391,-0.6632,-0.5412,-0.3853,-0.2008,-0.097,-0.0321,0.0,0.0,0.0,0.0,0.0,0.0,0.0,0.0,-0.0181,-0.0571,-0.1314,-0.2065,-0.2801,-0.3597,-0.4153,-0.4491,-0.4491,-0.4491,-0.457,-0.5246,-0.5733,-0.6172,-0.7289,-0.7943,-0.8295,-0.8672,-0.8804,-0.8804,-0.8804,-0.8804,-0.8804,-0.8804,-0.8804,-0.8804,-0.8804,-0.8804,-0.8804,-0.8804,-0.8804,-0.8804,-0.8804,-0.8804,-0.8804,-0.8804,-0.8804,-0.8804,-0.8804,-0.8804,-0.8804,-0.8804,-0.8804,-0.8804,-0.8804,-0.8804,-0.8804,-0.8804,-0.8804,-0.8804,-0.8804,-0.8804,-0.8804,-0.8804,-0.8804,-0.8804,-0.8804,-0.8804,-0.8804,-0.8804,-0.8804,-0.8804,-0.8804,-0.8804,-0.8804,-0.8804,-0.8804,-0.8804,-0.8804,-0.8804,-0.8804,0.0,0.0,0.0,0.0,0.0,-0.1809,0.0,0.0,0.0,-0.3742,0.0,0.0,0.0,0.0,0.0,0.0,0.0,0.0,0.0,0.0,0.0,0.0,0.0,0.0,0.0,0.0,-0.6145,-0.6004,-0.479,-0.3462,-0.2071,-0.0738,0.0,0.0,0.0,0.0,0.0,0.0,0.0,0.0,0.0,0.0,-0.0025,-0.0751,-0.1496,-0.2205,-0.2998,-0.3745,-0.4406,-0.4436,-0.445,-0.4505,-0.5234,-0.5955,-0.6696,-0.7423,-0.8156,-0.8804,-0.8804,-0.8804,-0.8804,-0.8804,-0.8804,-0.8804,-0.8804,-0.8804,-0.8804,-0.8804,-0.8804,-0.8804,-0.8804,-0.8804,-0.8804,-0.8804,-0.8804,-0.8804,-0.8804,-0.8804,-0.8804,-0.8804,-0.8804,-0.8804,-0.8804,-0.8804,-0.8804,-0.8804,-0.8804,-0.8804,-0.8804,-0.8804,-0.8804,-0.8804,-0.8804,-0.8804,-0.8804,-0.8804,-0.8804,-0.8804,-0.8804,-0.8804,-0.8804,-0.8804,-0.8804,-0.8804,-0.8804,-0.8804,-0.8804,-0.8804,-0.8804,-0.8804,-0.8804,-0.8804,0.0,0.0,0.0,0.0,-0.0182,0.0,0.0,0.0,-0.2096,-0.2746,0.0,0.0,0.0,0.0,0.0,0.0,0.0,0.0,0.0,0.0,0.0,0.0,0.0,0.0,0.0,0.0,0.0,-0.6053,-0.4068,-0.2621,-0.2042,-0.0738,0.0,0.0,0.0,0.0,0.0,0.0,0.0,0.0,0.0,0.0,-0.0024,-0.0774,-0.1444,-0.2074,-0.2819,-0.3487,-0.4055,-0.419,-0.4247,-0.431,-0.5159,-0.5955,-0.6696,-0.7423,-0.8156,-0.8804,-0.8804,-0.8804,-0.8804,-0.8804,-0.8804,-0.8804,-0.8804,-0.8804,-0.8804,-0.8804,-0.8804,-0.8804,-0.8804,-0.8804,-0.8804,-0.8804,-0.8804,-0.8804,-0.8804,-0.8804,-0.8804,-0.8804,-0.8804,-0.8804,-0.8804,-0.8804,-0.8804,-0.8804,-0.8804,-0.8804,-0.8804,-0.8804,-0.8804,-0.8804,-0.8804,-0.8804,-0.8804,-0.8804,-0.8804,-0.8804,-0.8804,-0.8804,-0.8804,-0.8804,-0.8804,-0.8804,-0.8804,-0.8804,-0.8804,-0.8804,-0.8804,-0.8804,-0.8804,-0.8804,0.0,0.0,0.0,0.0,0.0,0.0,0.0,0.0,-0.1997,0.0,0.0,0.0,0.0,0.0,0.0,0.0,0.0,0.0,0.0,0.0,0.0,0.0,0.0,0.0,0.0,0.0,0.0,0.0,0.0,-0.3151,-0.2177,-0.117,-0.0436,-0.0023,0.0,0.0,0.0,0.0,0.0,0.0,0.0,0.0,0.0,-0.0312,-0.1025,-0.2022,-0.2316,-0.3041,-0.4001,-0.4062,-0.4092,-0.4131,-0.4564,-0.5511,-0.6696,-0.7423,-0.8156,-0.8804,-0.8804,-0.8804,-0.8804,-0.8804,-0.8804,-0.8804,-0.8804,-0.8804,-0.8804,-0.8804,-0.8804,-0.8804,-0.8804,-0.8804,-0.8804,-0.8804,-0.8804,-0.8804,-0.8804,-0.8804,-0.8804,-0.8804,-0.8804,-0.8804,-0.8804,-0.8804,-0.8804,-0.8804,-0.8804,-0.8804,-0.8804,-0.8804,-0.8804,-0.8804,-0.8804,-0.8804,-0.8804,-0.8804,-0.8804,-0.8804,-0.8804,-0.8804,-0.8804,-0.8804,-0.8804,-0.8804,-0.8804,-0.8804,-0.8804,-0.8804,-0.8804,-0.8804,-0.8804,-0.8804,0.0616,0.0,0.0,0.0,0.0,0.0,0.0,0.0,0.0,0.0,0.0,0.0,0.0,0.0,0.0,0.0,0.0,0.0,0.0,0.0,0.0,0.0,0.0,0.0,0.0,0.0,0.0,0.0,0.0,0.0,-0.2248,-0.1489,-0.0769,-0.0024,0.0,0.0,0.0,0.0,0.0,0.0,0.0,0.0,0.0,0.0,-0.0703,-0.1941,-0.1949,-0.2679,-0.39,-0.3941,-0.3958,-0.3947,-0.4099,-0.5004,-0.6316,-0.6881,-0.7691,-0.8507,-0.8507,-0.8619,-0.8804,-0.8804,-0.8804,-0.8804,-0.8804,-0.8804,-0.8804,-0.8804,-0.8804,-0.8804,-0.8804,-0.8804,-0.8804,-0.8804,-0.8804,-0.8804,-0.8804,-0.8804,-0.8804,-0.8804,-0.8804,-0.8804,-0.8804,-0.8804,-0.8804,-0.8804,-0.8804,-0.8804,-0.8804,-0.8804,-0.8804,-0.8804,-0.8804,-0.8804,-0.8804,-0.8804,-0.8804,-0.8804,-0.8804,-0.8804,-0.8804,-0.8804,-0.8804,-0.8804,-0.8804,-0.8804,-0.8804,-0.8804,-0.8804,-0.8804,-0.8804,-0.8804,0.0,0.0,0.0,0.1234,0.0,0.0,0.0,0.0,-0.1991,0.0,0.0,0.0,0.0,0.0,0.0,0.0,0.0,0.0,0.0,0.0,0.0,0.0,0.0,0.0,0.0,0.0,0.0,0.0,0.0,0.0,-0.222,-0.1489,-0.0769,-0.0024,0.0,0.0,0.0,0.0,0.0,0.0,0.0,0.0,0.0,0.0,-0.0651,-0.1811,-0.1813,-0.2486,-0.3628,-0.3741,-0.3799,-0.3816,-0.3944,-0.4546,-0.5362,-0.5506,-0.6492,-0.7723,-0.7723,-0.8209,-0.8804,-0.8804,-0.8804,-0.8804,-0.8804,-0.8804,-0.8804,-0.8804,-0.8804,-0.8804,-0.8804,-0.8804,-0.8804,-0.8804,-0.8804,-0.8804,-0.8804,-0.8804,-0.8804,-0.8804,-0.8804,-0.8804,-0.8804,-0.8804,-0.8804,-0.8804,-0.8804,-0.8804,-0.8804,-0.8804,-0.8804,-0.8804,-0.8804,-0.8804,-0.8804,-0.8804,-0.8804,-0.8804,-0.8804,-0.8804,-0.8804,-0.8804,-0.8804,-0.8804,-0.8804,-0.8804,-0.8804,-0.8804,-0.8804,-0.8804,-0.8804,-0.8804,0.0,0.0,0.2151,0.1897,0.0,0.0,0.0,0.0,0.0,0.0,0.0,0.0,0.0,0.0,0.0,0.0,0.0,0.0,0.0,0.0,0.0,0.0,0.0,0.0,0.0,0.0,0.0,0.0,0.0,0.0,0.0,-0.2489,-0.1488,-0.0744,-0.0263,0.0,0.0,0.0,0.0,0.0,0.0,0.0,0.0,0.0,-0.065,-0.1808,-0.1808,-0.2477,-0.3607,-0.3655,-0.3675,-0.3699,-0.3924,-0.4175,-0.4513,-0.5144,-0.6059,-0.7047,-0.7536,-0.7857,-0.8156,-0.8646,-0.8804,-0.8804,-0.8804,-0.8804,-0.8804,-0.8804,-0.8804,-0.8804,-0.8804,-0.8804,-0.8804,-0.8804,-0.8804,-0.8804,-0.8804,-0.8804,-0.8804,-0.8804,-0.8804,-0.8804,-0.8804,-0.8804,-0.8804,-0.8804,-0.8804,-0.8804,-0.8804,-0.8804,-0.8804,-0.8804,-0.8804,-0.8804,-0.8804,-0.8804,-0.8804,-0.8804,-0.8804,-0.8804,-0.8804,-0.8804,-0.8804,-0.8804,-0.8804,-0.8804,-0.8804,-0.8804,-0.8804,-0.8804,-0.8804,-0.8804,0.2941,0.2905,0.0,0.2528,0.208,0.0,0.1149,0.0,0.0,0.0,0.0,0.0,0.0,0.0,0.0,0.0,0.0,0.0,0.0,0.0,0.0,0.0,0.0,0.0,0.0,0.0,-0.4722,-0.5073,0.0,0.0,0.0,0.0,-0.1851,-0.111,-0.039,0.0,0.0,0.0,0.0,0.0,0.0,0.0,0.0,0.0,-0.065,-0.1808,-0.1808,-0.2477,-0.3604,-0.3604,-0.3604,-0.3621,-0.3788,-0.3894,-0.4017,-0.4744,-0.5529,-0.6312,-0.7047,-0.7316,-0.7402,-0.7857,-0.8017,-0.8076,-0.8321,-0.8401,-0.8454,-0.8725,-0.8804,-0.8804,-0.8804,-0.8804,-0.8804,-0.8804,-0.8804,-0.8804,-0.8804,-0.8804,-0.8804,-0.8804,-0.8804,-0.8804,-0.8804,-0.8804,-0.8804,-0.8804,-0.8804,-0.8804,-0.8804,-0.8804,-0.8804,-0.8804,-0.8804,-0.8804,-0.8804,-0.8804,-0.8804,-0.8804,-0.8804,-0.8804,-0.8804,-0.8804,-0.8804,-0.8804,-0.8804,-0.8804,-0.8804,-0.8804,-0.8804,-0.8804,-0.8804,-0.8804]}]]